Darstellungsparameter: Aktuell verwendete Einstellungen:
Skalierung der Graphiken ... ?
xyx+y,   Skalierungsfaktor:      Skalierung: Modus: x, Faktor: 1
Darstellungszeitraum ... ?
Vom - - bis: - -   Zeitraum: 08.08.2010 - 28.08.2010
Min/Max/Avg-Anzeige ... ?
Zeige MMA aktuell
Zeige MMA Monat
Zeige MMA alles
Zeige --A aktuell
Zeige --A Monat
Zeige --A alles
Keine MMA-Anzeige
MMA:
Average (ber die Originaldaten)
MMA-Basis: 08.08.2010 - 28.08.2010
Quicknavigation für Darstellung... ?
Tage:      1T, 2T, 3T, 5T -1T -2T -3T -5T +1T +2T +3T +5T
Wochen: 1W, 2W, 3W -1W -2W -3W +1W +2W +3W
Monate: 1M, 3M, 6M -1M -3M -6M +1M +3M +6M
Jahre:    1J, 3J, 5J, 10J -1J -3J -5J -10J +1J +3J +5J +10J
Nutze für die Darstellung ... ?
Originaldaten oder Mittelwerte auf ...
Stundenbasis Tagesbasis Wochenbasis
Monatsbasis Jahresbasis      Datenbasis: Original-Daten
Darstellen als:
Statistik (Auto) Statistik J:M      Darstellung:
Zur Graphik,    zurück zur Übersicht aller Sensoren.
 
Tabellarische Datenbersicht: ?
 
Sensor: Nr:Datum:Temp:Abs-Feuchte:Windchill:Wind:
Aussen-T/F 1 08-08-2010 00:02:02 21.3 C 8.02 g/m*3 21.3 C 0 km/h
2 08-08-2010 00:14:02 21.2 C 7.78 g/m*3 21.2 C 0 km/h
3 08-08-2010 00:26:02 21.1 C 8.11 g/m*3 21.1 C 0 km/h
4 08-08-2010 00:38:01 20.9 C 8.38 g/m*3 20.9 C 0 km/h
5 08-08-2010 00:50:03 20.7 C 8.28 g/m*3 20.7 C 0 km/h
6 08-08-2010 01:02:02 20.4 C 8.31 g/m*3 20.4 C 0 km/h
7 08-08-2010 01:14:02 20.4 C 8.14 g/m*3 20.4 C 0 km/h
8 08-08-2010 01:26:02 20.1 C 8.34 g/m*3 20.1 C 0 km/h
9 08-08-2010 01:38:02 19.9 C 8.59 g/m*3 19.9 C 0 km/h
10 08-08-2010 01:50:02 20 C 8.81 g/m*3 20 C 0 km/h
11 08-08-2010 02:02:01 20.1 C 8.87 g/m*3 20.1 C 0 km/h
12 08-08-2010 02:14:01 20.1 C 9.04 g/m*3 20.1 C 0 km/h
13 08-08-2010 02:26:02 19.7 C 9.68 g/m*3 19.7 C 0 km/h
14 08-08-2010 02:38:02 19.6 C 9.79 g/m*3 19.6 C 0 km/h
15 08-08-2010 02:50:01 19.6 C 9.79 g/m*3 19.6 C 0 km/h
16 08-08-2010 03:02:01 19.3 C 9.79 g/m*3 19.3 C 0 km/h
17 08-08-2010 03:14:02 18.7 C 9.93 g/m*3 18.7 C 0 km/h
18 08-08-2010 03:26:02 18.5 C 10.13 g/m*3 18.5 C 0 km/h
19 08-08-2010 03:38:01 18.4 C 10.07 g/m*3 18.4 C 0 km/h
20 08-08-2010 03:50:01 18.5 C 10.13 g/m*3 18.5 C 0 km/h
21 08-08-2010 04:02:01 18.5 C 10.13 g/m*3 18.5 C 0 km/h
22 08-08-2010 04:14:01 18.4 C 10.38 g/m*3 18.4 C 0 km/h
23 08-08-2010 04:26:02 18.3 C 10.48 g/m*3 18.3 C 0 km/h
24 08-08-2010 04:38:01 18.3 C 10.48 g/m*3 18.3 C 0 km/h
25 08-08-2010 04:50:02 18.3 C 10.48 g/m*3 18.3 C 0 km/h
Sensor: Nr:Datum:Temp:Abs-Feuchte:Windchill:Wind:
Aussen-T/F 26 08-08-2010 05:02:01 18.2 C 10.57 g/m*3 18.2 C 0 km/h
27 08-08-2010 05:14:01 17.7 C 11.16 g/m*3 17.7 C 0 km/h
28 08-08-2010 05:26:02 17.5 C 11.48 g/m*3 17.5 C 0 km/h
29 08-08-2010 05:38:01 17.4 C 12 g/m*3 17.4 C 0 km/h
30 08-08-2010 05:50:02 17 C 12.01 g/m*3 17 C 0 km/h
31 08-08-2010 06:02:01 16.9 C 12.37 g/m*3 16.9 C 0 km/h
32 08-08-2010 06:14:01 16.6 C 12.29 g/m*3 16.6 C 0 km/h
33 08-08-2010 06:26:01 16.6 C 12.43 g/m*3 16.6 C 0 km/h
34 08-08-2010 06:38:02 16.6 C 12.57 g/m*3 16.6 C 0 km/h
35 08-08-2010 06:50:01 16.7 C 12.79 g/m*3 16.7 C 0 km/h
36 08-08-2010 07:02:02 16.5 C 12.64 g/m*3 16.5 C 0 km/h
37 08-08-2010 07:14:02 16.4 C 12.7 g/m*3 16.4 C 0 km/h
38 08-08-2010 07:26:01 16.6 C 13 g/m*3 16.6 C 0 km/h
39 08-08-2010 07:38:02 16.8 C 13.15 g/m*3 16.8 C 0 km/h
40 08-08-2010 07:50:01 17 C 13.31 g/m*3 17 C 0 km/h
41 08-08-2010 08:02:02 17 C 13.31 g/m*3 17 C 0 km/h
42 08-08-2010 08:14:02 17 C 13.31 g/m*3 17 C 0 km/h
43 08-08-2010 08:26:01 17.3 C 13.55 g/m*3 17.3 C 0 km/h
44 08-08-2010 08:38:02 17.2 C 13.47 g/m*3 17.2 C 0 km/h
45 08-08-2010 08:50:01 17.5 C 13.72 g/m*3 17.5 C 0 km/h
46 08-08-2010 09:02:02 17.6 C 13.65 g/m*3 17.6 C 0 km/h
47 08-08-2010 09:14:02 17.5 C 13.42 g/m*3 17.5 C 0 km/h
48 08-08-2010 09:26:01 17.5 C 13.27 g/m*3 17.5 C 0 km/h
49 08-08-2010 09:38:01 17.6 C 13.2 g/m*3 17.6 C 0 km/h
50 08-08-2010 09:50:01 18 C 13.21 g/m*3 18 C 0 km/h
Sensor: Nr:Datum:Temp:Abs-Feuchte:Windchill:Wind:
Aussen-T/F 51 08-08-2010 10:02:01 18 C 12.75 g/m*3 18 C 0 km/h
52 08-08-2010 10:14:01 18.1 C 12.67 g/m*3 18.1 C 0 km/h
53 08-08-2010 10:26:02 18.5 C 12.82 g/m*3 18.5 C 0 km/h
54 08-08-2010 10:38:01 19 C 12.55 g/m*3 19 C 0 km/h
55 08-08-2010 10:50:02 18.7 C 12.49 g/m*3 18.7 C 0 km/h
56 08-08-2010 11:02:01 17.1 C 11.94 g/m*3 17.1 C 0 km/h
57 08-08-2010 11:14:01 16.5 C 12.08 g/m*3 16.5 C 0 km/h
58 08-08-2010 11:26:02 16.4 C 12.28 g/m*3 16.4 C 0 km/h
59 08-08-2010 11:38:01 16.1 C 12.06 g/m*3 16.1 C 0 km/h
60 08-08-2010 11:50:02 16.3 C 12.35 g/m*3 16.3 C 0 km/h
61 08-08-2010 12:02:01 16.2 C 12.27 g/m*3 16.2 C 0 km/h
62 08-08-2010 12:14:01 16.5 C 12.5 g/m*3 16.5 C 0 km/h
63 08-08-2010 12:26:01 16.6 C 12.57 g/m*3 16.6 C 0 km/h
64 08-08-2010 12:38:01 17.1 C 12.96 g/m*3 17.1 C 0 km/h
65 08-08-2010 12:50:02 16.5 C 12.5 g/m*3 16.5 C 0 km/h
66 08-08-2010 13:02:02 16.5 C 12.64 g/m*3 16.5 C 0 km/h
67 08-08-2010 13:14:02 16.4 C 12.56 g/m*3 16.4 C 0 km/h
68 08-08-2010 13:26:01 16.5 C 12.64 g/m*3 16.5 C 0 km/h
69 08-08-2010 13:38:03 17.9 C 13.59 g/m*3 17.9 C 0 km/h
70 08-08-2010 13:50:01 18.5 C 12.82 g/m*3 18.5 C 0 km/h
71 08-08-2010 14:02:01 18.7 C 12.65 g/m*3 18.7 C 0 km/h
72 08-08-2010 14:14:01 18.9 C 12.47 g/m*3 18.9 C 0 km/h
73 08-08-2010 14:26:02 18.9 C 12.64 g/m*3 18.9 C 0 km/h
74 08-08-2010 14:38:01 19.2 C 12.37 g/m*3 19.2 C 0 km/h
75 08-08-2010 14:50:02 19.2 C 12.7 g/m*3 19.2 C 0 km/h
Sensor: Nr:Datum:Temp:Abs-Feuchte:Windchill:Wind:
Aussen-T/F 76 08-08-2010 15:02:01 18.9 C 12.8 g/m*3 18.9 C 0 km/h
77 08-08-2010 15:14:01 19.5 C 12.59 g/m*3 19.5 C 0 km/h
78 08-08-2010 15:26:02 20.2 C 12.41 g/m*3 20.2 C 0 km/h
79 08-08-2010 15:38:01 21 C 13.19 g/m*3 21 C 0 km/h
80 08-08-2010 15:50:02 21.3 C 11.37 g/m*3 21.3 C 0 km/h
81 08-08-2010 16:02:01 20.7 C 11.88 g/m*3 20.7 C 0 km/h
82 08-08-2010 16:14:01 20 C 12.27 g/m*3 20 C 0 km/h
83 08-08-2010 16:26:01 19.5 C 12.42 g/m*3 19.5 C 0 km/h
84 08-08-2010 16:38:02 19.6 C 12.49 g/m*3 19.6 C 0 km/h
85 08-08-2010 16:50:01 19.9 C 12.71 g/m*3 19.9 C 0 km/h
86 08-08-2010 17:02:02 21.4 C 11.81 g/m*3 21.4 C 0 km/h
87 08-08-2010 17:14:02 21.3 C 12.3 g/m*3 21.3 C 0 km/h
88 08-08-2010 17:26:01 21.4 C 12.37 g/m*3 21.4 C 0 km/h
89 08-08-2010 17:38:02 22 C 12.23 g/m*3 22 C 0 km/h
90 08-08-2010 17:50:01 22.3 C 11.26 g/m*3 22.3 C 0 km/h
91 08-08-2010 18:02:02 22.2 C 9.42 g/m*3 22.2 C 0 km/h
92 08-08-2010 18:14:02 21.3 C 9.88 g/m*3 21.3 C 0 km/h
93 08-08-2010 18:27:01 21.2 C 9.82 g/m*3 21.2 C 0 km/h
94 08-08-2010 18:38:01 20.9 C 10.56 g/m*3 20.9 C 0 km/h
95 08-08-2010 18:51:01 21.5 C 11.31 g/m*3 21.5 C 0 km/h
96 08-08-2010 19:03:01 21.7 C 9.92 g/m*3 21.7 C 0 km/h
97 08-08-2010 19:14:02 20.8 C 10.5 g/m*3 20.8 C 0 km/h
98 08-08-2010 19:26:02 20 C 10.71 g/m*3 20 C 0 km/h
99 08-08-2010 19:39:01 19 C 10.76 g/m*3 19 C 0 km/h
100 08-08-2010 19:50:02 18.4 C 11.64 g/m*3 18.4 C 0 km/h
Sensor: Nr:Datum:Temp:Abs-Feuchte:Windchill:Wind:
Aussen-T/F 101 08-08-2010 20:03:01 18.1 C 11.9 g/m*3 18.1 C 0 km/h
102 08-08-2010 20:15:01 17.7 C 11.92 g/m*3 17.7 C 0 km/h
103 08-08-2010 20:27:02 17.5 C 11.78 g/m*3 17.5 C 0 km/h
104 08-08-2010 20:39:01 17.6 C 11.85 g/m*3 17.6 C 0 km/h
105 08-08-2010 20:51:02 17.7 C 11.62 g/m*3 17.7 C 0 km/h
106 08-08-2010 21:03:01 17.7 C 11.62 g/m*3 17.7 C 0 km/h
107 08-08-2010 21:15:01 17.6 C 11.4 g/m*3 17.6 C 0 km/h
108 08-08-2010 21:27:01 17.5 C 11.33 g/m*3 17.5 C 0 km/h
109 08-08-2010 21:39:01 17.3 C 11.34 g/m*3 17.3 C 0 km/h
110 08-08-2010 21:51:01 17.2 C 11.42 g/m*3 17.2 C 0 km/h
111 08-08-2010 22:03:01 17.2 C 11.42 g/m*3 17.2 C 0 km/h
112 08-08-2010 22:15:01 17.2 C 11.42 g/m*3 17.2 C 0 km/h
113 08-08-2010 22:27:01 17.1 C 11.5 g/m*3 17.1 C 0 km/h
114 08-08-2010 22:39:01 17.1 C 11.5 g/m*3 17.1 C 0 km/h
115 08-08-2010 22:51:01 16.9 C 11.65 g/m*3 16.9 C 0 km/h
116 08-08-2010 23:03:01 17 C 11.43 g/m*3 17 C 0 km/h
117 08-08-2010 23:15:01 16.9 C 11.65 g/m*3 16.9 C 0 km/h
118 08-08-2010 23:27:01 16.6 C 11.58 g/m*3 16.6 C 0 km/h
119 08-08-2010 23:39:01 16.5 C 11.8 g/m*3 16.5 C 0 km/h
120 08-08-2010 23:51:01 16.5 C 11.94 g/m*3 16.5 C 0 km/h
121 09-08-2010 00:03:01 16.4 C 11.86 g/m*3 16.4 C 0 km/h
122 09-08-2010 00:15:02 16.4 C 12 g/m*3 16.4 C 0 km/h
123 09-08-2010 00:27:02 16.4 C 12 g/m*3 16.4 C 0 km/h
124 09-08-2010 00:39:02 16.4 C 12.14 g/m*3 16.4 C 0 km/h
125 09-08-2010 00:51:02 16.5 C 12.22 g/m*3 16.5 C 0 km/h
Sensor: Nr:Datum:Temp:Abs-Feuchte:Windchill:Wind:
Aussen-T/F 126 09-08-2010 01:03:02 16.5 C 12.22 g/m*3 16.5 C 0 km/h
127 09-08-2010 01:15:02 16.5 C 12.22 g/m*3 16.5 C 0 km/h
128 09-08-2010 01:27:02 16.5 C 12.22 g/m*3 16.5 C 0 km/h
129 09-08-2010 01:39:02 16.4 C 12.14 g/m*3 16.4 C 0 km/h
130 09-08-2010 01:51:02 16.3 C 12.07 g/m*3 16.3 C 0 km/h
131 09-08-2010 02:03:02 16 C 11.85 g/m*3 16 C 0 km/h
132 09-08-2010 02:15:02 15.7 C 11.77 g/m*3 15.7 C 0 km/h
133 09-08-2010 02:27:02 15.6 C 11.7 g/m*3 15.6 C 0 km/h
134 09-08-2010 02:39:02 15.4 C 11.56 g/m*3 15.4 C 0 km/h
135 09-08-2010 02:51:02 15.3 C 11.49 g/m*3 15.3 C 0 km/h
136 09-08-2010 03:03:02 15.3 C 11.49 g/m*3 15.3 C 0 km/h
137 09-08-2010 03:15:02 15.4 C 11.69 g/m*3 15.4 C 0 km/h
138 09-08-2010 03:27:02 15.7 C 11.91 g/m*3 15.7 C 0 km/h
139 09-08-2010 03:39:02 15.8 C 11.85 g/m*3 15.8 C 0 km/h
140 09-08-2010 03:51:02 15.8 C 11.58 g/m*3 15.8 C 0 km/h
141 09-08-2010 04:03:02 15.9 C 11.51 g/m*3 15.9 C 0 km/h
142 09-08-2010 04:15:02 15.8 C 11.31 g/m*3 15.8 C 0 km/h
143 09-08-2010 04:27:03 15.7 C 11.37 g/m*3 15.7 C 0 km/h
144 09-08-2010 04:39:03 15.7 C 11.37 g/m*3 15.7 C 0 km/h
145 09-08-2010 04:51:03 15.6 C 11.44 g/m*3 15.6 C 0 km/h
146 09-08-2010 05:03:03 15.4 C 11.17 g/m*3 15.4 C 0 km/h
147 09-08-2010 05:15:03 15 C 10.9 g/m*3 15 C 0 km/h
148 09-08-2010 05:27:03 14.8 C 11.02 g/m*3 14.8 C 0 km/h
149 09-08-2010 05:39:03 14.5 C 10.82 g/m*3 14.5 C 0 km/h
150 09-08-2010 05:51:03 14.5 C 10.94 g/m*3 14.5 C 0 km/h
Sensor: Nr:Datum:Temp:Abs-Feuchte:Windchill:Wind:
Aussen-T/F 151 09-08-2010 06:03:03 14.5 C 11.07 g/m*3 14.5 C 0 km/h
152 09-08-2010 06:15:03 14.6 C 11.26 g/m*3 14.6 C 0 km/h
153 09-08-2010 06:27:03 14.7 C 11.46 g/m*3 14.7 C 0 km/h
154 09-08-2010 06:39:03 14.6 C 11.39 g/m*3 14.6 C 0 km/h
155 09-08-2010 06:51:03 14.6 C 11.39 g/m*3 14.6 C 0 km/h
156 09-08-2010 07:03:02 14.5 C 11.32 g/m*3 14.5 C 0 km/h
157 09-08-2010 07:15:02 14.6 C 11.39 g/m*3 14.6 C 0 km/h
158 09-08-2010 07:27:02 14.6 C 11.39 g/m*3 14.6 C 0 km/h
159 09-08-2010 07:39:02 14.6 C 11.26 g/m*3 14.6 C 0 km/h
160 09-08-2010 07:51:02 14.7 C 11.33 g/m*3 14.7 C 0 km/h
161 09-08-2010 08:03:01 15 C 11.28 g/m*3 15 C 0 km/h
162 09-08-2010 08:15:01 15 C 11.16 g/m*3 15 C 0 km/h
163 09-08-2010 08:27:01 15.2 C 11.03 g/m*3 15.2 C 0 km/h
164 09-08-2010 08:39:01 15.4 C 10.9 g/m*3 15.4 C 0 km/h
165 09-08-2010 08:51:01 15.5 C 10.84 g/m*3 15.5 C 0 km/h
166 09-08-2010 09:03:02 15.5 C 10.84 g/m*3 15.5 C 0 km/h
167 09-08-2010 09:15:01 15.7 C 10.97 g/m*3 15.7 C 0 km/h
168 09-08-2010 09:27:01 15.9 C 10.83 g/m*3 15.9 C 0 km/h
169 09-08-2010 09:39:01 16 C 10.63 g/m*3 16 C 0 km/h
170 09-08-2010 09:51:02 15.9 C 10.83 g/m*3 15.9 C 0 km/h
171 09-08-2010 10:03:02 16.3 C 10.82 g/m*3 16.3 C 0 km/h
172 09-08-2010 10:15:02 16.7 C 10.8 g/m*3 16.7 C 0 km/h
173 09-08-2010 10:27:02 17.2 C 10.84 g/m*3 17.2 C 0 km/h
174 09-08-2010 10:39:02 17.9 C 10.54 g/m*3 17.9 C 0 km/h
175 09-08-2010 10:51:02 18.9 C 9.56 g/m*3 18.9 C 0 km/h
Sensor: Nr:Datum:Temp:Abs-Feuchte:Windchill:Wind:
Aussen-T/F 176 09-08-2010 11:03:02 19.4 C 9.51 g/m*3 19.4 C 0 km/h
177 09-08-2010 11:15:02 19.1 C 9.18 g/m*3 19.1 C 0 km/h
178 09-08-2010 11:27:02 19.4 C 9.34 g/m*3 19.4 C 0 km/h
179 09-08-2010 11:39:02 20.3 C 9.32 g/m*3 20.3 C 0 km/h
180 09-08-2010 11:51:01 19.8 C 8.88 g/m*3 19.8 C 0 km/h
181 09-08-2010 12:03:02 20.6 C 8.95 g/m*3 20.6 C 0 km/h
182 09-08-2010 12:15:02 20.9 C 8.74 g/m*3 20.9 C 0 km/h
183 09-08-2010 12:27:02 21.2 C 8.71 g/m*3 21.2 C 0 km/h
184 09-08-2010 12:39:02 21.8 C 8.44 g/m*3 21.8 C 0 km/h
185 09-08-2010 12:51:02 22 C 8.15 g/m*3 22 C 0 km/h
186 09-08-2010 13:03:01 22.2 C 8.83 g/m*3 22.2 C 0 km/h
187 09-08-2010 13:15:02 23.5 C 8.88 g/m*3 23.5 C 0 km/h
188 09-08-2010 13:27:02 25.1 C 7.87 g/m*3 25.1 C 0 km/h
189 09-08-2010 13:39:01 25.6 C 7.38 g/m*3 25.6 C 0 km/h
190 09-08-2010 13:51:02 25.4 C 7.53 g/m*3 25.4 C 0 km/h
191 09-08-2010 14:03:02 24.6 C 7.65 g/m*3 24.6 C 0 km/h
192 09-08-2010 14:15:02 24 C 7.61 g/m*3 24 C 0 km/h
193 09-08-2010 14:27:02 23.7 C 7.91 g/m*3 23.7 C 0 km/h
194 09-08-2010 14:39:03 23.7 C 7.91 g/m*3 23.7 C 0 km/h
195 09-08-2010 14:51:02 24.5 C 8.06 g/m*3 24.5 C 0 km/h
196 09-08-2010 15:03:02 25.1 C 7.87 g/m*3 25.1 C 0 km/h
197 09-08-2010 15:15:01 24.8 C 7.74 g/m*3 24.8 C 0 km/h
198 09-08-2010 15:27:01 25.4 C 7.53 g/m*3 25.4 C 0 km/h
199 09-08-2010 15:39:02 25.9 C 7.26 g/m*3 25.9 C 0 km/h
200 09-08-2010 15:51:02 26.5 C 7.51 g/m*3 26.5 C 0 km/h
Sensor: Nr:Datum:Temp:Abs-Feuchte:Windchill:Wind:
Aussen-T/F 201 09-08-2010 16:03:02 26.9 C 6.91 g/m*3 26.9 C 0 km/h
202 09-08-2010 16:15:01 26.6 C 6.54 g/m*3 26.6 C 0 km/h
203 09-08-2010 16:27:01 26.4 C 6.72 g/m*3 26.4 C 0 km/h
204 09-08-2010 16:39:02 25.7 C 6.22 g/m*3 25.7 C 0 km/h
205 09-08-2010 16:51:02 25.3 C 7.73 g/m*3 25.3 C 0 km/h
206 09-08-2010 17:03:02 25.3 C 8.43 g/m*3 25.3 C 0 km/h
207 09-08-2010 17:15:02 25.7 C 8.62 g/m*3 25.7 C 0 km/h
208 09-08-2010 17:27:02 25.5 C 8.76 g/m*3 25.5 C 0 km/h
209 09-08-2010 17:39:02 26.4 C 7.22 g/m*3 26.4 C 0 km/h
210 09-08-2010 17:51:02 28.2 C 7.15 g/m*3 28.2 C 0 km/h
211 09-08-2010 18:03:02 28.9 C 7.14 g/m*3 28.9 C 0 km/h
212 09-08-2010 18:15:02 28.2 C 8.25 g/m*3 28.2 C 0 km/h
213 09-08-2010 18:27:03 27.9 C 7.84 g/m*3 27.9 C 0 km/h
214 09-08-2010 18:39:02 27.1 C 8.02 g/m*3 27.1 C 0 km/h
215 09-08-2010 18:51:02 25.4 C 8 g/m*3 25.4 C 0 km/h
216 09-08-2010 19:03:01 24.6 C 8.33 g/m*3 24.6 C 0 km/h
217 09-08-2010 19:15:02 24.1 C 8.75 g/m*3 24.1 C 0 km/h
218 09-08-2010 19:27:02 23.6 C 9.15 g/m*3 23.6 C 0 km/h
219 09-08-2010 19:39:02 22.8 C 8.94 g/m*3 22.8 C 0 km/h
220 09-08-2010 19:51:02 22.5 C 8.79 g/m*3 22.5 C 0 km/h
221 09-08-2010 20:03:03 22 C 8.73 g/m*3 22 C 0 km/h
222 09-08-2010 20:15:02 21.6 C 8.72 g/m*3 21.6 C 0 km/h
223 09-08-2010 20:27:02 21.4 C 8.62 g/m*3 21.4 C 0 km/h
224 09-08-2010 20:39:02 20.9 C 8.38 g/m*3 20.9 C 0 km/h
225 09-08-2010 20:51:01 20.4 C 8.31 g/m*3 20.4 C 0 km/h
Sensor: Nr:Datum:Temp:Abs-Feuchte:Windchill:Wind:
Aussen-T/F 226 09-08-2010 21:03:02 20.2 C 8.74 g/m*3 20.2 C 0 km/h
227 09-08-2010 21:15:01 20 C 8.47 g/m*3 20 C 0 km/h
228 09-08-2010 21:27:01 19.8 C 8.88 g/m*3 19.8 C 0 km/h
229 09-08-2010 21:39:01 19.6 C 8.95 g/m*3 19.6 C 0 km/h
230 09-08-2010 21:51:01 19.2 C 8.9 g/m*3 19.2 C 0 km/h
231 09-08-2010 22:03:01 18.9 C 8.91 g/m*3 18.9 C 0 km/h
232 09-08-2010 22:15:02 18.9 C 8.91 g/m*3 18.9 C 0 km/h
233 09-08-2010 22:27:03 18.7 C 9.13 g/m*3 18.7 C 0 km/h
234 09-08-2010 22:39:02 18.5 C 9.02 g/m*3 18.5 C 0 km/h
235 09-08-2010 22:52:02 18.2 C 8.86 g/m*3 18.2 C 0 km/h
236 09-08-2010 23:04:02 18.2 C 9.01 g/m*3 18.2 C 0 km/h
237 09-08-2010 23:16:03 18.1 C 9.12 g/m*3 18.1 C 0 km/h
238 09-08-2010 23:28:03 18.1 C 9.27 g/m*3 18.1 C 0 km/h
239 09-08-2010 23:40:03 18.1 C 9.43 g/m*3 18.1 C 0 km/h
240 09-08-2010 23:52:03 18.1 C 9.43 g/m*3 18.1 C 0 km/h
241 10-08-2010 00:04:03 17.9 C 9.47 g/m*3 17.9 C 0 km/h
242 10-08-2010 00:16:03 17.7 C 9.81 g/m*3 17.7 C 0 km/h
243 10-08-2010 00:28:03 17.5 C 9.84 g/m*3 17.5 C 0 km/h
244 10-08-2010 00:40:03 17.5 C 9.69 g/m*3 17.5 C 0 km/h
245 10-08-2010 00:52:03 17.5 C 10.14 g/m*3 17.5 C 0 km/h
246 10-08-2010 01:04:03 17.5 C 10.29 g/m*3 17.5 C 0 km/h
247 10-08-2010 01:16:03 17.5 C 10.14 g/m*3 17.5 C 0 km/h
248 10-08-2010 01:28:03 17.6 C 10.05 g/m*3 17.6 C 0 km/h
249 10-08-2010 01:40:03 17.5 C 10.14 g/m*3 17.5 C 0 km/h
250 10-08-2010 01:52:03 17.5 C 10.14 g/m*3 17.5 C 0 km/h
Sensor: Nr:Datum:Temp:Abs-Feuchte:Windchill:Wind:
Aussen-T/F 251 10-08-2010 02:04:03 17.5 C 9.99 g/m*3 17.5 C 0 km/h
252 10-08-2010 02:16:03 17.5 C 10.14 g/m*3 17.5 C 0 km/h
253 10-08-2010 02:28:03 17.4 C 10.08 g/m*3 17.4 C 0 km/h
254 10-08-2010 02:40:03 17.3 C 10.02 g/m*3 17.3 C 0 km/h
255 10-08-2010 02:52:03 17.2 C 9.96 g/m*3 17.2 C 0 km/h
256 10-08-2010 03:04:03 17.2 C 9.96 g/m*3 17.2 C 0 km/h
257 10-08-2010 03:16:03 17.2 C 10.1 g/m*3 17.2 C 0 km/h
258 10-08-2010 03:28:03 17.1 C 10.04 g/m*3 17.1 C 0 km/h
259 10-08-2010 03:40:04 17.2 C 10.1 g/m*3 17.2 C 0 km/h
260 10-08-2010 03:52:04 17 C 10.27 g/m*3 17 C 0 km/h
261 10-08-2010 04:04:04 16.9 C 10.36 g/m*3 16.9 C 0 km/h
262 10-08-2010 04:16:04 16.9 C 10.21 g/m*3 16.9 C 0 km/h
263 10-08-2010 04:28:04 16.9 C 10.21 g/m*3 16.9 C 0 km/h
264 10-08-2010 04:40:04 16.9 C 10.21 g/m*3 16.9 C 0 km/h
265 10-08-2010 04:52:04 16.7 C 10.23 g/m*3 16.7 C 0 km/h
266 10-08-2010 05:04:04 16.3 C 9.99 g/m*3 16.3 C 0 km/h
267 10-08-2010 05:16:04 15.9 C 10.02 g/m*3 15.9 C 0 km/h
268 10-08-2010 05:28:04 15.6 C 10.24 g/m*3 15.6 C 0 km/h
269 10-08-2010 05:40:04 15.3 C 10.19 g/m*3 15.3 C 0 km/h
270 10-08-2010 05:52:04 15 C 10 g/m*3 15 C 0 km/h
271 10-08-2010 06:04:04 14.9 C 10.07 g/m*3 14.9 C 0 km/h
272 10-08-2010 06:16:04 14.7 C 9.95 g/m*3 14.7 C 0 km/h
273 10-08-2010 06:28:04 14.6 C 9.89 g/m*3 14.6 C 0 km/h
274 10-08-2010 06:40:04 14.6 C 9.89 g/m*3 14.6 C 0 km/h
275 10-08-2010 06:52:02 14.5 C 9.83 g/m*3 14.5 C 0 km/h
Sensor: Nr:Datum:Temp:Abs-Feuchte:Windchill:Wind:
Aussen-T/F 276 10-08-2010 07:04:02 14.7 C 10.2 g/m*3 14.7 C 0 km/h
277 10-08-2010 07:16:02 14.7 C 10.2 g/m*3 14.7 C 0 km/h
278 10-08-2010 07:28:02 14.8 C 10.26 g/m*3 14.8 C 0 km/h
279 10-08-2010 07:40:01 15 C 10.39 g/m*3 15 C 0 km/h
280 10-08-2010 07:52:03 15.2 C 10.51 g/m*3 15.2 C 0 km/h
281 10-08-2010 08:04:02 15.4 C 10.64 g/m*3 15.4 C 0 km/h
282 10-08-2010 08:16:02 15.5 C 10.57 g/m*3 15.5 C 0 km/h
283 10-08-2010 08:28:02 15.8 C 10.77 g/m*3 15.8 C 0 km/h
284 10-08-2010 08:40:03 16.1 C 10.69 g/m*3 16.1 C 0 km/h
285 10-08-2010 08:52:02 16.4 C 10.89 g/m*3 16.4 C 0 km/h
286 10-08-2010 09:04:02 17.2 C 10.98 g/m*3 17.2 C 0 km/h
287 10-08-2010 09:16:02 18.1 C 10.51 g/m*3 18.1 C 0 km/h
288 10-08-2010 09:28:02 18.2 C 10.41 g/m*3 18.2 C 0 km/h
289 10-08-2010 09:40:03 18.5 C 10.44 g/m*3 18.5 C 0 km/h
290 10-08-2010 09:52:02 19 C 10.59 g/m*3 19 C 0 km/h
291 10-08-2010 10:04:02 19.3 C 10.62 g/m*3 19.3 C 0 km/h
292 10-08-2010 10:16:01 20.1 C 10.78 g/m*3 20.1 C 0 km/h
293 10-08-2010 10:28:01 20.9 C 11.11 g/m*3 20.9 C 0 km/h
294 10-08-2010 10:40:02 21.8 C 11.32 g/m*3 21.8 C 0 km/h
295 10-08-2010 10:52:01 22.5 C 11.19 g/m*3 22.5 C 0 km/h
296 10-08-2010 11:04:02 22.9 C 11.44 g/m*3 22.9 C 0 km/h
297 10-08-2010 11:16:02 23.4 C 11.14 g/m*3 23.4 C 0 km/h
298 10-08-2010 11:28:02 23.7 C 9.2 g/m*3 23.7 C 0 km/h
299 10-08-2010 11:40:01 24.1 C 7.88 g/m*3 24.1 C 0 km/h
300 10-08-2010 11:52:01 24.6 C 7.65 g/m*3 24.6 C 0 km/h
Sensor: Nr:Datum:Temp:Abs-Feuchte:Windchill:Wind:
Aussen-T/F 301 10-08-2010 12:04:01 25.1 C 7.18 g/m*3 25.1 C 0 km/h
302 10-08-2010 12:16:02 25.4 C 6.59 g/m*3 25.4 C 0 km/h
303 10-08-2010 12:28:02 25.9 C 7.02 g/m*3 25.9 C 0 km/h
304 10-08-2010 12:40:01 26.4 C 6.72 g/m*3 26.4 C 0 km/h
305 10-08-2010 12:52:03 26.7 C 6.58 g/m*3 26.7 C 0 km/h
306 10-08-2010 13:04:02 27 C 6.43 g/m*3 27 C 0 km/h
307 10-08-2010 13:16:02 27.8 C 5.92 g/m*3 27.8 C 0 km/h
308 10-08-2010 13:28:02 28.6 C 5.9 g/m*3 28.6 C 0 km/h
309 10-08-2010 13:40:02 28.7 C 5.93 g/m*3 28.7 C 0 km/h
310 10-08-2010 13:52:02 28.7 C 5.65 g/m*3 28.7 C 0 km/h
311 10-08-2010 14:04:01 28.9 C 5.71 g/m*3 28.9 C 0 km/h
312 10-08-2010 14:16:02 29.3 C 6.13 g/m*3 29.3 C 0 km/h
313 10-08-2010 14:28:02 29.1 C 5.78 g/m*3 29.1 C 0 km/h
314 10-08-2010 14:40:02 29.1 C 6.06 g/m*3 29.1 C 0 km/h
315 10-08-2010 14:52:01 28.8 C 7.39 g/m*3 28.8 C 0 km/h
316 10-08-2010 15:04:02 28.9 C 6.57 g/m*3 28.9 C 0 km/h
317 10-08-2010 15:16:01 28.6 C 7.03 g/m*3 28.6 C 0 km/h
318 10-08-2010 15:28:01 28.2 C 7.7 g/m*3 28.2 C 0 km/h
319 10-08-2010 15:40:01 28.3 C 8.29 g/m*3 28.3 C 0 km/h
320 10-08-2010 15:52:01 28.3 C 7.19 g/m*3 28.3 C 0 km/h
321 10-08-2010 16:04:01 29.1 C 7.8 g/m*3 29.1 C 0 km/h
322 10-08-2010 16:16:02 30.1 C 6.4 g/m*3 30.1 C 0 km/h
323 10-08-2010 16:28:02 30 C 6.06 g/m*3 30 C 0 km/h
324 10-08-2010 16:40:01 30.2 C 6.13 g/m*3 30.2 C 0 km/h
325 10-08-2010 16:52:02 30 C 6.06 g/m*3 30 C 0 km/h
Sensor: Nr:Datum:Temp:Abs-Feuchte:Windchill:Wind:
Aussen-T/F 326 10-08-2010 17:04:02 30.1 C 6.71 g/m*3 30.1 C 0 km/h
327 10-08-2010 17:16:02 30.1 C 6.4 g/m*3 30.1 C 0 km/h
328 10-08-2010 17:28:02 30.2 C 6.13 g/m*3 30.2 C 0 km/h
329 10-08-2010 17:40:01 29.6 C 6.53 g/m*3 29.6 C 0 km/h
330 10-08-2010 17:52:02 29.7 C 6.56 g/m*3 29.7 C 0 km/h
331 10-08-2010 18:04:01 30.2 C 6.13 g/m*3 30.2 C 0 km/h
332 10-08-2010 18:16:02 31 C 6.72 g/m*3 31 C 0 km/h
333 10-08-2010 18:28:02 29.2 C 6.68 g/m*3 29.2 C 0 km/h
334 10-08-2010 18:40:02 28.9 C 6.86 g/m*3 28.9 C 0 km/h
335 10-08-2010 18:52:02 29.1 C 7.22 g/m*3 29.1 C 0 km/h
336 10-08-2010 19:04:03 28.4 C 7.23 g/m*3 28.4 C 0 km/h
337 10-08-2010 19:16:02 27.5 C 7.94 g/m*3 27.5 C 0 km/h
338 10-08-2010 19:28:02 26.8 C 8.4 g/m*3 26.8 C 0 km/h
339 10-08-2010 19:40:03 26.3 C 8.42 g/m*3 26.3 C 0 km/h
340 10-08-2010 19:52:02 25.7 C 8.62 g/m*3 25.7 C 0 km/h
341 10-08-2010 20:04:02 25.3 C 8.19 g/m*3 25.3 C 0 km/h
342 10-08-2010 20:16:01 25.1 C 8.33 g/m*3 25.1 C 0 km/h
343 10-08-2010 20:28:01 24.7 C 8.37 g/m*3 24.7 C 0 km/h
344 10-08-2010 20:40:02 24.6 C 8.33 g/m*3 24.6 C 0 km/h
345 10-08-2010 20:52:01 24.1 C 8.1 g/m*3 24.1 C 0 km/h
346 10-08-2010 21:04:02 23.8 C 9.03 g/m*3 23.8 C 0 km/h
347 10-08-2010 21:16:02 23.4 C 8.41 g/m*3 23.4 C 0 km/h
348 10-08-2010 21:28:02 23.3 C 8.78 g/m*3 23.3 C 0 km/h
349 10-08-2010 21:40:02 23.2 C 9.15 g/m*3 23.2 C 0 km/h
350 10-08-2010 21:53:07 23.1 C 8.48 g/m*3 23.1 C 0 km/h
Sensor: Nr:Datum:Temp:Abs-Feuchte:Windchill:Wind:
Aussen-T/F 351 10-08-2010 22:05:07 23.3 C 8.99 g/m*3 23.3 C 0 km/h
352 10-08-2010 22:17:07 23.1 C 8.48 g/m*3 23.1 C 0 km/h
353 10-08-2010 22:29:07 23 C 8.63 g/m*3 23 C 0 km/h
354 10-08-2010 22:41:07 22.7 C 9.29 g/m*3 22.7 C 0 km/h
355 10-08-2010 22:53:07 22.2 C 9.23 g/m*3 22.2 C 0 km/h
356 10-08-2010 23:05:07 22.1 C 9.37 g/m*3 22.1 C 0 km/h
357 10-08-2010 23:17:07 21.9 C 9.26 g/m*3 21.9 C 0 km/h
358 10-08-2010 23:29:07 22 C 8.93 g/m*3 22 C 0 km/h
359 10-08-2010 23:41:07 21.8 C 9.21 g/m*3 21.8 C 0 km/h
360 10-08-2010 23:53:08 21.7 C 9.54 g/m*3 21.7 C 0 km/h
361 11-08-2010 00:05:08 21.6 C 9.48 g/m*3 21.6 C 0 km/h
362 11-08-2010 00:17:08 21.5 C 9.62 g/m*3 21.5 C 0 km/h
363 11-08-2010 00:29:08 21.5 C 9.81 g/m*3 21.5 C 0 km/h
364 11-08-2010 00:41:08 21.4 C 9.75 g/m*3 21.4 C 0 km/h
365 11-08-2010 00:53:08 21.3 C 9.69 g/m*3 21.3 C 0 km/h
366 11-08-2010 01:05:08 21.1 C 9.95 g/m*3 21.1 C 0 km/h
367 11-08-2010 01:17:08 20.9 C 10.2 g/m*3 20.9 C 0 km/h
368 11-08-2010 01:29:08 20.6 C 10.56 g/m*3 20.6 C 0 km/h
369 11-08-2010 01:41:08 20.1 C 10.95 g/m*3 20.1 C 0 km/h
370 11-08-2010 01:53:08 20 C 11.06 g/m*3 20 C 0 km/h
371 11-08-2010 02:05:08 19.4 C 11.51 g/m*3 19.4 C 0 km/h
372 11-08-2010 02:17:08 18.5 C 12.02 g/m*3 18.5 C 0 km/h
373 11-08-2010 02:29:08 18.1 C 12.36 g/m*3 18.1 C 0 km/h
374 11-08-2010 02:41:08 18 C 12.59 g/m*3 18 C 0 km/h
375 11-08-2010 02:53:08 17.9 C 12.98 g/m*3 17.9 C 0 km/h
Sensor: Nr:Datum:Temp:Abs-Feuchte:Windchill:Wind:
Aussen-T/F 376 11-08-2010 03:05:08 17.7 C 12.98 g/m*3 17.7 C 0 km/h
377 11-08-2010 03:17:08 17.7 C 13.13 g/m*3 17.7 C 0 km/h
378 11-08-2010 03:29:08 17.7 C 13.13 g/m*3 17.7 C 0 km/h
379 11-08-2010 03:41:08 17.5 C 13.12 g/m*3 17.5 C 0 km/h
380 11-08-2010 03:53:08 17.6 C 13.35 g/m*3 17.6 C 0 km/h
381 11-08-2010 04:05:08 17.5 C 13.27 g/m*3 17.5 C 0 km/h
382 11-08-2010 04:17:08 17.6 C 13.5 g/m*3 17.6 C 0 km/h
383 11-08-2010 04:29:09 17.5 C 13.42 g/m*3 17.5 C 0 km/h
384 11-08-2010 04:41:09 17.6 C 13.5 g/m*3 17.6 C 0 km/h
385 11-08-2010 04:53:09 17.4 C 13.34 g/m*3 17.4 C 0 km/h
386 11-08-2010 05:05:09 17.4 C 13.34 g/m*3 17.4 C 0 km/h
387 11-08-2010 05:17:09 17.5 C 13.27 g/m*3 17.5 C 0 km/h
388 11-08-2010 05:29:09 17.3 C 13.11 g/m*3 17.3 C 0 km/h
389 11-08-2010 05:41:09 17.4 C 13.19 g/m*3 17.4 C 0 km/h
390 11-08-2010 05:53:09 17.5 C 13.27 g/m*3 17.5 C 0 km/h
391 11-08-2010 06:05:09 17.4 C 13.19 g/m*3 17.4 C 0 km/h
392 11-08-2010 06:17:09 17.4 C 13.04 g/m*3 17.4 C 0 km/h
393 11-08-2010 06:29:09 17.4 C 13.04 g/m*3 17.4 C 0 km/h
394 11-08-2010 06:41:02 17.4 C 13.04 g/m*3 17.4 C 0 km/h
395 11-08-2010 06:53:02 17.4 C 12.89 g/m*3 17.4 C 0 km/h
396 11-08-2010 07:05:02 17.4 C 12.89 g/m*3 17.4 C 0 km/h
397 11-08-2010 07:17:02 17.5 C 12.97 g/m*3 17.5 C 0 km/h
398 11-08-2010 07:29:03 17.6 C 13.05 g/m*3 17.6 C 0 km/h
399 11-08-2010 07:41:01 17.7 C 13.13 g/m*3 17.7 C 0 km/h
400 11-08-2010 07:53:02 17.9 C 13.13 g/m*3 17.9 C 0 km/h
Sensor: Nr:Datum:Temp:Abs-Feuchte:Windchill:Wind:
Aussen-T/F 401 11-08-2010 08:05:01 18.1 C 13.13 g/m*3 18.1 C 0 km/h
402 11-08-2010 08:17:01 18.6 C 13.53 g/m*3 18.6 C 0 km/h
403 11-08-2010 08:29:01 18.7 C 13.29 g/m*3 18.7 C 0 km/h
404 11-08-2010 08:41:01 18.9 C 12.96 g/m*3 18.9 C 0 km/h
405 11-08-2010 08:53:01 19.1 C 12.13 g/m*3 19.1 C 0 km/h
406 11-08-2010 09:05:01 19.5 C 12.08 g/m*3 19.5 C 0 km/h
407 11-08-2010 09:17:01 19.8 C 11.61 g/m*3 19.8 C 0 km/h
408 11-08-2010 09:29:01 19.7 C 11.55 g/m*3 19.7 C 0 km/h
409 11-08-2010 09:41:01 19.7 C 11.21 g/m*3 19.7 C 0 km/h
410 11-08-2010 09:53:02 19.5 C 11.08 g/m*3 19.5 C 0 km/h
411 11-08-2010 10:05:02 20 C 11.23 g/m*3 20 C 0 km/h
412 11-08-2010 10:17:02 20.9 C 11.29 g/m*3 20.9 C 0 km/h
413 11-08-2010 10:29:02 21.2 C 10.93 g/m*3 21.2 C 0 km/h
414 11-08-2010 10:41:02 21.1 C 11.06 g/m*3 21.1 C 0 km/h
415 11-08-2010 10:53:01 20.8 C 10.86 g/m*3 20.8 C 0 km/h
416 11-08-2010 11:05:01 20.7 C 11.16 g/m*3 20.7 C 0 km/h
417 11-08-2010 11:17:02 20.4 C 11.14 g/m*3 20.4 C 0 km/h
418 11-08-2010 11:29:02 20.5 C 11.21 g/m*3 20.5 C 0 km/h
419 11-08-2010 11:41:01 20.4 C 11.14 g/m*3 20.4 C 0 km/h
420 11-08-2010 11:53:02 21.1 C 11.24 g/m*3 21.1 C 0 km/h
421 11-08-2010 12:05:01 21.8 C 11.13 g/m*3 21.8 C 0 km/h
422 11-08-2010 12:17:02 22.1 C 11.13 g/m*3 22.1 C 0 km/h
423 11-08-2010 12:29:03 22.5 C 10.99 g/m*3 22.5 C 0 km/h
424 11-08-2010 12:41:01 22.8 C 10.97 g/m*3 22.8 C 0 km/h
425 11-08-2010 12:53:02 23.1 C 10.75 g/m*3 23.1 C 0 km/h
Sensor: Nr:Datum:Temp:Abs-Feuchte:Windchill:Wind:
Aussen-T/F 426 11-08-2010 13:05:02 23.5 C 10.79 g/m*3 23.5 C 0 km/h
427 11-08-2010 13:17:02 23.3 C 10.25 g/m*3 23.3 C 0 km/h
428 11-08-2010 13:29:02 24 C 10.44 g/m*3 24 C 0 km/h
429 11-08-2010 13:41:03 24.1 C 10.28 g/m*3 24.1 C 0 km/h
430 11-08-2010 13:53:02 24.1 C 10.06 g/m*3 24.1 C 0 km/h
431 11-08-2010 14:05:02 24.2 C 10.12 g/m*3 24.2 C 0 km/h
432 11-08-2010 14:17:01 24.8 C 10.02 g/m*3 24.8 C 0 km/h
433 11-08-2010 14:29:01 24.2 C 9.68 g/m*3 24.2 C 0 km/h
434 11-08-2010 14:41:02 24.2 C 10.34 g/m*3 24.2 C 0 km/h
435 11-08-2010 14:53:02 24.6 C 10.35 g/m*3 24.6 C 0 km/h
436 11-08-2010 15:05:01 24.8 C 10.02 g/m*3 24.8 C 0 km/h
437 11-08-2010 15:17:01 25 C 10.13 g/m*3 25 C 0 km/h
438 11-08-2010 15:29:01 25.9 C 10.17 g/m*3 25.9 C 0 km/h
439 11-08-2010 15:41:02 26.6 C 9.57 g/m*3 26.6 C 0 km/h
440 11-08-2010 15:53:02 25.5 C 9.47 g/m*3 25.5 C 0 km/h
441 11-08-2010 16:05:02 25.2 C 9.78 g/m*3 25.2 C 0 km/h
442 11-08-2010 16:17:02 24.3 C 9.96 g/m*3 24.3 C 0 km/h
443 11-08-2010 16:29:02 23.2 C 11.02 g/m*3 23.2 C 0 km/h
444 11-08-2010 16:41:02 20.5 C 13.35 g/m*3 20.5 C 0 km/h
445 11-08-2010 16:53:02 21.2 C 14.64 g/m*3 21.2 C 0 km/h
446 11-08-2010 17:05:02 21.6 C 14.41 g/m*3 21.6 C 0 km/h
447 11-08-2010 17:17:02 21.6 C 14.41 g/m*3 21.6 C 0 km/h
448 11-08-2010 17:29:02 22.1 C 14.05 g/m*3 22.1 C 0 km/h
449 11-08-2010 17:41:02 21.3 C 12.86 g/m*3 21.3 C 0 km/h
450 11-08-2010 17:53:02 22.1 C 14.25 g/m*3 22.1 C 0 km/h
Sensor: Nr:Datum:Temp:Abs-Feuchte:Windchill:Wind:
Aussen-T/F 451 11-08-2010 18:05:02 22.5 C 14.18 g/m*3 22.5 C 0 km/h
452 11-08-2010 18:17:03 22.9 C 14.71 g/m*3 22.9 C 0 km/h
453 11-08-2010 18:29:03 23.3 C 14.43 g/m*3 23.3 C 0 km/h
454 11-08-2010 18:41:02 23 C 13.98 g/m*3 23 C 0 km/h
455 11-08-2010 18:53:03 22.6 C 14.26 g/m*3 22.6 C 0 km/h
456 11-08-2010 19:05:02 21.9 C 13.89 g/m*3 21.9 C 0 km/h
457 11-08-2010 19:17:02 21.5 C 13.77 g/m*3 21.5 C 0 km/h
458 11-08-2010 19:29:02 21.2 C 13.71 g/m*3 21.2 C 0 km/h
459 11-08-2010 19:41:02 21 C 13.56 g/m*3 21 C 0 km/h
460 11-08-2010 19:53:02 20.8 C 13.58 g/m*3 20.8 C 0 km/h
461 11-08-2010 20:05:01 20.4 C 13.27 g/m*3 20.4 C 0 km/h
462 11-08-2010 20:17:02 20 C 13.31 g/m*3 20 C 0 km/h
463 11-08-2010 20:29:02 19.8 C 13.66 g/m*3 19.8 C 0 km/h
464 11-08-2010 20:41:02 18.9 C 13.61 g/m*3 18.9 C 0 km/h
465 11-08-2010 20:53:01 18.7 C 13.93 g/m*3 18.7 C 0 km/h
466 11-08-2010 21:05:02 19 C 14.34 g/m*3 19 C 0 km/h
467 11-08-2010 21:17:01 18.9 C 14.42 g/m*3 18.9 C 0 km/h
468 11-08-2010 21:29:01 18.9 C 14.42 g/m*3 18.9 C 0 km/h
469 11-08-2010 21:41:02 18.9 C 14.58 g/m*3 18.9 C 0 km/h
470 11-08-2010 21:53:01 18.5 C 14.24 g/m*3 18.5 C 0 km/h
471 11-08-2010 22:05:02 18.5 C 14.24 g/m*3 18.5 C 0 km/h
472 11-08-2010 22:18:01 18.6 C 14.48 g/m*3 18.6 C 0 km/h
473 11-08-2010 22:30:01 18.5 C 14.4 g/m*3 18.5 C 0 km/h
474 11-08-2010 22:42:01 18.4 C 14.31 g/m*3 18.4 C 0 km/h
475 11-08-2010 22:54:01 18.4 C 14.47 g/m*3 18.4 C 0 km/h
Sensor: Nr:Datum:Temp:Abs-Feuchte:Windchill:Wind:
Aussen-T/F 476 11-08-2010 23:06:01 18.4 C 14.47 g/m*3 18.4 C 0 km/h
477 11-08-2010 23:18:02 18.4 C 14.47 g/m*3 18.4 C 0 km/h
478 11-08-2010 23:30:02 18.3 C 14.38 g/m*3 18.3 C 0 km/h
479 11-08-2010 23:42:02 18.3 C 14.38 g/m*3 18.3 C 0 km/h
480 11-08-2010 23:54:02 18.1 C 14.21 g/m*3 18.1 C 0 km/h
481 12-08-2010 00:06:02 18.2 C 14.46 g/m*3 18.2 C 0 km/h
482 12-08-2010 00:18:02 18 C 14.28 g/m*3 18 C 0 km/h
483 12-08-2010 00:30:02 17.8 C 14.27 g/m*3 17.8 C 0 km/h
484 12-08-2010 00:42:02 17.7 C 14.18 g/m*3 17.7 C 0 km/h
485 12-08-2010 00:54:02 17.7 C 14.18 g/m*3 17.7 C 0 km/h
486 12-08-2010 01:06:02 17.6 C 14.1 g/m*3 17.6 C 0 km/h
487 12-08-2010 01:18:02 17.5 C 14.01 g/m*3 17.5 C 0 km/h
488 12-08-2010 01:30:02 17.5 C 14.01 g/m*3 17.5 C 0 km/h
489 12-08-2010 01:42:02 17.5 C 14.01 g/m*3 17.5 C 0 km/h
490 12-08-2010 01:54:02 17.5 C 14.01 g/m*3 17.5 C 0 km/h
491 12-08-2010 02:06:02 17.4 C 13.93 g/m*3 17.4 C 0 km/h
492 12-08-2010 02:18:02 17.2 C 13.77 g/m*3 17.2 C 0 km/h
493 12-08-2010 02:30:02 17.1 C 13.68 g/m*3 17.1 C 0 km/h
494 12-08-2010 02:42:02 17 C 13.6 g/m*3 17 C 0 km/h
495 12-08-2010 02:54:02 17.1 C 13.68 g/m*3 17.1 C 0 km/h
496 12-08-2010 03:06:02 17.1 C 13.68 g/m*3 17.1 C 0 km/h
497 12-08-2010 03:18:02 17.1 C 13.68 g/m*3 17.1 C 0 km/h
498 12-08-2010 03:30:03 16.9 C 13.52 g/m*3 16.9 C 0 km/h
499 12-08-2010 03:42:03 16.7 C 13.36 g/m*3 16.7 C 0 km/h
500 12-08-2010 03:54:03 16.5 C 13.2 g/m*3 16.5 C 0 km/h
Sensor: Nr:Datum:Temp:Abs-Feuchte:Windchill:Wind:
Aussen-T/F 501 12-08-2010 04:06:03 16.4 C 13.12 g/m*3 16.4 C 0 km/h
502 12-08-2010 04:18:03 16.3 C 13.04 g/m*3 16.3 C 0 km/h
503 12-08-2010 04:30:03 16.4 C 13.12 g/m*3 16.4 C 0 km/h
504 12-08-2010 04:42:03 16.6 C 13.42 g/m*3 16.6 C 0 km/h
505 12-08-2010 04:54:03 16.6 C 13.42 g/m*3 16.6 C 0 km/h
506 12-08-2010 05:06:03 16.7 C 13.5 g/m*3 16.7 C 0 km/h
507 12-08-2010 05:18:03 16.4 C 13.26 g/m*3 16.4 C 0 km/h
508 12-08-2010 05:30:03 16.4 C 13.12 g/m*3 16.4 C 0 km/h
509 12-08-2010 05:42:03 16.4 C 13.26 g/m*3 16.4 C 0 km/h
510 12-08-2010 05:54:03 16.5 C 13.34 g/m*3 16.5 C 0 km/h
511 12-08-2010 06:06:03 16.6 C 13.42 g/m*3 16.6 C 0 km/h
512 12-08-2010 06:18:03 16.7 C 13.5 g/m*3 16.7 C 0 km/h
513 12-08-2010 06:30:03 16.7 C 13.5 g/m*3 16.7 C 0 km/h
514 12-08-2010 06:42:03 16.8 C 13.58 g/m*3 16.8 C 0 km/h
515 12-08-2010 06:54:03 16.8 C 13.58 g/m*3 16.8 C 0 km/h
516 12-08-2010 07:06:02 16.8 C 13.58 g/m*3 16.8 C 0 km/h
517 12-08-2010 07:18:01 16.8 C 13.58 g/m*3 16.8 C 0 km/h
518 12-08-2010 07:30:01 16.9 C 13.66 g/m*3 16.9 C 0 km/h
519 12-08-2010 07:42:02 16.9 C 13.66 g/m*3 16.9 C 0 km/h
520 12-08-2010 07:54:01 16.9 C 13.52 g/m*3 16.9 C 0 km/h
521 12-08-2010 08:06:02 16.9 C 13.52 g/m*3 16.9 C 0 km/h
522 12-08-2010 08:18:01 16.6 C 13 g/m*3 16.6 C 0 km/h
523 12-08-2010 08:30:01 16.5 C 12.64 g/m*3 16.5 C 0 km/h
524 12-08-2010 08:42:02 16.4 C 12.42 g/m*3 16.4 C 0 km/h
525 12-08-2010 08:54:01 16.8 C 12.87 g/m*3 16.8 C 0 km/h
Sensor: Nr:Datum:Temp:Abs-Feuchte:Windchill:Wind:
Aussen-T/F 526 12-08-2010 09:06:02 17.4 C 13.34 g/m*3 17.4 C 0 km/h
527 12-08-2010 09:18:02 17.7 C 13.58 g/m*3 17.7 C 0 km/h
528 12-08-2010 09:30:02 17.8 C 13.66 g/m*3 17.8 C 0 km/h
529 12-08-2010 09:42:01 17.8 C 13.51 g/m*3 17.8 C 0 km/h
530 12-08-2010 09:54:02 17.9 C 13.13 g/m*3 17.9 C 0 km/h
531 12-08-2010 10:06:01 18.4 C 12.74 g/m*3 18.4 C 0 km/h
532 12-08-2010 10:18:01 18.7 C 12.49 g/m*3 18.7 C 0 km/h
533 12-08-2010 10:30:01 18.6 C 11.78 g/m*3 18.6 C 0 km/h
534 12-08-2010 10:42:01 18.6 C 11.94 g/m*3 18.6 C 0 km/h
535 12-08-2010 10:54:02 18.6 C 12.26 g/m*3 18.6 C 0 km/h
536 12-08-2010 11:06:01 18.5 C 12.5 g/m*3 18.5 C 0 km/h
537 12-08-2010 11:18:02 18.7 C 12.49 g/m*3 18.7 C 0 km/h
538 12-08-2010 11:30:02 18.5 C 12.02 g/m*3 18.5 C 0 km/h
539 12-08-2010 11:42:02 18.8 C 11.92 g/m*3 18.8 C 0 km/h
540 12-08-2010 11:54:01 18.6 C 11.94 g/m*3 18.6 C 0 km/h
541 12-08-2010 12:06:02 19.1 C 11.64 g/m*3 19.1 C 0 km/h
542 12-08-2010 12:18:01 18.7 C 11.21 g/m*3 18.7 C 0 km/h
543 12-08-2010 12:30:01 19.9 C 11.68 g/m*3 19.9 C 0 km/h
544 12-08-2010 12:42:01 19.9 C 10.82 g/m*3 19.9 C 0 km/h
545 12-08-2010 12:54:01 20.2 C 10.84 g/m*3 20.2 C 0 km/h
546 12-08-2010 13:06:02 19.8 C 10.25 g/m*3 19.8 C 0 km/h
547 12-08-2010 13:18:01 20.4 C 10.44 g/m*3 20.4 C 0 km/h
548 12-08-2010 13:30:01 21.2 C 9.45 g/m*3 21.2 C 0 km/h
549 12-08-2010 13:42:02 20.2 C 8.57 g/m*3 20.2 C 0 km/h
550 12-08-2010 13:54:01 19.7 C 9.17 g/m*3 19.7 C 0 km/h
Sensor: Nr:Datum:Temp:Abs-Feuchte:Windchill:Wind:
Aussen-T/F 551 12-08-2010 14:06:02 19.6 C 9.28 g/m*3 19.6 C 0 km/h
552 12-08-2010 14:18:02 20 C 9.51 g/m*3 20 C 0 km/h
553 12-08-2010 14:30:02 20.3 C 9.32 g/m*3 20.3 C 0 km/h
554 12-08-2010 14:42:01 20.8 C 8.51 g/m*3 20.8 C 0 km/h
555 12-08-2010 14:54:02 20.8 C 8.51 g/m*3 20.8 C 0 km/h
556 12-08-2010 15:06:01 22 C 8.73 g/m*3 22 C 0 km/h
557 12-08-2010 15:18:02 23.6 C 8.93 g/m*3 23.6 C 0 km/h
558 12-08-2010 15:30:02 23.9 C 8.44 g/m*3 23.9 C 0 km/h
559 12-08-2010 15:42:01 22.7 C 7.88 g/m*3 22.7 C 0 km/h
560 12-08-2010 15:54:02 22.9 C 7.97 g/m*3 22.9 C 0 km/h
561 12-08-2010 16:06:02 22.4 C 7.15 g/m*3 22.4 C 0 km/h
562 12-08-2010 16:18:02 22.2 C 7.26 g/m*3 22.2 C 0 km/h
563 12-08-2010 16:30:02 22.1 C 6.83 g/m*3 22.1 C 0 km/h
564 12-08-2010 16:42:02 22.9 C 7.15 g/m*3 22.9 C 0 km/h
565 12-08-2010 16:54:02 23.2 C 7.28 g/m*3 23.2 C 0 km/h
566 12-08-2010 17:06:02 24.2 C 6.6 g/m*3 24.2 C 0 km/h
567 12-08-2010 17:18:01 24.7 C 6.56 g/m*3 24.7 C 0 km/h
568 12-08-2010 17:30:01 25.9 C 6.05 g/m*3 25.9 C 0 km/h
569 12-08-2010 17:42:02 26.2 C 5.17 g/m*3 26.2 C 0 km/h
570 12-08-2010 17:54:02 26.1 C 4.9 g/m*3 26.1 C 0 km/h
571 12-08-2010 18:06:02 24.6 C 4.95 g/m*3 24.6 C 0 km/h
572 12-08-2010 18:18:01 23.6 C 5.32 g/m*3 23.6 C 0 km/h
573 12-08-2010 18:30:01 23.3 C 6.9 g/m*3 23.3 C 0 km/h
574 12-08-2010 18:42:02 22.9 C 7.97 g/m*3 22.9 C 0 km/h
575 12-08-2010 18:54:02 22.1 C 7.81 g/m*3 22.1 C 0 km/h
Sensor: Nr:Datum:Temp:Abs-Feuchte:Windchill:Wind:
Aussen-T/F 576 12-08-2010 19:06:02 21.5 C 8.11 g/m*3 21.5 C 0 km/h
577 12-08-2010 19:18:02 21.6 C 7.97 g/m*3 21.6 C 0 km/h
578 12-08-2010 19:30:02 22.1 C 8 g/m*3 22.1 C 0 km/h
579 12-08-2010 19:42:02 21.8 C 8.25 g/m*3 21.8 C 0 km/h
580 12-08-2010 19:54:02 21.4 C 8.81 g/m*3 21.4 C 0 km/h
581 12-08-2010 20:06:02 21.6 C 8.35 g/m*3 21.6 C 0 km/h
582 12-08-2010 20:18:02 20.8 C 8.51 g/m*3 20.8 C 0 km/h
583 12-08-2010 20:30:02 19.9 C 8.42 g/m*3 19.9 C 0 km/h
584 12-08-2010 20:42:02 19.2 C 8.41 g/m*3 19.2 C 0 km/h
585 12-08-2010 20:54:02 19 C 8.47 g/m*3 19 C 0 km/h
586 12-08-2010 21:06:02 19.2 C 8.74 g/m*3 19.2 C 0 km/h
587 12-08-2010 21:18:02 19.1 C 8.2 g/m*3 19.1 C 0 km/h
588 12-08-2010 21:30:03 19.2 C 7.75 g/m*3 19.2 C 0 km/h
589 12-08-2010 21:42:01 19.1 C 7.7 g/m*3 19.1 C 0 km/h
590 12-08-2010 21:54:02 19.1 C 7.54 g/m*3 19.1 C 0 km/h
591 12-08-2010 22:06:02 18.9 C 8.1 g/m*3 18.9 C 0 km/h
592 12-08-2010 22:19:02 18.5 C 8.54 g/m*3 18.5 C 0 km/h
593 12-08-2010 22:31:02 18.4 C 8.49 g/m*3 18.4 C 0 km/h
594 12-08-2010 22:43:02 18.3 C 8.76 g/m*3 18.3 C 0 km/h
595 12-08-2010 22:55:02 18.1 C 8.96 g/m*3 18.1 C 0 km/h
596 12-08-2010 23:07:02 17.7 C 8.9 g/m*3 17.7 C 0 km/h
597 12-08-2010 23:19:03 17.5 C 9.09 g/m*3 17.5 C 0 km/h
598 12-08-2010 23:31:03 17.5 C 9.24 g/m*3 17.5 C 0 km/h
599 12-08-2010 23:43:03 17.2 C 9.37 g/m*3 17.2 C 0 km/h
600 12-08-2010 23:55:03 16.8 C 9.29 g/m*3 16.8 C 0 km/h
Sensor: Nr:Datum:Temp:Abs-Feuchte:Windchill:Wind:
Aussen-T/F 601 13-08-2010 00:07:03 16.7 C 9.38 g/m*3 16.7 C 0 km/h
602 13-08-2010 00:19:03 16.9 C 9.49 g/m*3 16.9 C 0 km/h
603 13-08-2010 00:31:03 17 C 9.26 g/m*3 17 C 0 km/h
604 13-08-2010 00:43:03 16.9 C 9.49 g/m*3 16.9 C 0 km/h
605 13-08-2010 00:55:03 16.6 C 9.46 g/m*3 16.6 C 0 km/h
606 13-08-2010 01:07:03 16.4 C 9.35 g/m*3 16.4 C 0 km/h
607 13-08-2010 01:19:03 16.2 C 9.1 g/m*3 16.2 C 0 km/h
608 13-08-2010 01:31:03 16.2 C 9.24 g/m*3 16.2 C 0 km/h
609 13-08-2010 01:43:03 16 C 9.26 g/m*3 16 C 0 km/h
610 13-08-2010 01:55:03 16.1 C 9.32 g/m*3 16.1 C 0 km/h
611 13-08-2010 02:07:03 16.1 C 9.46 g/m*3 16.1 C 0 km/h
612 13-08-2010 02:19:03 15.9 C 9.62 g/m*3 15.9 C 0 km/h
613 13-08-2010 02:31:03 15.8 C 9.69 g/m*3 15.8 C 0 km/h
614 13-08-2010 02:43:03 15.8 C 9.83 g/m*3 15.8 C 0 km/h
615 13-08-2010 02:55:03 15.5 C 9.78 g/m*3 15.5 C 0 km/h
616 13-08-2010 03:07:03 15.5 C 9.78 g/m*3 15.5 C 0 km/h
617 13-08-2010 03:19:03 15.3 C 9.66 g/m*3 15.3 C 0 km/h
618 13-08-2010 03:31:03 15.3 C 9.79 g/m*3 15.3 C 0 km/h
619 13-08-2010 03:43:04 15.3 C 9.92 g/m*3 15.3 C 0 km/h
620 13-08-2010 03:55:04 15.3 C 10.06 g/m*3 15.3 C 0 km/h
621 13-08-2010 04:07:04 15.2 C 9.99 g/m*3 15.2 C 0 km/h
622 13-08-2010 04:19:04 15.1 C 9.93 g/m*3 15.1 C 0 km/h
623 13-08-2010 04:31:04 15 C 10 g/m*3 15 C 0 km/h
624 13-08-2010 04:43:04 15 C 10 g/m*3 15 C 0 km/h
625 13-08-2010 04:55:04 14.9 C 10.07 g/m*3 14.9 C 0 km/h
Sensor: Nr:Datum:Temp:Abs-Feuchte:Windchill:Wind:
Aussen-T/F 626 13-08-2010 05:07:04 14.8 C 10.01 g/m*3 14.8 C 0 km/h
627 13-08-2010 05:19:04 14.8 C 10.01 g/m*3 14.8 C 0 km/h
628 13-08-2010 05:31:04 14.8 C 10.01 g/m*3 14.8 C 0 km/h
629 13-08-2010 05:43:04 14.7 C 9.95 g/m*3 14.7 C 0 km/h
630 13-08-2010 05:55:04 14.7 C 9.95 g/m*3 14.7 C 0 km/h
631 13-08-2010 06:07:04 14.7 C 9.95 g/m*3 14.7 C 0 km/h
632 13-08-2010 06:19:04 14.7 C 10.07 g/m*3 14.7 C 0 km/h
633 13-08-2010 06:31:04 14.7 C 10.07 g/m*3 14.7 C 0 km/h
634 13-08-2010 06:43:04 14.7 C 10.07 g/m*3 14.7 C 0 km/h
635 13-08-2010 06:55:02 14.7 C 10.07 g/m*3 14.7 C 0 km/h
636 13-08-2010 07:07:02 14.8 C 10.13 g/m*3 14.8 C 0 km/h
637 13-08-2010 07:19:02 15 C 10.13 g/m*3 15 C 0 km/h
638 13-08-2010 07:31:02 15 C 10.13 g/m*3 15 C 0 km/h
639 13-08-2010 07:43:02 15.2 C 10.12 g/m*3 15.2 C 0 km/h
640 13-08-2010 07:55:02 15.1 C 10.06 g/m*3 15.1 C 0 km/h
641 13-08-2010 08:07:02 14.8 C 10.13 g/m*3 14.8 C 0 km/h
642 13-08-2010 08:19:02 14.9 C 10.2 g/m*3 14.9 C 0 km/h
643 13-08-2010 08:31:02 15.2 C 10.38 g/m*3 15.2 C 0 km/h
644 13-08-2010 08:43:02 15.3 C 10.45 g/m*3 15.3 C 0 km/h
645 13-08-2010 08:55:01 15.6 C 10.51 g/m*3 15.6 C 0 km/h
646 13-08-2010 09:07:01 15.6 C 10.51 g/m*3 15.6 C 0 km/h
647 13-08-2010 09:19:02 15.8 C 10.23 g/m*3 15.8 C 0 km/h
648 13-08-2010 09:31:01 16.1 C 10.14 g/m*3 16.1 C 0 km/h
649 13-08-2010 09:43:01 16.6 C 10.17 g/m*3 16.6 C 0 km/h
650 13-08-2010 09:55:03 17.2 C 10.4 g/m*3 17.2 C 0 km/h
Sensor: Nr:Datum:Temp:Abs-Feuchte:Windchill:Wind:
Aussen-T/F 651 13-08-2010 10:07:02 17.6 C 10.05 g/m*3 17.6 C 0 km/h
652 13-08-2010 10:19:03 18.3 C 10.01 g/m*3 18.3 C 0 km/h
653 13-08-2010 10:31:02 19 C 9.45 g/m*3 19 C 0 km/h
654 13-08-2010 10:43:02 19.5 C 9.4 g/m*3 19.5 C 0 km/h
655 13-08-2010 10:55:02 19.8 C 9.22 g/m*3 19.8 C 0 km/h
656 13-08-2010 11:07:02 20.9 C 9.11 g/m*3 20.9 C 0 km/h
657 13-08-2010 11:19:02 21.2 C 8.52 g/m*3 21.2 C 0 km/h
658 13-08-2010 11:31:03 21 C 8.24 g/m*3 21 C 0 km/h
659 13-08-2010 11:43:03 21.4 C 7.69 g/m*3 21.4 C 0 km/h
660 13-08-2010 11:55:02 21.7 C 8.39 g/m*3 21.7 C 0 km/h
661 13-08-2010 12:07:01 22.1 C 7.81 g/m*3 22.1 C 0 km/h
662 13-08-2010 12:19:02 21.7 C 7.63 g/m*3 21.7 C 0 km/h
663 13-08-2010 12:31:02 22.2 C 7.85 g/m*3 22.2 C 0 km/h
664 13-08-2010 12:43:02 22.2 C 7.85 g/m*3 22.2 C 0 km/h
665 13-08-2010 12:55:02 22.8 C 7.52 g/m*3 22.8 C 0 km/h
666 13-08-2010 13:07:02 22.5 C 7.19 g/m*3 22.5 C 0 km/h
667 13-08-2010 13:19:02 23.2 C 7.28 g/m*3 23.2 C 0 km/h
668 13-08-2010 13:31:02 23.2 C 7.48 g/m*3 23.2 C 0 km/h
669 13-08-2010 13:43:02 23.5 C 6.56 g/m*3 23.5 C 0 km/h
670 13-08-2010 13:55:01 22.6 C 6.43 g/m*3 22.6 C 0 km/h
671 13-08-2010 14:07:01 22.6 C 6.43 g/m*3 22.6 C 0 km/h
672 13-08-2010 14:19:01 23.2 C 6.44 g/m*3 23.2 C 0 km/h
673 13-08-2010 14:31:01 24.1 C 6.78 g/m*3 24.1 C 0 km/h
674 13-08-2010 14:43:01 24.4 C 6.23 g/m*3 24.4 C 0 km/h
675 13-08-2010 14:55:01 25.3 C 6.55 g/m*3 25.3 C 0 km/h
Sensor: Nr:Datum:Temp:Abs-Feuchte:Windchill:Wind:
Aussen-T/F 676 13-08-2010 15:07:01 24.7 C 6.11 g/m*3 24.7 C 0 km/h
677 13-08-2010 15:19:02 24.6 C 6.3 g/m*3 24.6 C 0 km/h
678 13-08-2010 15:31:01 24.9 C 6.18 g/m*3 24.9 C 0 km/h
679 13-08-2010 15:43:01 24.1 C 5.69 g/m*3 24.1 C 0 km/h
680 13-08-2010 15:55:01 23.8 C 5.81 g/m*3 23.8 C 0 km/h
681 13-08-2010 16:07:01 24.3 C 5.75 g/m*3 24.3 C 0 km/h
682 13-08-2010 16:19:02 24.4 C 6.45 g/m*3 24.4 C 0 km/h
683 13-08-2010 16:31:01 24.5 C 6.94 g/m*3 24.5 C 0 km/h
684 13-08-2010 16:43:01 24.1 C 6.78 g/m*3 24.1 C 0 km/h
685 13-08-2010 16:55:02 23.9 C 7.79 g/m*3 23.9 C 0 km/h
686 13-08-2010 17:07:02 24 C 6.96 g/m*3 24 C 0 km/h
687 13-08-2010 17:19:02 23.7 C 7.27 g/m*3 23.7 C 0 km/h
688 13-08-2010 17:31:02 23.7 C 7.06 g/m*3 23.7 C 0 km/h
689 13-08-2010 17:43:02 23.6 C 7.66 g/m*3 23.6 C 0 km/h
690 13-08-2010 17:55:02 23.3 C 8.15 g/m*3 23.3 C 0 km/h
691 13-08-2010 18:07:02 22.9 C 8.17 g/m*3 22.9 C 0 km/h
692 13-08-2010 18:19:01 22.8 C 8.13 g/m*3 22.8 C 0 km/h
693 13-08-2010 18:31:02 22.5 C 8.19 g/m*3 22.5 C 0 km/h
694 13-08-2010 18:43:02 22.3 C 8.29 g/m*3 22.3 C 0 km/h
695 13-08-2010 18:55:02 22 C 7.96 g/m*3 22 C 0 km/h
696 13-08-2010 19:07:02 21.7 C 8.01 g/m*3 21.7 C 0 km/h
697 13-08-2010 19:19:02 22.1 C 7.81 g/m*3 22.1 C 0 km/h
698 13-08-2010 19:31:02 21.9 C 8.1 g/m*3 21.9 C 0 km/h
699 13-08-2010 19:43:02 21.5 C 7.92 g/m*3 21.5 C 0 km/h
700 13-08-2010 19:55:02 22 C 7.57 g/m*3 22 C 0 km/h
Sensor: Nr:Datum:Temp:Abs-Feuchte:Windchill:Wind:
Aussen-T/F 701 13-08-2010 20:07:02 21.7 C 7.82 g/m*3 21.7 C 0 km/h
702 13-08-2010 20:19:02 20.7 C 7.92 g/m*3 20.7 C 0 km/h
703 13-08-2010 20:31:02 19.8 C 8.03 g/m*3 19.8 C 0 km/h
704 13-08-2010 20:43:02 19 C 7.99 g/m*3 19 C 0 km/h
705 13-08-2010 20:55:02 18.3 C 7.82 g/m*3 18.3 C 0 km/h
706 13-08-2010 21:07:02 17.9 C 7.79 g/m*3 17.9 C 0 km/h
707 13-08-2010 21:19:03 17.7 C 7.69 g/m*3 17.7 C 0 km/h
708 13-08-2010 21:31:02 17.8 C 7.89 g/m*3 17.8 C 0 km/h
709 13-08-2010 21:43:02 17.5 C 7.75 g/m*3 17.5 C 0 km/h
710 13-08-2010 21:55:03 17.4 C 8 g/m*3 17.4 C 0 km/h
711 13-08-2010 22:07:02 17.3 C 8.1 g/m*3 17.3 C 0 km/h
712 13-08-2010 22:19:02 17.1 C 8.01 g/m*3 17.1 C 0 km/h
713 13-08-2010 22:31:03 16.8 C 8.29 g/m*3 16.8 C 0 km/h
714 13-08-2010 22:43:03 16.4 C 8.37 g/m*3 16.4 C 0 km/h
715 13-08-2010 22:56:03 16 C 8.17 g/m*3 16 C 0 km/h
716 13-08-2010 23:08:03 15.8 C 8.35 g/m*3 15.8 C 0 km/h
717 13-08-2010 23:20:03 15.6 C 8.38 g/m*3 15.6 C 0 km/h
718 13-08-2010 23:32:03 15.5 C 8.86 g/m*3 15.5 C 0 km/h
719 13-08-2010 23:44:03 15.2 C 8.83 g/m*3 15.2 C 0 km/h
720 13-08-2010 23:56:03 15.1 C 8.77 g/m*3 15.1 C 0 km/h
721 14-08-2010 00:08:03 15 C 8.72 g/m*3 15 C 0 km/h
722 14-08-2010 00:20:03 14.9 C 8.92 g/m*3 14.9 C 0 km/h
723 14-08-2010 00:32:04 14.6 C 8.88 g/m*3 14.6 C 0 km/h
724 14-08-2010 00:44:04 14.5 C 8.95 g/m*3 14.5 C 0 km/h
725 14-08-2010 00:56:04 14.5 C 9.08 g/m*3 14.5 C 0 km/h
Sensor: Nr:Datum:Temp:Abs-Feuchte:Windchill:Wind:
Aussen-T/F 726 14-08-2010 01:08:04 14.3 C 9.09 g/m*3 14.3 C 0 km/h
727 14-08-2010 01:20:04 14.1 C 9.1 g/m*3 14.1 C 0 km/h
728 14-08-2010 01:32:04 13.8 C 9.06 g/m*3 13.8 C 0 km/h
729 14-08-2010 01:44:04 13.9 C 9.11 g/m*3 13.9 C 0 km/h
730 14-08-2010 01:56:04 13.8 C 9.17 g/m*3 13.8 C 0 km/h
731 14-08-2010 02:08:04 13.6 C 9.06 g/m*3 13.6 C 0 km/h
732 14-08-2010 02:20:04 13.4 C 8.95 g/m*3 13.4 C 0 km/h
733 14-08-2010 02:32:04 13.3 C 9.01 g/m*3 13.3 C 0 km/h
734 14-08-2010 02:44:04 13.2 C 8.96 g/m*3 13.2 C 0 km/h
735 14-08-2010 02:56:04 13.1 C 9.01 g/m*3 13.1 C 0 km/h
736 14-08-2010 03:08:04 12.9 C 9.02 g/m*3 12.9 C 0 km/h
737 14-08-2010 03:20:04 12.7 C 8.91 g/m*3 12.7 C 0 km/h
738 14-08-2010 03:32:04 12.6 C 8.85 g/m*3 12.6 C 0 km/h
739 14-08-2010 03:44:04 12.5 C 8.91 g/m*3 12.5 C 0 km/h
740 14-08-2010 03:56:04 12.3 C 8.69 g/m*3 12.3 C 0 km/h
741 14-08-2010 04:08:04 12.2 C 8.74 g/m*3 12.2 C 0 km/h
742 14-08-2010 04:20:04 12.1 C 8.69 g/m*3 12.1 C 0 km/h
743 14-08-2010 04:32:05 12.1 C 8.69 g/m*3 12.1 C 0 km/h
744 14-08-2010 04:44:05 12 C 8.74 g/m*3 12 C 0 km/h
745 14-08-2010 04:56:05 11.9 C 8.9 g/m*3 11.9 C 0 km/h
746 14-08-2010 05:08:05 11.8 C 8.84 g/m*3 11.8 C 0 km/h
747 14-08-2010 05:20:05 11.7 C 8.79 g/m*3 11.7 C 0 km/h
748 14-08-2010 05:32:05 11.6 C 8.73 g/m*3 11.6 C 0 km/h
749 14-08-2010 05:44:05 11.5 C 8.68 g/m*3 11.5 C 0 km/h
750 14-08-2010 05:56:05 11.5 C 8.78 g/m*3 11.5 C 0 km/h
Sensor: Nr:Datum:Temp:Abs-Feuchte:Windchill:Wind:
Aussen-T/F 751 14-08-2010 06:08:05 11.4 C 8.83 g/m*3 11.4 C 0 km/h
752 14-08-2010 06:20:05 11.1 C 8.66 g/m*3 11.1 C 0 km/h
753 14-08-2010 06:32:05 11.1 C 8.76 g/m*3 11.1 C 0 km/h
754 14-08-2010 06:44:05 11 C 8.71 g/m*3 11 C 0 km/h
755 14-08-2010 06:56:05 11 C 8.71 g/m*3 11 C 0 km/h
756 14-08-2010 07:08:04 11.1 C 8.76 g/m*3 11.1 C 0 km/h
757 14-08-2010 07:20:03 11.1 C 8.76 g/m*3 11.1 C 0 km/h
758 14-08-2010 07:32:04 11.3 C 8.87 g/m*3 11.3 C 0 km/h
759 14-08-2010 07:44:04 11.4 C 9.03 g/m*3 11.4 C 0 km/h
760 14-08-2010 07:56:02 11.5 C 9.09 g/m*3 11.5 C 0 km/h
761 14-08-2010 08:08:02 11.8 C 9.26 g/m*3 11.8 C 0 km/h
762 14-08-2010 08:20:02 12.1 C 9.33 g/m*3 12.1 C 0 km/h
763 14-08-2010 08:32:02 12.3 C 9.45 g/m*3 12.3 C 0 km/h
764 14-08-2010 08:44:02 12.6 C 9.51 g/m*3 12.6 C 0 km/h
765 14-08-2010 08:56:02 12.8 C 9.52 g/m*3 12.8 C 0 km/h
766 14-08-2010 09:08:02 13.2 C 9.53 g/m*3 13.2 C 0 km/h
767 14-08-2010 09:20:02 13.8 C 9.89 g/m*3 13.8 C 0 km/h
768 14-08-2010 09:32:02 14.4 C 10.01 g/m*3 14.4 C 0 km/h
769 14-08-2010 09:44:02 15 C 10 g/m*3 15 C 0 km/h
770 14-08-2010 09:56:01 15.6 C 10.24 g/m*3 15.6 C 0 km/h
771 14-08-2010 10:08:01 16.2 C 10.2 g/m*3 16.2 C 0 km/h
772 14-08-2010 10:20:02 16.9 C 10.36 g/m*3 16.9 C 0 km/h
773 14-08-2010 10:32:01 17.7 C 10.41 g/m*3 17.7 C 0 km/h
774 14-08-2010 10:44:01 18.3 C 10.48 g/m*3 18.3 C 0 km/h
775 14-08-2010 10:56:01 19 C 10.43 g/m*3 19 C 0 km/h
Sensor: Nr:Datum:Temp:Abs-Feuchte:Windchill:Wind:
Aussen-T/F 776 14-08-2010 11:08:01 19.5 C 10.57 g/m*3 19.5 C 0 km/h
777 14-08-2010 11:20:02 20 C 10.37 g/m*3 20 C 0 km/h
778 14-08-2010 11:32:01 20.6 C 10.38 g/m*3 20.6 C 0 km/h
779 14-08-2010 11:44:01 21.4 C 10.31 g/m*3 21.4 C 0 km/h
780 14-08-2010 11:56:02 21.9 C 10.03 g/m*3 21.9 C 0 km/h
781 14-08-2010 12:08:02 22.2 C 9.42 g/m*3 22.2 C 0 km/h
782 14-08-2010 12:20:02 22.7 C 9.9 g/m*3 22.7 C 0 km/h
783 14-08-2010 12:32:03 23.1 C 9.3 g/m*3 23.1 C 0 km/h
784 14-08-2010 12:44:03 23.2 C 8.94 g/m*3 23.2 C 0 km/h
785 14-08-2010 12:56:02 23.6 C 8.29 g/m*3 23.6 C 0 km/h
786 14-08-2010 13:08:01 24.5 C 8.06 g/m*3 24.5 C 0 km/h
787 14-08-2010 13:20:02 25.7 C 7.66 g/m*3 25.7 C 0 km/h
788 14-08-2010 13:32:02 26.4 C 7.47 g/m*3 26.4 C 0 km/h
789 14-08-2010 13:44:02 27.1 C 6.73 g/m*3 27.1 C 0 km/h
790 14-08-2010 13:56:02 27.5 C 6.88 g/m*3 27.5 C 0 km/h
791 14-08-2010 14:08:01 27.5 C 6.88 g/m*3 27.5 C 0 km/h
792 14-08-2010 14:20:02 28.2 C 7.42 g/m*3 28.2 C 0 km/h
793 14-08-2010 14:32:01 27.9 C 6.76 g/m*3 27.9 C 0 km/h
794 14-08-2010 14:44:01 27.4 C 6.84 g/m*3 27.4 C 0 km/h
795 14-08-2010 14:56:02 27.1 C 6.99 g/m*3 27.1 C 0 km/h
796 14-08-2010 15:08:02 27.7 C 6.95 g/m*3 27.7 C 0 km/h
797 14-08-2010 15:20:02 27.7 C 6.95 g/m*3 27.7 C 0 km/h
798 14-08-2010 15:32:03 27.5 C 6.61 g/m*3 27.5 C 0 km/h
799 14-08-2010 15:44:03 28.1 C 6.84 g/m*3 28.1 C 0 km/h
800 14-08-2010 15:56:02 29.2 C 6.1 g/m*3 29.2 C 0 km/h
Sensor: Nr:Datum:Temp:Abs-Feuchte:Windchill:Wind:
Aussen-T/F 801 14-08-2010 16:08:01 29.6 C 6.53 g/m*3 29.6 C 0 km/h
802 14-08-2010 16:20:02 30 C 6.67 g/m*3 30 C 0 km/h
803 14-08-2010 16:32:02 30 C 6.37 g/m*3 30 C 0 km/h
804 14-08-2010 16:44:02 30.3 C 6.47 g/m*3 30.3 C 0 km/h
805 14-08-2010 16:56:02 30.6 C 6.26 g/m*3 30.6 C 0 km/h
806 14-08-2010 17:08:02 30.7 C 6.3 g/m*3 30.7 C 0 km/h
807 14-08-2010 17:20:02 30.6 C 6.26 g/m*3 30.6 C 0 km/h
808 14-08-2010 17:32:02 30.9 C 6.37 g/m*3 30.9 C 0 km/h
809 14-08-2010 17:44:02 31 C 6.4 g/m*3 31 C 0 km/h
810 14-08-2010 17:56:01 31.2 C 6.47 g/m*3 31.2 C 0 km/h
811 14-08-2010 18:08:01 31.4 C 6.54 g/m*3 31.4 C 0 km/h
812 14-08-2010 18:20:01 31.5 C 6.57 g/m*3 31.5 C 0 km/h
813 14-08-2010 18:32:01 31.3 C 6.5 g/m*3 31.3 C 0 km/h
814 14-08-2010 18:44:01 31 C 6.4 g/m*3 31 C 0 km/h
815 14-08-2010 18:56:01 30.9 C 6.37 g/m*3 30.9 C 0 km/h
816 14-08-2010 19:08:01 29.6 C 7.72 g/m*3 29.6 C 0 km/h
817 14-08-2010 19:20:02 28.2 C 7.15 g/m*3 28.2 C 0 km/h
818 14-08-2010 19:32:01 27.4 C 7.37 g/m*3 27.4 C 0 km/h
819 14-08-2010 19:44:01 27.2 C 7.55 g/m*3 27.2 C 0 km/h
820 14-08-2010 19:56:03 26.9 C 7.93 g/m*3 26.9 C 0 km/h
821 14-08-2010 20:08:02 26.6 C 8.05 g/m*3 26.6 C 0 km/h
822 14-08-2010 20:20:02 25.8 C 8.19 g/m*3 25.8 C 0 km/h
823 14-08-2010 20:32:02 24.7 C 8.15 g/m*3 24.7 C 0 km/h
824 14-08-2010 20:44:02 24 C 8.05 g/m*3 24 C 0 km/h
825 14-08-2010 20:56:02 23.2 C 8.32 g/m*3 23.2 C 0 km/h
Sensor: Nr:Datum:Temp:Abs-Feuchte:Windchill:Wind:
Aussen-T/F 826 14-08-2010 21:08:02 22.7 C 8.49 g/m*3 22.7 C 0 km/h
827 14-08-2010 21:20:02 22.5 C 8.59 g/m*3 22.5 C 0 km/h
828 14-08-2010 21:32:02 22.1 C 8.78 g/m*3 22.1 C 0 km/h
829 14-08-2010 21:44:02 21.8 C 8.83 g/m*3 21.8 C 0 km/h
830 14-08-2010 21:56:02 21.6 C 8.91 g/m*3 21.6 C 0 km/h
831 14-08-2010 22:08:02 21.6 C 9.1 g/m*3 21.6 C 0 km/h
832 14-08-2010 22:20:01 21.5 C 9.05 g/m*3 21.5 C 0 km/h
833 14-08-2010 22:32:02 21.2 C 9.27 g/m*3 21.2 C 0 km/h
834 14-08-2010 22:44:02 21.1 C 9.21 g/m*3 21.1 C 0 km/h
835 14-08-2010 22:56:02 20.8 C 9.05 g/m*3 20.8 C 0 km/h
836 14-08-2010 23:08:02 20.7 C 9.36 g/m*3 20.7 C 0 km/h
837 14-08-2010 23:21:03 20.6 C 9.31 g/m*3 20.6 C 0 km/h
838 14-08-2010 23:33:03 20.3 C 9.15 g/m*3 20.3 C 0 km/h
839 14-08-2010 23:45:03 20.2 C 8.92 g/m*3 20.2 C 0 km/h
840 14-08-2010 23:57:03 20 C 8.99 g/m*3 20 C 0 km/h
841 15-08-2010 00:09:03 20 C 8.81 g/m*3 20 C 0 km/h
842 15-08-2010 00:21:03 19.8 C 8.88 g/m*3 19.8 C 0 km/h
843 15-08-2010 00:33:03 19.8 C 8.88 g/m*3 19.8 C 0 km/h
844 15-08-2010 00:45:03 19.6 C 8.78 g/m*3 19.6 C 0 km/h
845 15-08-2010 00:57:03 19.5 C 8.73 g/m*3 19.5 C 0 km/h
846 15-08-2010 01:09:03 19.5 C 8.89 g/m*3 19.5 C 0 km/h
847 15-08-2010 01:21:03 19.5 C 8.56 g/m*3 19.5 C 0 km/h
848 15-08-2010 01:33:03 19.4 C 8.84 g/m*3 19.4 C 0 km/h
849 15-08-2010 01:45:03 19.3 C 8.63 g/m*3 19.3 C 0 km/h
850 15-08-2010 01:57:03 19.2 C 8.74 g/m*3 19.2 C 0 km/h
Sensor: Nr:Datum:Temp:Abs-Feuchte:Windchill:Wind:
Aussen-T/F 851 15-08-2010 02:09:03 19.1 C 8.69 g/m*3 19.1 C 0 km/h
852 15-08-2010 02:21:03 19.1 C 9.02 g/m*3 19.1 C 0 km/h
853 15-08-2010 02:33:03 19 C 8.96 g/m*3 19 C 0 km/h
854 15-08-2010 02:45:03 18.9 C 9.07 g/m*3 18.9 C 0 km/h
855 15-08-2010 02:57:03 18.8 C 9.18 g/m*3 18.8 C 0 km/h
856 15-08-2010 03:09:03 18.8 C 9.34 g/m*3 18.8 C 0 km/h
857 15-08-2010 03:21:03 18.7 C 9.29 g/m*3 18.7 C 0 km/h
858 15-08-2010 03:33:04 18.6 C 9.23 g/m*3 18.6 C 0 km/h
859 15-08-2010 03:45:04 18.5 C 9.33 g/m*3 18.5 C 0 km/h
860 15-08-2010 03:57:04 18.4 C 9.28 g/m*3 18.4 C 0 km/h
861 15-08-2010 04:09:04 18.2 C 9.17 g/m*3 18.2 C 0 km/h
862 15-08-2010 04:21:04 18.2 C 9.33 g/m*3 18.2 C 0 km/h
863 15-08-2010 04:33:04 18.1 C 9.12 g/m*3 18.1 C 0 km/h
864 15-08-2010 04:45:04 18.1 C 9.12 g/m*3 18.1 C 0 km/h
865 15-08-2010 04:57:04 18.1 C 8.96 g/m*3 18.1 C 0 km/h
866 15-08-2010 05:09:04 18.1 C 8.81 g/m*3 18.1 C 0 km/h
867 15-08-2010 05:21:04 18.1 C 8.96 g/m*3 18.1 C 0 km/h
868 15-08-2010 05:33:04 18.1 C 8.81 g/m*3 18.1 C 0 km/h
869 15-08-2010 05:45:04 18 C 8.91 g/m*3 18 C 0 km/h
870 15-08-2010 05:57:04 18 C 8.91 g/m*3 18 C 0 km/h
871 15-08-2010 06:09:04 17.8 C 9.11 g/m*3 17.8 C 0 km/h
872 15-08-2010 06:21:04 17.9 C 9.01 g/m*3 17.9 C 0 km/h
873 15-08-2010 06:33:04 18 C 9.06 g/m*3 18 C 0 km/h
874 15-08-2010 06:45:04 17.9 C 9.01 g/m*3 17.9 C 0 km/h
875 15-08-2010 06:57:04 17.9 C 9.01 g/m*3 17.9 C 0 km/h
Sensor: Nr:Datum:Temp:Abs-Feuchte:Windchill:Wind:
Aussen-T/F 876 15-08-2010 07:09:04 18 C 8.91 g/m*3 18 C 0 km/h
877 15-08-2010 07:21:04 17.9 C 9.16 g/m*3 17.9 C 0 km/h
878 15-08-2010 07:33:04 17.2 C 9.52 g/m*3 17.2 C 0 km/h
879 15-08-2010 07:45:05 16.4 C 10.05 g/m*3 16.4 C 0 km/h
880 15-08-2010 07:57:05 16 C 10.63 g/m*3 16 C 0 km/h
881 15-08-2010 08:09:05 15.4 C 11.04 g/m*3 15.4 C 0 km/h
882 15-08-2010 08:21:05 15.1 C 11.22 g/m*3 15.1 C 0 km/h
883 15-08-2010 08:33:03 15.1 C 11.48 g/m*3 15.1 C 0 km/h
884 15-08-2010 08:45:02 15.4 C 11.82 g/m*3 15.4 C 0 km/h
885 15-08-2010 08:57:02 15.2 C 11.81 g/m*3 15.2 C 0 km/h
886 15-08-2010 09:09:03 15.1 C 11.74 g/m*3 15.1 C 0 km/h
887 15-08-2010 09:21:02 15.1 C 11.87 g/m*3 15.1 C 0 km/h
888 15-08-2010 09:33:02 15.2 C 12.07 g/m*3 15.2 C 0 km/h
889 15-08-2010 09:45:01 15.3 C 12.14 g/m*3 15.3 C 0 km/h
890 15-08-2010 09:57:01 15.3 C 12.14 g/m*3 15.3 C 0 km/h
891 15-08-2010 10:09:02 15.5 C 12.43 g/m*3 15.5 C 0 km/h
892 15-08-2010 10:21:01 15.4 C 12.35 g/m*3 15.4 C 0 km/h
893 15-08-2010 10:33:01 15.4 C 12.35 g/m*3 15.4 C 0 km/h
894 15-08-2010 10:45:01 15.5 C 12.43 g/m*3 15.5 C 0 km/h
895 15-08-2010 10:57:01 15.6 C 12.63 g/m*3 15.6 C 0 km/h
896 15-08-2010 11:09:01 15.7 C 12.71 g/m*3 15.7 C 0 km/h
897 15-08-2010 11:21:02 15.8 C 12.79 g/m*3 15.8 C 0 km/h
898 15-08-2010 11:33:01 15.8 C 12.79 g/m*3 15.8 C 0 km/h
899 15-08-2010 11:45:03 15.9 C 12.87 g/m*3 15.9 C 0 km/h
900 15-08-2010 11:57:03 15.9 C 12.87 g/m*3 15.9 C 0 km/h
Sensor: Nr:Datum:Temp:Abs-Feuchte:Windchill:Wind:
Aussen-T/F 901 15-08-2010 12:09:02 15.8 C 12.79 g/m*3 15.8 C 0 km/h
902 15-08-2010 12:21:02 16 C 12.94 g/m*3 16 C 0 km/h
903 15-08-2010 12:33:02 16.2 C 13.1 g/m*3 16.2 C 0 km/h
904 15-08-2010 12:45:02 16.1 C 13.02 g/m*3 16.1 C 0 km/h
905 15-08-2010 12:57:02 16.1 C 13.02 g/m*3 16.1 C 0 km/h
906 15-08-2010 13:09:02 16.1 C 13.02 g/m*3 16.1 C 0 km/h
907 15-08-2010 13:21:02 16.1 C 13.02 g/m*3 16.1 C 0 km/h
908 15-08-2010 13:33:02 16.2 C 13.1 g/m*3 16.2 C 0 km/h
909 15-08-2010 13:45:01 16.2 C 13.1 g/m*3 16.2 C 0 km/h
910 15-08-2010 13:57:01 16.1 C 13.02 g/m*3 16.1 C 0 km/h
911 15-08-2010 14:09:02 16.2 C 13.1 g/m*3 16.2 C 0 km/h
912 15-08-2010 14:21:02 16.3 C 13.18 g/m*3 16.3 C 0 km/h
913 15-08-2010 14:33:02 16.6 C 13.42 g/m*3 16.6 C 0 km/h
914 15-08-2010 14:45:02 16.6 C 13.42 g/m*3 16.6 C 0 km/h
915 15-08-2010 14:57:02 16.5 C 13.34 g/m*3 16.5 C 0 km/h
916 15-08-2010 15:09:02 16.4 C 13.26 g/m*3 16.4 C 0 km/h
917 15-08-2010 15:21:02 16.4 C 13.26 g/m*3 16.4 C 0 km/h
918 15-08-2010 15:33:01 16.4 C 13.26 g/m*3 16.4 C 0 km/h
919 15-08-2010 15:45:02 16.4 C 13.26 g/m*3 16.4 C 0 km/h
920 15-08-2010 15:57:02 16.4 C 13.26 g/m*3 16.4 C 0 km/h
921 15-08-2010 16:09:04 16.5 C 13.34 g/m*3 16.5 C 0 km/h
922 15-08-2010 16:21:02 16.5 C 13.34 g/m*3 16.5 C 0 km/h
923 15-08-2010 16:33:02 16.5 C 13.34 g/m*3 16.5 C 0 km/h
924 15-08-2010 16:45:03 16.4 C 13.26 g/m*3 16.4 C 0 km/h
925 15-08-2010 16:57:03 16.5 C 13.34 g/m*3 16.5 C 0 km/h
Sensor: Nr:Datum:Temp:Abs-Feuchte:Windchill:Wind:
Aussen-T/F 926 15-08-2010 17:09:03 16.6 C 13.42 g/m*3 16.6 C 0 km/h
927 15-08-2010 17:21:02 16.7 C 13.5 g/m*3 16.7 C 0 km/h
928 15-08-2010 17:33:02 16.7 C 13.5 g/m*3 16.7 C 0 km/h
929 15-08-2010 17:45:02 16.7 C 13.5 g/m*3 16.7 C 0 km/h
930 15-08-2010 17:57:02 16.7 C 13.5 g/m*3 16.7 C 0 km/h
931 15-08-2010 18:09:02 16.6 C 13.42 g/m*3 16.6 C 0 km/h
932 15-08-2010 18:21:02 16.6 C 13.42 g/m*3 16.6 C 0 km/h
933 15-08-2010 18:33:02 16.6 C 13.42 g/m*3 16.6 C 0 km/h
934 15-08-2010 18:45:02 16.6 C 13.42 g/m*3 16.6 C 0 km/h
935 15-08-2010 18:57:03 16.6 C 13.42 g/m*3 16.6 C 0 km/h
936 15-08-2010 19:09:01 16.6 C 13.42 g/m*3 16.6 C 0 km/h
937 15-08-2010 19:21:01 16.6 C 13.42 g/m*3 16.6 C 0 km/h
938 15-08-2010 19:33:02 16.6 C 13.42 g/m*3 16.6 C 0 km/h
939 15-08-2010 19:45:02 16.6 C 13.42 g/m*3 16.6 C 0 km/h
940 15-08-2010 19:57:02 16.6 C 13.42 g/m*3 16.6 C 0 km/h
941 15-08-2010 20:09:02 16.5 C 13.34 g/m*3 16.5 C 0 km/h
942 15-08-2010 20:21:02 16.4 C 13.26 g/m*3 16.4 C 0 km/h
943 15-08-2010 20:33:02 16.4 C 13.26 g/m*3 16.4 C 0 km/h
944 15-08-2010 20:45:02 16.3 C 13.18 g/m*3 16.3 C 0 km/h
945 15-08-2010 20:57:02 16.3 C 13.18 g/m*3 16.3 C 0 km/h
946 15-08-2010 21:09:02 16.3 C 13.18 g/m*3 16.3 C 0 km/h
947 15-08-2010 21:21:02 16.3 C 13.18 g/m*3 16.3 C 0 km/h
948 15-08-2010 21:33:02 16.2 C 13.1 g/m*3 16.2 C 0 km/h
949 15-08-2010 21:45:02 16.2 C 13.1 g/m*3 16.2 C 0 km/h
950 15-08-2010 21:57:02 16.2 C 13.1 g/m*3 16.2 C 0 km/h
Sensor: Nr:Datum:Temp:Abs-Feuchte:Windchill:Wind:
Aussen-T/F 951 15-08-2010 22:09:02 16.1 C 13.02 g/m*3 16.1 C 0 km/h
952 15-08-2010 22:21:02 16.1 C 13.02 g/m*3 16.1 C 0 km/h
953 15-08-2010 22:33:02 16.2 C 13.1 g/m*3 16.2 C 0 km/h
954 15-08-2010 22:45:02 16.2 C 13.1 g/m*3 16.2 C 0 km/h
955 15-08-2010 22:57:02 16.1 C 13.02 g/m*3 16.1 C 0 km/h
956 15-08-2010 23:09:02 16 C 12.94 g/m*3 16 C 0 km/h
957 15-08-2010 23:21:02 15.9 C 12.87 g/m*3 15.9 C 0 km/h
958 15-08-2010 23:33:02 15.4 C 12.48 g/m*3 15.4 C 0 km/h
959 15-08-2010 23:45:02 15.2 C 12.33 g/m*3 15.2 C 0 km/h
960 15-08-2010 23:57:02 15 C 12.18 g/m*3 15 C 0 km/h
961 16-08-2010 00:09:02 15 C 12.18 g/m*3 15 C 0 km/h
962 16-08-2010 00:21:01 15 C 12.18 g/m*3 15 C 0 km/h
963 16-08-2010 00:33:02 14.9 C 12.11 g/m*3 14.9 C 0 km/h
964 16-08-2010 00:45:02 14.8 C 12.03 g/m*3 14.8 C 0 km/h
965 16-08-2010 00:57:02 14.8 C 12.03 g/m*3 14.8 C 0 km/h
966 16-08-2010 01:09:02 14.8 C 12.03 g/m*3 14.8 C 0 km/h
967 16-08-2010 01:21:02 14.7 C 11.96 g/m*3 14.7 C 0 km/h
968 16-08-2010 01:33:02 14.7 C 11.83 g/m*3 14.7 C 0 km/h
969 16-08-2010 01:45:02 14.7 C 11.83 g/m*3 14.7 C 0 km/h
970 16-08-2010 01:57:02 14.7 C 11.71 g/m*3 14.7 C 0 km/h
971 16-08-2010 02:09:02 14.6 C 11.64 g/m*3 14.6 C 0 km/h
972 16-08-2010 02:21:02 14.6 C 11.64 g/m*3 14.6 C 0 km/h
973 16-08-2010 02:33:02 14.6 C 11.64 g/m*3 14.6 C 0 km/h
974 16-08-2010 02:46:03 14.6 C 11.51 g/m*3 14.6 C 0 km/h
975 16-08-2010 02:58:03 14.6 C 11.64 g/m*3 14.6 C 0 km/h
Sensor: Nr:Datum:Temp:Abs-Feuchte:Windchill:Wind:
Aussen-T/F 976 16-08-2010 03:10:04 14.6 C 11.64 g/m*3 14.6 C 0 km/h
977 16-08-2010 03:22:04 14.6 C 11.64 g/m*3 14.6 C 0 km/h
978 16-08-2010 03:34:02 14.6 C 11.64 g/m*3 14.6 C 0 km/h
979 16-08-2010 03:46:02 14.6 C 11.64 g/m*3 14.6 C 0 km/h
980 16-08-2010 03:58:02 14.6 C 11.64 g/m*3 14.6 C 0 km/h
981 16-08-2010 04:10:02 14.5 C 11.44 g/m*3 14.5 C 0 km/h
982 16-08-2010 04:22:02 14.5 C 11.32 g/m*3 14.5 C 0 km/h
983 16-08-2010 04:34:02 14.5 C 11.32 g/m*3 14.5 C 0 km/h
984 16-08-2010 04:46:02 14.5 C 11.32 g/m*3 14.5 C 0 km/h
985 16-08-2010 04:58:02 14.5 C 11.32 g/m*3 14.5 C 0 km/h
986 16-08-2010 05:10:02 14.5 C 11.32 g/m*3 14.5 C 0 km/h
987 16-08-2010 05:22:02 14.5 C 11.32 g/m*3 14.5 C 0 km/h
988 16-08-2010 05:34:02 14.5 C 11.44 g/m*3 14.5 C 0 km/h
989 16-08-2010 05:46:01 14.5 C 11.44 g/m*3 14.5 C 0 km/h
990 16-08-2010 05:58:01 14.5 C 11.44 g/m*3 14.5 C 0 km/h
991 16-08-2010 06:10:02 14.5 C 11.44 g/m*3 14.5 C 0 km/h
992 16-08-2010 06:22:02 14.5 C 11.32 g/m*3 14.5 C 0 km/h
993 16-08-2010 06:34:02 14.5 C 11.32 g/m*3 14.5 C 0 km/h
994 16-08-2010 06:46:02 14.6 C 11.39 g/m*3 14.6 C 0 km/h
995 16-08-2010 06:58:02 14.6 C 11.39 g/m*3 14.6 C 0 km/h
996 16-08-2010 07:10:02 14.6 C 11.39 g/m*3 14.6 C 0 km/h
997 16-08-2010 07:22:56 14.8 C 11.53 g/m*3 14.8 C 0 km/h
998 16-08-2010 07:34:02 14.8 C 11.53 g/m*3 14.8 C 0 km/h
999 16-08-2010 07:46:02 14.8 C 11.4 g/m*3 14.8 C 0 km/h
1000 16-08-2010 07:58:02 15.2 C 11.42 g/m*3 15.2 C 0 km/h
Sensor: Nr:Datum:Temp:Abs-Feuchte:Windchill:Wind:
Aussen-T/F 1001 16-08-2010 08:10:02 15.6 C 11.57 g/m*3 15.6 C 0 km/h
1002 16-08-2010 08:22:01 15.8 C 11.58 g/m*3 15.8 C 0 km/h
1003 16-08-2010 08:34:02 15.9 C 11.38 g/m*3 15.9 C 0 km/h
1004 16-08-2010 08:46:01 16 C 11.31 g/m*3 16 C 0 km/h
1005 16-08-2010 08:58:01 16.3 C 11.38 g/m*3 16.3 C 0 km/h
1006 16-08-2010 09:10:02 17.1 C 11.5 g/m*3 17.1 C 0 km/h
1007 16-08-2010 09:22:02 17.4 C 11.12 g/m*3 17.4 C 0 km/h
1008 16-08-2010 09:34:01 17.4 C 10.82 g/m*3 17.4 C 0 km/h
1009 16-08-2010 09:46:01 17.7 C 11.01 g/m*3 17.7 C 0 km/h
1010 16-08-2010 09:58:01 17.4 C 10.97 g/m*3 17.4 C 0 km/h
1011 16-08-2010 10:10:01 17.4 C 10.97 g/m*3 17.4 C 0 km/h
1012 16-08-2010 10:22:02 17.3 C 10.9 g/m*3 17.3 C 0 km/h
1013 16-08-2010 10:34:01 17.1 C 10.63 g/m*3 17.1 C 0 km/h
1014 16-08-2010 10:46:02 17.2 C 10.84 g/m*3 17.2 C 0 km/h
1015 16-08-2010 10:58:02 17 C 10.85 g/m*3 17 C 0 km/h
1016 16-08-2010 11:10:01 17.3 C 11.05 g/m*3 17.3 C 0 km/h
1017 16-08-2010 11:22:01 17.7 C 11.47 g/m*3 17.7 C 0 km/h
1018 16-08-2010 11:42:02 18.1 C 10.97 g/m*3 18.1 C 0 km/h
1019 16-08-2010 11:54:02 17.7 C 10.86 g/m*3 17.7 C 0 km/h
1020 16-08-2010 12:06:03 17.5 C 11.33 g/m*3 17.5 C 0 km/h
1021 16-08-2010 12:18:02 17.8 C 11.84 g/m*3 17.8 C 0 km/h
1022 16-08-2010 12:30:02 17.6 C 11.4 g/m*3 17.6 C 0 km/h
1023 16-08-2010 12:42:02 17.8 C 11.54 g/m*3 17.8 C 0 km/h
1024 16-08-2010 12:54:02 18.1 C 11.12 g/m*3 18.1 C 0 km/h
1025 16-08-2010 13:06:02 18.1 C 10.97 g/m*3 18.1 C 0 km/h
Sensor: Nr:Datum:Temp:Abs-Feuchte:Windchill:Wind:
Aussen-T/F 1026 16-08-2010 13:18:02 18.2 C 10.72 g/m*3 18.2 C 0 km/h
1027 16-08-2010 13:30:02 18.3 C 10.63 g/m*3 18.3 C 0 km/h
1028 16-08-2010 13:42:02 18.5 C 10.28 g/m*3 18.5 C 0 km/h
1029 16-08-2010 13:54:02 18.8 C 10.31 g/m*3 18.8 C 0 km/h
1030 16-08-2010 14:06:01 19.5 C 10.41 g/m*3 19.5 C 0 km/h
1031 16-08-2010 14:18:02 19.6 C 9.96 g/m*3 19.6 C 0 km/h
1032 16-08-2010 14:30:03 20 C 9.51 g/m*3 20 C 0 km/h
1033 16-08-2010 14:42:01 20.5 C 9.96 g/m*3 20.5 C 0 km/h
1034 16-08-2010 14:54:02 19.8 C 9.57 g/m*3 19.8 C 0 km/h
1035 16-08-2010 15:06:02 19.7 C 9.34 g/m*3 19.7 C 0 km/h
1036 16-08-2010 15:18:02 19.7 C 9.51 g/m*3 19.7 C 0 km/h
1037 16-08-2010 15:30:02 19.7 C 9.34 g/m*3 19.7 C 0 km/h
1038 16-08-2010 15:42:03 19.8 C 9.57 g/m*3 19.8 C 0 km/h
1039 16-08-2010 15:54:02 19.7 C 9.34 g/m*3 19.7 C 0 km/h
1040 16-08-2010 16:06:02 20 C 9.68 g/m*3 20 C 0 km/h
1041 16-08-2010 16:18:02 19.7 C 9.68 g/m*3 19.7 C 0 km/h
1042 16-08-2010 16:30:02 19.6 C 9.79 g/m*3 19.6 C 0 km/h
1043 16-08-2010 16:42:02 19.5 C 9.73 g/m*3 19.5 C 0 km/h
1044 16-08-2010 16:54:02 20 C 9.85 g/m*3 20 C 0 km/h
1045 16-08-2010 17:07:03 20 C 9.85 g/m*3 20 C 0 km/h
1046 16-08-2010 17:19:02 19.9 C 9.79 g/m*3 19.9 C 0 km/h
1047 16-08-2010 17:31:02 19.8 C 9.74 g/m*3 19.8 C 0 km/h
1048 16-08-2010 17:43:02 19.8 C 9.74 g/m*3 19.8 C 0 km/h
1049 16-08-2010 17:55:01 20.3 C 9.85 g/m*3 20.3 C 0 km/h
1050 16-08-2010 18:07:02 20.2 C 9.44 g/m*3 20.2 C 0 km/h
Sensor: Nr:Datum:Temp:Abs-Feuchte:Windchill:Wind:
Aussen-T/F 1051 16-08-2010 18:19:01 20 C 9.51 g/m*3 20 C 0 km/h
1052 16-08-2010 18:31:01 19.8 C 9.74 g/m*3 19.8 C 0 km/h
1053 16-08-2010 18:43:01 19.5 C 9.73 g/m*3 19.5 C 0 km/h
1054 16-08-2010 18:55:01 19.3 C 9.79 g/m*3 19.3 C 0 km/h
1055 16-08-2010 19:07:02 18.9 C 9.88 g/m*3 18.9 C 0 km/h
1056 16-08-2010 19:19:02 18.8 C 9.99 g/m*3 18.8 C 0 km/h
1057 16-08-2010 19:31:01 18.7 C 10.09 g/m*3 18.7 C 0 km/h
1058 16-08-2010 19:43:01 18.4 C 10.07 g/m*3 18.4 C 0 km/h
1059 16-08-2010 19:55:02 18.2 C 10.26 g/m*3 18.2 C 0 km/h
1060 16-08-2010 20:07:01 18.1 C 10.35 g/m*3 18.1 C 0 km/h
1061 16-08-2010 20:19:02 18 C 10.44 g/m*3 18 C 0 km/h
1062 16-08-2010 20:31:01 17.9 C 10.69 g/m*3 17.9 C 0 km/h
1063 16-08-2010 20:43:01 17.8 C 10.78 g/m*3 17.8 C 0 km/h
1064 16-08-2010 20:55:02 17.7 C 10.86 g/m*3 17.7 C 0 km/h
1065 16-08-2010 21:07:01 17.6 C 11.1 g/m*3 17.6 C 0 km/h
1066 16-08-2010 21:19:01 17.4 C 11.12 g/m*3 17.4 C 0 km/h
1067 16-08-2010 21:31:02 17.3 C 11.34 g/m*3 17.3 C 0 km/h
1068 16-08-2010 21:43:02 17.4 C 11.41 g/m*3 17.4 C 0 km/h
1069 16-08-2010 21:55:02 17.5 C 11.63 g/m*3 17.5 C 0 km/h
1070 16-08-2010 22:07:35 17.4 C 11.71 g/m*3 17.4 C 0 km/h
1071 16-08-2010 22:20:03 17.5 C 11.78 g/m*3 17.5 C 0 km/h
1072 16-08-2010 22:32:03 17.6 C 11.85 g/m*3 17.6 C 0 km/h
1073 16-08-2010 22:44:03 17.7 C 11.92 g/m*3 17.7 C 0 km/h
1074 16-08-2010 22:56:03 17.7 C 11.92 g/m*3 17.7 C 0 km/h
1075 16-08-2010 23:08:03 17.8 C 12.14 g/m*3 17.8 C 0 km/h
Sensor: Nr:Datum:Temp:Abs-Feuchte:Windchill:Wind:
Aussen-T/F 1076 16-08-2010 23:20:03 17.7 C 12.07 g/m*3 17.7 C 0 km/h
1077 16-08-2010 23:32:03 17.7 C 12.07 g/m*3 17.7 C 0 km/h
1078 16-08-2010 23:44:03 17.8 C 11.99 g/m*3 17.8 C 0 km/h
1079 16-08-2010 23:56:03 17.8 C 11.99 g/m*3 17.8 C 0 km/h
1080 17-08-2010 00:08:03 17.8 C 11.99 g/m*3 17.8 C 0 km/h
1081 17-08-2010 00:20:03 17.8 C 11.99 g/m*3 17.8 C 0 km/h
1082 17-08-2010 00:32:03 17.7 C 11.92 g/m*3 17.7 C 0 km/h
1083 17-08-2010 00:44:03 17.5 C 11.78 g/m*3 17.5 C 0 km/h
1084 17-08-2010 00:56:03 17.3 C 12.08 g/m*3 17.3 C 0 km/h
1085 17-08-2010 01:08:03 17.1 C 12.08 g/m*3 17.1 C 0 km/h
1086 17-08-2010 01:20:03 16.8 C 12.3 g/m*3 16.8 C 0 km/h
1087 17-08-2010 01:32:03 16.6 C 12.29 g/m*3 16.6 C 0 km/h
1088 17-08-2010 01:44:03 16.5 C 12.36 g/m*3 16.5 C 0 km/h
1089 17-08-2010 01:56:03 16.4 C 12.42 g/m*3 16.4 C 0 km/h
1090 17-08-2010 02:08:03 16.3 C 12.35 g/m*3 16.3 C 0 km/h
1091 17-08-2010 02:20:03 16.5 C 12.5 g/m*3 16.5 C 0 km/h
1092 17-08-2010 02:32:04 16.5 C 12.5 g/m*3 16.5 C 0 km/h
1093 17-08-2010 02:44:04 16.6 C 12.43 g/m*3 16.6 C 0 km/h
1094 17-08-2010 02:56:04 16.5 C 12.08 g/m*3 16.5 C 0 km/h
1095 17-08-2010 03:08:04 16.4 C 11.86 g/m*3 16.4 C 0 km/h
1096 17-08-2010 03:20:04 16.4 C 11.86 g/m*3 16.4 C 0 km/h
1097 17-08-2010 03:32:04 16.4 C 11.86 g/m*3 16.4 C 0 km/h
1098 17-08-2010 03:44:04 16.4 C 11.72 g/m*3 16.4 C 0 km/h
1099 17-08-2010 03:56:04 16.5 C 11.65 g/m*3 16.5 C 0 km/h
1100 17-08-2010 04:08:04 16.5 C 11.37 g/m*3 16.5 C 0 km/h
Sensor: Nr:Datum:Temp:Abs-Feuchte:Windchill:Wind:
Aussen-T/F 1101 17-08-2010 04:20:04 16.4 C 11.31 g/m*3 16.4 C 0 km/h
1102 17-08-2010 04:32:04 16.4 C 11.17 g/m*3 16.4 C 0 km/h
1103 17-08-2010 04:44:04 16.4 C 11.03 g/m*3 16.4 C 0 km/h
1104 17-08-2010 04:56:04 16.4 C 11.03 g/m*3 16.4 C 0 km/h
1105 17-08-2010 05:08:04 16 C 11.04 g/m*3 16 C 0 km/h
1106 17-08-2010 05:20:04 15.5 C 11.24 g/m*3 15.5 C 0 km/h
1107 17-08-2010 05:32:05 15.4 C 11.43 g/m*3 15.4 C 0 km/h
1108 17-08-2010 05:44:05 15.6 C 11.57 g/m*3 15.6 C 0 km/h
1109 17-08-2010 05:56:05 15.6 C 11.44 g/m*3 15.6 C 0 km/h
1110 17-08-2010 06:08:05 15.7 C 11.37 g/m*3 15.7 C 0 km/h
1111 17-08-2010 06:20:05 15.8 C 11.31 g/m*3 15.8 C 0 km/h
1112 17-08-2010 06:32:05 15.8 C 11.31 g/m*3 15.8 C 0 km/h
1113 17-08-2010 06:44:05 15.9 C 11.24 g/m*3 15.9 C 0 km/h
1114 17-08-2010 06:56:02 16 C 10.9 g/m*3 16 C 0 km/h
1115 17-08-2010 07:08:02 16.2 C 10.89 g/m*3 16.2 C 0 km/h
1116 17-08-2010 07:20:24 16.2 C 10.76 g/m*3 16.2 C 0 km/h
1117 17-08-2010 07:32:02 16.3 C 10.96 g/m*3 16.3 C 0 km/h
1118 17-08-2010 07:44:02 16.4 C 10.89 g/m*3 16.4 C 0 km/h
1119 17-08-2010 07:56:01 16.7 C 10.66 g/m*3 16.7 C 0 km/h
1120 17-08-2010 08:08:03 16.7 C 10.66 g/m*3 16.7 C 0 km/h
1121 17-08-2010 08:20:01 16.8 C 10.58 g/m*3 16.8 C 0 km/h
1122 17-08-2010 08:32:02 16.7 C 10.23 g/m*3 16.7 C 0 km/h
1123 17-08-2010 08:44:02 16.7 C 10.09 g/m*3 16.7 C 0 km/h
1124 17-08-2010 08:56:02 16.7 C 10.09 g/m*3 16.7 C 0 km/h
1125 17-08-2010 09:08:02 16.8 C 10.01 g/m*3 16.8 C 0 km/h
Sensor: Nr:Datum:Temp:Abs-Feuchte:Windchill:Wind:
Aussen-T/F 1126 17-08-2010 09:20:02 16.9 C 9.78 g/m*3 16.9 C 0 km/h
1127 17-08-2010 09:32:02 16.9 C 9.64 g/m*3 16.9 C 0 km/h
1128 17-08-2010 09:44:02 17.1 C 9.46 g/m*3 17.1 C 0 km/h
1129 17-08-2010 09:56:02 17.2 C 9.37 g/m*3 17.2 C 0 km/h
1130 17-08-2010 10:08:02 17 C 9.26 g/m*3 17 C 0 km/h
1131 17-08-2010 10:20:01 17 C 9.26 g/m*3 17 C 0 km/h
1132 17-08-2010 10:32:02 17 C 9.41 g/m*3 17 C 0 km/h
1133 17-08-2010 10:44:02 17 C 9.41 g/m*3 17 C 0 km/h
1134 17-08-2010 10:56:02 17.3 C 9.43 g/m*3 17.3 C 0 km/h
1135 17-08-2010 11:08:02 17.6 C 9.45 g/m*3 17.6 C 0 km/h
1136 17-08-2010 11:20:02 17.3 C 9.58 g/m*3 17.3 C 0 km/h
1137 17-08-2010 11:32:02 17.6 C 9.3 g/m*3 17.6 C 0 km/h
1138 17-08-2010 11:44:02 17.7 C 8.75 g/m*3 17.7 C 0 km/h
1139 17-08-2010 11:56:02 17.7 C 8.9 g/m*3 17.7 C 0 km/h
1140 17-08-2010 12:08:02 17.6 C 8.85 g/m*3 17.6 C 0 km/h
1141 17-08-2010 12:20:02 16.8 C 9.58 g/m*3 16.8 C 0 km/h
1142 17-08-2010 12:32:02 16 C 10.08 g/m*3 16 C 0 km/h
1143 17-08-2010 12:44:02 16.4 C 11.03 g/m*3 16.4 C 0 km/h
1144 17-08-2010 12:56:02 16.3 C 10.96 g/m*3 16.3 C 0 km/h
1145 17-08-2010 13:08:02 16.5 C 11.23 g/m*3 16.5 C 0 km/h
1146 17-08-2010 13:20:02 16.8 C 11.58 g/m*3 16.8 C 0 km/h
1147 17-08-2010 13:32:02 17.7 C 11.92 g/m*3 17.7 C 0 km/h
1148 17-08-2010 13:44:02 17.9 C 11.76 g/m*3 17.9 C 0 km/h
1149 17-08-2010 13:56:02 17.6 C 12.15 g/m*3 17.6 C 0 km/h
1150 17-08-2010 14:08:01 17.7 C 10.41 g/m*3 17.7 C 0 km/h
Sensor: Nr:Datum:Temp:Abs-Feuchte:Windchill:Wind:
Aussen-T/F 1151 17-08-2010 14:20:02 17.3 C 9.28 g/m*3 17.3 C 0 km/h
1152 17-08-2010 14:32:02 17.4 C 9.19 g/m*3 17.4 C 0 km/h
1153 17-08-2010 14:44:02 18.1 C 8.65 g/m*3 18.1 C 0 km/h
1154 17-08-2010 14:56:02 18.2 C 8.24 g/m*3 18.2 C 0 km/h
1155 17-08-2010 15:08:01 17.9 C 7.94 g/m*3 17.9 C 0 km/h
1156 17-08-2010 15:20:01 18.3 C 7.97 g/m*3 18.3 C 0 km/h
1157 17-08-2010 15:32:02 18 C 7.99 g/m*3 18 C 0 km/h
1158 17-08-2010 15:44:02 16 C 9.4 g/m*3 16 C 0 km/h
1159 17-08-2010 15:56:02 15.2 C 9.99 g/m*3 15.2 C 0 km/h
1160 17-08-2010 16:08:02 14.9 C 10.2 g/m*3 14.9 C 0 km/h
1161 17-08-2010 16:20:01 14.6 C 10.01 g/m*3 14.6 C 0 km/h
1162 17-08-2010 16:32:02 14.4 C 9.64 g/m*3 14.4 C 0 km/h
1163 17-08-2010 16:44:02 14.8 C 9.37 g/m*3 14.8 C 0 km/h
1164 17-08-2010 16:56:02 14.8 C 9.5 g/m*3 14.8 C 0 km/h
1165 17-08-2010 17:08:02 14.5 C 9.45 g/m*3 14.5 C 0 km/h
1166 17-08-2010 17:20:01 14.4 C 9.64 g/m*3 14.4 C 0 km/h
1167 17-08-2010 17:32:02 14.2 C 9.77 g/m*3 14.2 C 0 km/h
1168 17-08-2010 17:44:02 14.3 C 10.32 g/m*3 14.3 C 0 km/h
1169 17-08-2010 17:56:02 14.7 C 10.7 g/m*3 14.7 C 0 km/h
1170 17-08-2010 18:08:02 14.3 C 10.57 g/m*3 14.3 C 0 km/h
1171 17-08-2010 18:20:02 14.4 C 10.75 g/m*3 14.4 C 0 km/h
1172 17-08-2010 18:32:02 14.8 C 11.15 g/m*3 14.8 C 0 km/h
1173 17-08-2010 18:44:02 15.2 C 11.29 g/m*3 15.2 C 0 km/h
1174 17-08-2010 18:56:02 15.3 C 11.23 g/m*3 15.3 C 0 km/h
1175 17-08-2010 19:08:02 15.2 C 11.16 g/m*3 15.2 C 0 km/h
Sensor: Nr:Datum:Temp:Abs-Feuchte:Windchill:Wind:
Aussen-T/F 1176 17-08-2010 19:20:02 15 C 11.03 g/m*3 15 C 0 km/h
1177 17-08-2010 19:32:02 14.8 C 11.02 g/m*3 14.8 C 0 km/h
1178 17-08-2010 19:44:02 14.7 C 11.08 g/m*3 14.7 C 0 km/h
1179 17-08-2010 19:56:02 14.5 C 10.94 g/m*3 14.5 C 0 km/h
1180 17-08-2010 20:08:01 14.4 C 11 g/m*3 14.4 C 0 km/h
1181 17-08-2010 20:20:02 14.4 C 11 g/m*3 14.4 C 0 km/h
1182 17-08-2010 20:32:02 14.2 C 10.99 g/m*3 14.2 C 0 km/h
1183 17-08-2010 20:44:02 14.3 C 11.06 g/m*3 14.3 C 0 km/h
1184 17-08-2010 20:56:02 14.3 C 11.06 g/m*3 14.3 C 0 km/h
1185 17-08-2010 21:08:03 14.3 C 11.18 g/m*3 14.3 C 0 km/h
1186 17-08-2010 21:20:02 14.3 C 11.18 g/m*3 14.3 C 0 km/h
1187 17-08-2010 21:32:02 14.3 C 11.3 g/m*3 14.3 C 0 km/h
1188 17-08-2010 21:44:02 14.4 C 11.37 g/m*3 14.4 C 0 km/h
1189 17-08-2010 21:57:04 14.6 C 11.51 g/m*3 14.6 C 0 km/h
1190 17-08-2010 22:09:05 14.6 C 11.51 g/m*3 14.6 C 0 km/h
1191 17-08-2010 22:21:05 14.4 C 11 g/m*3 14.4 C 0 km/h
1192 17-08-2010 22:33:05 14.6 C 10.64 g/m*3 14.6 C 0 km/h
1193 17-08-2010 22:45:05 14.7 C 10.45 g/m*3 14.7 C 0 km/h
1194 17-08-2010 22:57:05 14.8 C 10.13 g/m*3 14.8 C 0 km/h
1195 17-08-2010 23:09:05 14.9 C 10.2 g/m*3 14.9 C 0 km/h
1196 17-08-2010 23:21:05 14.9 C 10.2 g/m*3 14.9 C 0 km/h
1197 17-08-2010 23:33:05 15 C 10 g/m*3 15 C 0 km/h
1198 17-08-2010 23:45:05 15 C 9.87 g/m*3 15 C 0 km/h
1199 17-08-2010 23:57:05 15.2 C 9.99 g/m*3 15.2 C 0 km/h
1200 18-08-2010 00:09:05 15.3 C 9.79 g/m*3 15.3 C 0 km/h
Sensor: Nr:Datum:Temp:Abs-Feuchte:Windchill:Wind:
Aussen-T/F 1201 18-08-2010 00:21:05 15.4 C 9.72 g/m*3 15.4 C 0 km/h
1202 18-08-2010 00:33:05 15.5 C 9.65 g/m*3 15.5 C 0 km/h
1203 18-08-2010 00:45:05 15.7 C 9.63 g/m*3 15.7 C 0 km/h
1204 18-08-2010 00:57:05 15.7 C 9.5 g/m*3 15.7 C 0 km/h
1205 18-08-2010 01:09:05 15.7 C 9.5 g/m*3 15.7 C 0 km/h
1206 18-08-2010 01:21:05 15.8 C 9.42 g/m*3 15.8 C 0 km/h
1207 18-08-2010 01:33:05 15.8 C 9.42 g/m*3 15.8 C 0 km/h
1208 18-08-2010 01:45:05 15.8 C 9.42 g/m*3 15.8 C 0 km/h
1209 18-08-2010 01:57:05 15.7 C 9.37 g/m*3 15.7 C 0 km/h
1210 18-08-2010 02:09:05 15.5 C 9.39 g/m*3 15.5 C 0 km/h
1211 18-08-2010 02:21:05 15.6 C 9.44 g/m*3 15.6 C 0 km/h
1212 18-08-2010 02:33:05 15.5 C 9.39 g/m*3 15.5 C 0 km/h
1213 18-08-2010 02:45:06 15.6 C 9.44 g/m*3 15.6 C 0 km/h
1214 18-08-2010 02:57:06 15.5 C 9.52 g/m*3 15.5 C 0 km/h
1215 18-08-2010 03:09:06 15.5 C 9.52 g/m*3 15.5 C 0 km/h
1216 18-08-2010 03:21:06 15.4 C 9.46 g/m*3 15.4 C 0 km/h
1217 18-08-2010 03:33:06 15.5 C 9.52 g/m*3 15.5 C 0 km/h
1218 18-08-2010 03:45:06 15.4 C 9.46 g/m*3 15.4 C 0 km/h
1219 18-08-2010 03:57:06 15.5 C 9.52 g/m*3 15.5 C 0 km/h
1220 18-08-2010 04:09:06 15.4 C 9.33 g/m*3 15.4 C 0 km/h
1221 18-08-2010 04:21:06 15.4 C 9.46 g/m*3 15.4 C 0 km/h
1222 18-08-2010 04:33:06 15.2 C 9.48 g/m*3 15.2 C 0 km/h
1223 18-08-2010 04:45:06 15 C 9.62 g/m*3 15 C 0 km/h
1224 18-08-2010 04:57:06 15 C 9.87 g/m*3 15 C 0 km/h
1225 18-08-2010 05:09:06 15 C 9.87 g/m*3 15 C 0 km/h
Sensor: Nr:Datum:Temp:Abs-Feuchte:Windchill:Wind:
Aussen-T/F 1226 18-08-2010 05:21:06 15 C 9.75 g/m*3 15 C 0 km/h
1227 18-08-2010 05:33:06 14.9 C 9.81 g/m*3 14.9 C 0 km/h
1228 18-08-2010 05:45:06 14.9 C 9.81 g/m*3 14.9 C 0 km/h
1229 18-08-2010 05:57:06 15 C 9.75 g/m*3 15 C 0 km/h
1230 18-08-2010 06:09:06 15 C 9.62 g/m*3 15 C 0 km/h
1231 18-08-2010 06:21:04 15 C 9.62 g/m*3 15 C 0 km/h
1232 18-08-2010 06:33:04 15 C 9.49 g/m*3 15 C 0 km/h
1233 18-08-2010 06:45:02 15.2 C 9.61 g/m*3 15.2 C 0 km/h
1234 18-08-2010 06:57:02 15.2 C 9.48 g/m*3 15.2 C 0 km/h
1235 18-08-2010 07:09:01 15.2 C 9.48 g/m*3 15.2 C 0 km/h
1236 18-08-2010 07:21:01 15.3 C 9.66 g/m*3 15.3 C 0 km/h
1237 18-08-2010 07:33:02 15.4 C 9.72 g/m*3 15.4 C 0 km/h
1238 18-08-2010 07:45:02 15.5 C 9.78 g/m*3 15.5 C 0 km/h
1239 18-08-2010 07:57:02 15.8 C 9.83 g/m*3 15.8 C 0 km/h
1240 18-08-2010 08:09:02 15.9 C 9.89 g/m*3 15.9 C 0 km/h
1241 18-08-2010 08:21:01 16 C 9.81 g/m*3 16 C 0 km/h
1242 18-08-2010 08:33:02 16.1 C 9.87 g/m*3 16.1 C 0 km/h
1243 18-08-2010 08:45:02 16.3 C 9.85 g/m*3 16.3 C 0 km/h
1244 18-08-2010 08:57:02 16.5 C 9.97 g/m*3 16.5 C 0 km/h
1245 18-08-2010 09:09:02 16.7 C 10.23 g/m*3 16.7 C 0 km/h
1246 18-08-2010 09:21:02 17 C 10.13 g/m*3 17 C 0 km/h
1247 18-08-2010 09:33:02 17 C 10.13 g/m*3 17 C 0 km/h
1248 18-08-2010 09:45:02 17.5 C 10.14 g/m*3 17.5 C 0 km/h
1249 18-08-2010 09:57:02 17.3 C 10.16 g/m*3 17.3 C 0 km/h
1250 18-08-2010 10:09:02 17.4 C 10.08 g/m*3 17.4 C 0 km/h
Sensor: Nr:Datum:Temp:Abs-Feuchte:Windchill:Wind:
Aussen-T/F 1251 18-08-2010 10:21:02 17.8 C 10.32 g/m*3 17.8 C 0 km/h
1252 18-08-2010 10:33:01 18 C 10.14 g/m*3 18 C 0 km/h
1253 18-08-2010 10:45:02 18.5 C 10.28 g/m*3 18.5 C 0 km/h
1254 18-08-2010 10:57:02 19.1 C 10.16 g/m*3 19.1 C 0 km/h
1255 18-08-2010 11:09:01 18.8 C 9.99 g/m*3 18.8 C 0 km/h
1256 18-08-2010 11:21:02 18.9 C 10.21 g/m*3 18.9 C 0 km/h
1257 18-08-2010 11:33:02 18.5 C 10.13 g/m*3 18.5 C 0 km/h
1258 18-08-2010 11:45:02 18.5 C 10.28 g/m*3 18.5 C 0 km/h
1259 18-08-2010 11:57:02 18.8 C 10.31 g/m*3 18.8 C 0 km/h
1260 18-08-2010 12:09:02 19.1 C 10.16 g/m*3 19.1 C 0 km/h
1261 18-08-2010 12:21:02 18.9 C 10.69 g/m*3 18.9 C 0 km/h
1262 18-08-2010 12:33:02 18.8 C 10.63 g/m*3 18.8 C 0 km/h
1263 18-08-2010 12:45:02 18.3 C 10.94 g/m*3 18.3 C 0 km/h
1264 18-08-2010 12:57:02 19 C 10.92 g/m*3 19 C 0 km/h
1265 18-08-2010 13:09:02 20 C 10.54 g/m*3 20 C 0 km/h
1266 18-08-2010 13:21:02 19.8 C 10.76 g/m*3 19.8 C 0 km/h
1267 18-08-2010 13:33:02 20.4 C 10.26 g/m*3 20.4 C 0 km/h
1268 18-08-2010 13:45:02 21.5 C 9.99 g/m*3 21.5 C 0 km/h
1269 18-08-2010 13:57:02 22.3 C 9.48 g/m*3 22.3 C 0 km/h
1270 18-08-2010 14:09:02 22.2 C 9.03 g/m*3 22.2 C 0 km/h
1271 18-08-2010 14:21:02 22.7 C 9.29 g/m*3 22.7 C 0 km/h
1272 18-08-2010 14:33:02 22.7 C 9.29 g/m*3 22.7 C 0 km/h
1273 18-08-2010 14:45:02 23.2 C 8.73 g/m*3 23.2 C 0 km/h
1274 18-08-2010 14:57:02 23.4 C 8.83 g/m*3 23.4 C 0 km/h
1275 18-08-2010 15:09:02 22.5 C 8.99 g/m*3 22.5 C 0 km/h
Sensor: Nr:Datum:Temp:Abs-Feuchte:Windchill:Wind:
Aussen-T/F 1276 18-08-2010 15:21:02 21.3 C 9.51 g/m*3 21.3 C 0 km/h
1277 18-08-2010 15:33:02 22 C 9.12 g/m*3 22 C 0 km/h
1278 18-08-2010 15:45:02 22.4 C 8.74 g/m*3 22.4 C 0 km/h
1279 18-08-2010 15:57:02 23 C 8.63 g/m*3 23 C 0 km/h
1280 18-08-2010 16:09:02 22.7 C 9.09 g/m*3 22.7 C 0 km/h
1281 18-08-2010 16:21:02 22.8 C 9.35 g/m*3 22.8 C 0 km/h
1282 18-08-2010 16:33:02 23.6 C 9.15 g/m*3 23.6 C 0 km/h
1283 18-08-2010 16:45:01 24.5 C 8.73 g/m*3 24.5 C 0 km/h
1284 18-08-2010 16:57:01 24.8 C 8.65 g/m*3 24.8 C 0 km/h
1285 18-08-2010 17:09:01 24 C 8.7 g/m*3 24 C 0 km/h
1286 18-08-2010 17:21:01 23.2 C 8.94 g/m*3 23.2 C 0 km/h
1287 18-08-2010 17:33:02 23.5 C 8.88 g/m*3 23.5 C 0 km/h
1288 18-08-2010 17:45:02 24.5 C 8.95 g/m*3 24.5 C 0 km/h
1289 18-08-2010 17:57:02 24.2 C 8.8 g/m*3 24.2 C 0 km/h
1290 18-08-2010 18:09:02 22.8 C 9.35 g/m*3 22.8 C 0 km/h
1291 18-08-2010 18:21:01 22.9 C 9.4 g/m*3 22.9 C 0 km/h
1292 18-08-2010 18:33:02 22.2 C 9.03 g/m*3 22.2 C 0 km/h
1293 18-08-2010 18:45:02 22 C 9.12 g/m*3 22 C 0 km/h
1294 18-08-2010 18:57:02 21.9 C 8.88 g/m*3 21.9 C 0 km/h
1295 18-08-2010 19:09:02 21.3 C 8.95 g/m*3 21.3 C 0 km/h
1296 18-08-2010 19:21:01 21.1 C 9.03 g/m*3 21.1 C 0 km/h
1297 18-08-2010 19:33:02 20.8 C 9.23 g/m*3 20.8 C 0 km/h
1298 18-08-2010 19:45:01 20.4 C 9.38 g/m*3 20.4 C 0 km/h
1299 18-08-2010 19:57:01 19.8 C 10.08 g/m*3 19.8 C 0 km/h
1300 18-08-2010 20:09:02 19.2 C 10.22 g/m*3 19.2 C 0 km/h
Sensor: Nr:Datum:Temp:Abs-Feuchte:Windchill:Wind:
Aussen-T/F 1301 18-08-2010 20:21:02 19.5 C 10.07 g/m*3 19.5 C 0 km/h
1302 18-08-2010 20:33:02 19.5 C 9.9 g/m*3 19.5 C 0 km/h
1303 18-08-2010 20:45:02 19.5 C 9.9 g/m*3 19.5 C 0 km/h
1304 18-08-2010 20:57:02 19.5 C 9.9 g/m*3 19.5 C 0 km/h
1305 18-08-2010 21:09:01 19.3 C 9.95 g/m*3 19.3 C 0 km/h
1306 18-08-2010 21:21:02 19.1 C 10 g/m*3 19.1 C 0 km/h
1307 18-08-2010 21:33:01 18.7 C 10.25 g/m*3 18.7 C 0 km/h
1308 18-08-2010 21:45:02 18.7 C 10.41 g/m*3 18.7 C 0 km/h
1309 18-08-2010 21:57:02 18.3 C 10.32 g/m*3 18.3 C 0 km/h
1310 18-08-2010 22:09:01 18.1 C 10.51 g/m*3 18.1 C 0 km/h
1311 18-08-2010 22:22:04 17.7 C 10.56 g/m*3 17.7 C 0 km/h
1312 18-08-2010 22:34:04 17.5 C 10.59 g/m*3 17.5 C 0 km/h
1313 18-08-2010 22:46:04 17.3 C 10.61 g/m*3 17.3 C 0 km/h
1314 18-08-2010 22:58:04 17.4 C 10.67 g/m*3 17.4 C 0 km/h
1315 18-08-2010 23:10:04 17.6 C 10.8 g/m*3 17.6 C 0 km/h
1316 18-08-2010 23:22:04 17.7 C 10.56 g/m*3 17.7 C 0 km/h
1317 18-08-2010 23:34:04 17.6 C 10.2 g/m*3 17.6 C 0 km/h
1318 18-08-2010 23:46:04 17.5 C 9.69 g/m*3 17.5 C 0 km/h
1319 18-08-2010 23:58:04 17.5 C 9.69 g/m*3 17.5 C 0 km/h
1320 19-08-2010 00:10:04 17.4 C 9.19 g/m*3 17.4 C 0 km/h
1321 19-08-2010 00:22:04 17.4 C 9.34 g/m*3 17.4 C 0 km/h
1322 19-08-2010 00:34:04 17.4 C 9.04 g/m*3 17.4 C 0 km/h
1323 19-08-2010 00:46:04 17.3 C 9.13 g/m*3 17.3 C 0 km/h
1324 19-08-2010 00:58:04 17.3 C 8.99 g/m*3 17.3 C 0 km/h
1325 19-08-2010 01:10:04 17.1 C 9.03 g/m*3 17.1 C 0 km/h
Sensor: Nr:Datum:Temp:Abs-Feuchte:Windchill:Wind:
Aussen-T/F 1326 19-08-2010 01:22:05 17.1 C 9.17 g/m*3 17.1 C 0 km/h
1327 19-08-2010 01:34:05 16.8 C 9.29 g/m*3 16.8 C 0 km/h
1328 19-08-2010 01:46:05 16.7 C 9.24 g/m*3 16.7 C 0 km/h
1329 19-08-2010 01:58:05 16.6 C 9.18 g/m*3 16.6 C 0 km/h
1330 19-08-2010 02:10:05 16.5 C 8.85 g/m*3 16.5 C 0 km/h
1331 19-08-2010 02:22:05 16.4 C 8.93 g/m*3 16.4 C 0 km/h
1332 19-08-2010 02:34:05 16.3 C 8.6 g/m*3 16.3 C 0 km/h
1333 19-08-2010 02:46:05 16.2 C 8.69 g/m*3 16.2 C 0 km/h
1334 19-08-2010 02:58:05 16.2 C 8.96 g/m*3 16.2 C 0 km/h
1335 19-08-2010 03:10:05 16.1 C 9.18 g/m*3 16.1 C 0 km/h
1336 19-08-2010 03:22:05 16 C 9.26 g/m*3 16 C 0 km/h
1337 19-08-2010 03:34:05 15.9 C 9.34 g/m*3 15.9 C 0 km/h
1338 19-08-2010 03:46:05 15.8 C 9.15 g/m*3 15.8 C 0 km/h
1339 19-08-2010 03:58:05 15.7 C 9.1 g/m*3 15.7 C 0 km/h
1340 19-08-2010 04:10:05 15.7 C 9.23 g/m*3 15.7 C 0 km/h
1341 19-08-2010 04:22:05 15.6 C 9.18 g/m*3 15.6 C 0 km/h
1342 19-08-2010 04:34:05 15.5 C 9.39 g/m*3 15.5 C 0 km/h
1343 19-08-2010 04:46:05 15.4 C 9.46 g/m*3 15.4 C 0 km/h
1344 19-08-2010 04:58:05 15.5 C 9.65 g/m*3 15.5 C 0 km/h
1345 19-08-2010 05:10:05 15.3 C 9.53 g/m*3 15.3 C 0 km/h
1346 19-08-2010 05:22:05 15.2 C 9.48 g/m*3 15.2 C 0 km/h
1347 19-08-2010 05:34:05 15 C 9.23 g/m*3 15 C 0 km/h
1348 19-08-2010 05:46:05 15 C 9.36 g/m*3 15 C 0 km/h
1349 19-08-2010 05:58:06 15 C 8.98 g/m*3 15 C 0 km/h
1350 19-08-2010 06:10:06 14.8 C 8.99 g/m*3 14.8 C 0 km/h
Sensor: Nr:Datum:Temp:Abs-Feuchte:Windchill:Wind:
Aussen-T/F 1351 19-08-2010 06:22:06 14.4 C 8.9 g/m*3 14.4 C 0 km/h
1352 19-08-2010 06:34:06 14.2 C 8.91 g/m*3 14.2 C 0 km/h
1353 19-08-2010 06:46:06 13.7 C 8.76 g/m*3 13.7 C 0 km/h
1354 19-08-2010 06:58:06 13.8 C 8.94 g/m*3 13.8 C 0 km/h
1355 19-08-2010 07:10:06 13.7 C 8.76 g/m*3 13.7 C 0 km/h
1356 19-08-2010 07:22:06 13.9 C 8.15 g/m*3 13.9 C 0 km/h
1357 19-08-2010 07:34:06 13.9 C 8.15 g/m*3 13.9 C 0 km/h
1358 19-08-2010 07:46:01 14 C 8.08 g/m*3 14 C 0 km/h
1359 19-08-2010 07:58:01 14.1 C 7.89 g/m*3 14.1 C 0 km/h
1360 19-08-2010 08:10:02 14.4 C 7.91 g/m*3 14.4 C 0 km/h
1361 19-08-2010 08:22:01 14.6 C 8.01 g/m*3 14.6 C 0 km/h
1362 19-08-2010 08:34:01 14.8 C 8.11 g/m*3 14.8 C 0 km/h
1363 19-08-2010 08:46:01 14.9 C 8.16 g/m*3 14.9 C 0 km/h
1364 19-08-2010 08:58:01 15.2 C 8.05 g/m*3 15.2 C 0 km/h
1365 19-08-2010 09:10:02 15.3 C 8.23 g/m*3 15.3 C 0 km/h
1366 19-08-2010 09:22:01 15.4 C 8.15 g/m*3 15.4 C 0 km/h
1367 19-08-2010 09:34:01 15.7 C 8.03 g/m*3 15.7 C 0 km/h
1368 19-08-2010 09:46:01 16 C 8.04 g/m*3 16 C 0 km/h
1369 19-08-2010 09:58:01 16.2 C 7.86 g/m*3 16.2 C 0 km/h
1370 19-08-2010 10:10:02 16.6 C 7.91 g/m*3 16.6 C 0 km/h
1371 19-08-2010 10:22:02 17.1 C 7.71 g/m*3 17.1 C 0 km/h
1372 19-08-2010 10:34:02 17.7 C 7.69 g/m*3 17.7 C 0 km/h
1373 19-08-2010 10:46:02 18.8 C 7.73 g/m*3 18.8 C 0 km/h
1374 19-08-2010 10:58:02 19.3 C 7.3 g/m*3 19.3 C 0 km/h
1375 19-08-2010 11:10:02 19.2 C 7.26 g/m*3 19.2 C 0 km/h
Sensor: Nr:Datum:Temp:Abs-Feuchte:Windchill:Wind:
Aussen-T/F 1376 19-08-2010 11:22:02 19.5 C 7.38 g/m*3 19.5 C 0 km/h
1377 19-08-2010 11:34:03 20.2 C 6.99 g/m*3 20.2 C 0 km/h
1378 19-08-2010 11:46:02 20.4 C 7.43 g/m*3 20.4 C 0 km/h
1379 19-08-2010 11:58:02 20.7 C 7.2 g/m*3 20.7 C 0 km/h
1380 19-08-2010 12:10:01 20.3 C 7.03 g/m*3 20.3 C 0 km/h
1381 19-08-2010 12:22:02 20.8 C 6.88 g/m*3 20.8 C 0 km/h
1382 19-08-2010 12:34:02 22.1 C 6.64 g/m*3 22.1 C 0 km/h
1383 19-08-2010 12:46:02 22 C 6.4 g/m*3 22 C 0 km/h
1384 19-08-2010 12:58:02 22 C 6.21 g/m*3 22 C 0 km/h
1385 19-08-2010 13:10:03 22.1 C 6.25 g/m*3 22.1 C 0 km/h
1386 19-08-2010 13:22:02 22.1 C 6.05 g/m*3 22.1 C 0 km/h
1387 19-08-2010 13:34:02 22.6 C 6.23 g/m*3 22.6 C 0 km/h
1388 19-08-2010 13:46:01 22.7 C 6.06 g/m*3 22.7 C 0 km/h
1389 19-08-2010 13:58:01 23.7 C 6.2 g/m*3 23.7 C 0 km/h
1390 19-08-2010 14:10:02 23.3 C 6.27 g/m*3 23.3 C 0 km/h
1391 19-08-2010 14:22:01 22.8 C 6.1 g/m*3 22.8 C 0 km/h
1392 19-08-2010 14:34:01 23.7 C 5.78 g/m*3 23.7 C 0 km/h
1393 19-08-2010 14:46:01 23 C 5.55 g/m*3 23 C 0 km/h
1394 19-08-2010 14:58:01 22.4 C 6.36 g/m*3 22.4 C 0 km/h
1395 19-08-2010 15:10:02 22.4 C 6.95 g/m*3 22.4 C 0 km/h
1396 19-08-2010 15:22:01 23.2 C 6.44 g/m*3 23.2 C 0 km/h
1397 19-08-2010 15:34:01 24.3 C 5.97 g/m*3 24.3 C 0 km/h
1398 19-08-2010 15:46:01 24.6 C 5.63 g/m*3 24.6 C 0 km/h
1399 19-08-2010 15:58:01 24.2 C 5.94 g/m*3 24.2 C 0 km/h
1400 19-08-2010 16:10:01 23.4 C 7.36 g/m*3 23.4 C 0 km/h
Sensor: Nr:Datum:Temp:Abs-Feuchte:Windchill:Wind:
Aussen-T/F 1401 19-08-2010 16:22:02 23.5 C 7.4 g/m*3 23.5 C 0 km/h
1402 19-08-2010 16:34:01 23.5 C 7.82 g/m*3 23.5 C 0 km/h
1403 19-08-2010 16:46:03 23.1 C 7.65 g/m*3 23.1 C 0 km/h
1404 19-08-2010 16:58:03 22.9 C 7.97 g/m*3 22.9 C 0 km/h
1405 19-08-2010 17:10:02 22.4 C 8.14 g/m*3 22.4 C 0 km/h
1406 19-08-2010 17:22:02 22.9 C 8.17 g/m*3 22.9 C 0 km/h
1407 19-08-2010 17:34:02 24.1 C 8.1 g/m*3 24.1 C 0 km/h
1408 19-08-2010 17:46:02 24.5 C 7.39 g/m*3 24.5 C 0 km/h
1409 19-08-2010 17:58:02 25.6 C 5.48 g/m*3 25.6 C 0 km/h
1410 19-08-2010 18:10:01 25.1 C 5.32 g/m*3 25.1 C 0 km/h
1411 19-08-2010 18:22:02 25 C 5.75 g/m*3 25 C 0 km/h
1412 19-08-2010 18:34:02 25.3 C 5.85 g/m*3 25.3 C 0 km/h
1413 19-08-2010 18:46:02 25.7 C 5.99 g/m*3 25.7 C 0 km/h
1414 19-08-2010 18:58:02 26 C 5.84 g/m*3 26 C 0 km/h
1415 19-08-2010 19:10:03 25.8 C 6.98 g/m*3 25.8 C 0 km/h
1416 19-08-2010 19:22:02 25.8 C 6.26 g/m*3 25.8 C 0 km/h
1417 19-08-2010 19:34:02 25.6 C 6.67 g/m*3 25.6 C 0 km/h
1418 19-08-2010 19:46:01 24.9 C 6.87 g/m*3 24.9 C 0 km/h
1419 19-08-2010 19:58:01 24.1 C 6.35 g/m*3 24.1 C 0 km/h
1420 19-08-2010 20:10:02 22.8 C 6.71 g/m*3 22.8 C 0 km/h
1421 19-08-2010 20:22:01 21.3 C 7.08 g/m*3 21.3 C 0 km/h
1422 19-08-2010 20:34:02 20.1 C 7.13 g/m*3 20.1 C 0 km/h
1423 19-08-2010 20:46:01 19.4 C 7.17 g/m*3 19.4 C 0 km/h
1424 19-08-2010 20:58:01 18.9 C 7.45 g/m*3 18.9 C 0 km/h
1425 19-08-2010 21:10:02 18.5 C 7.44 g/m*3 18.5 C 0 km/h
Sensor: Nr:Datum:Temp:Abs-Feuchte:Windchill:Wind:
Aussen-T/F 1426 19-08-2010 21:22:01 18.3 C 7.82 g/m*3 18.3 C 0 km/h
1427 19-08-2010 21:34:02 18.2 C 7.77 g/m*3 18.2 C 0 km/h
1428 19-08-2010 21:46:01 17.9 C 8.09 g/m*3 17.9 C 0 km/h
1429 19-08-2010 21:58:01 17.5 C 7.75 g/m*3 17.5 C 0 km/h
1430 19-08-2010 22:10:02 17.3 C 7.96 g/m*3 17.3 C 0 km/h
1431 19-08-2010 22:22:02 17.1 C 8.01 g/m*3 17.1 C 0 km/h
1432 19-08-2010 22:34:02 17 C 7.96 g/m*3 17 C 0 km/h
1433 19-08-2010 22:47:36 16.6 C 8.05 g/m*3 16.6 C 0 km/h
1434 19-08-2010 22:59:36 16.3 C 8.05 g/m*3 16.3 C 0 km/h
1435 19-08-2010 23:11:36 16 C 8.17 g/m*3 16 C 0 km/h
1436 19-08-2010 23:23:36 15.8 C 8.48 g/m*3 15.8 C 0 km/h
1437 19-08-2010 23:35:36 15.6 C 8.38 g/m*3 15.6 C 0 km/h
1438 19-08-2010 23:47:36 15.5 C 8.46 g/m*3 15.5 C 0 km/h
1439 19-08-2010 23:59:36 15.2 C 8.31 g/m*3 15.2 C 0 km/h
1440 20-08-2010 00:11:36 15.1 C 8.51 g/m*3 15.1 C 0 km/h
1441 20-08-2010 00:23:36 14.9 C 8.54 g/m*3 14.9 C 0 km/h
1442 20-08-2010 00:35:36 14.7 C 8.56 g/m*3 14.7 C 0 km/h
1443 20-08-2010 00:47:36 14.5 C 8.58 g/m*3 14.5 C 0 km/h
1444 20-08-2010 00:59:36 14.4 C 8.53 g/m*3 14.4 C 0 km/h
1445 20-08-2010 01:11:36 14.3 C 8.6 g/m*3 14.3 C 0 km/h
1446 20-08-2010 01:23:36 14.2 C 8.67 g/m*3 14.2 C 0 km/h
1447 20-08-2010 01:35:36 13.9 C 8.63 g/m*3 13.9 C 0 km/h
1448 20-08-2010 01:47:37 14 C 8.56 g/m*3 14 C 0 km/h
1449 20-08-2010 01:59:37 13.8 C 8.58 g/m*3 13.8 C 0 km/h
1450 20-08-2010 02:11:37 13.6 C 8.59 g/m*3 13.6 C 0 km/h
Sensor: Nr:Datum:Temp:Abs-Feuchte:Windchill:Wind:
Aussen-T/F 1451 20-08-2010 02:23:37 13.5 C 8.54 g/m*3 13.5 C 0 km/h
1452 20-08-2010 02:35:37 13.3 C 8.66 g/m*3 13.3 C 0 km/h
1453 20-08-2010 02:47:37 13.2 C 8.61 g/m*3 13.2 C 0 km/h
1454 20-08-2010 02:59:37 13.1 C 8.56 g/m*3 13.1 C 0 km/h
1455 20-08-2010 03:11:37 13 C 8.62 g/m*3 13 C 0 km/h
1456 20-08-2010 03:23:03 12.9 C 8.68 g/m*3 12.9 C 0 km/h
1457 20-08-2010 03:35:03 12.8 C 8.62 g/m*3 12.8 C 0 km/h
1458 20-08-2010 03:47:03 12.7 C 8.57 g/m*3 12.7 C 0 km/h
1459 20-08-2010 03:59:03 12.6 C 8.63 g/m*3 12.6 C 0 km/h
1460 20-08-2010 04:11:03 12.4 C 8.63 g/m*3 12.4 C 0 km/h
1461 20-08-2010 04:23:03 12.4 C 8.63 g/m*3 12.4 C 0 km/h
1462 20-08-2010 04:35:03 12.3 C 8.58 g/m*3 12.3 C 0 km/h
1463 20-08-2010 04:47:03 12.1 C 8.47 g/m*3 12.1 C 0 km/h
1464 20-08-2010 04:59:03 12.1 C 8.58 g/m*3 12.1 C 0 km/h
1465 20-08-2010 05:11:03 12 C 8.53 g/m*3 12 C 0 km/h
1466 20-08-2010 05:23:03 12 C 8.63 g/m*3 12 C 0 km/h
1467 20-08-2010 05:35:03 12 C 8.53 g/m*3 12 C 0 km/h
1468 20-08-2010 05:47:03 11.8 C 8.53 g/m*3 11.8 C 0 km/h
1469 20-08-2010 05:59:03 11.7 C 8.58 g/m*3 11.7 C 0 km/h
1470 20-08-2010 06:11:03 11.6 C 8.52 g/m*3 11.6 C 0 km/h
1471 20-08-2010 06:23:04 11.5 C 8.57 g/m*3 11.5 C 0 km/h
1472 20-08-2010 06:35:04 11.4 C 8.52 g/m*3 11.4 C 0 km/h
1473 20-08-2010 06:47:04 11.4 C 8.52 g/m*3 11.4 C 0 km/h
1474 20-08-2010 06:59:04 11.5 C 8.57 g/m*3 11.5 C 0 km/h
1475 20-08-2010 07:11:04 11.6 C 8.63 g/m*3 11.6 C 0 km/h
Sensor: Nr:Datum:Temp:Abs-Feuchte:Windchill:Wind:
Aussen-T/F 1476 20-08-2010 07:23:04 11.6 C 8.73 g/m*3 11.6 C 0 km/h
1477 20-08-2010 07:35:03 11.7 C 8.79 g/m*3 11.7 C 0 km/h
1478 20-08-2010 07:47:03 11.8 C 8.84 g/m*3 11.8 C 0 km/h
1479 20-08-2010 07:59:03 12.1 C 8.9 g/m*3 12.1 C 0 km/h
1480 20-08-2010 08:11:02 12.1 C 9.01 g/m*3 12.1 C 0 km/h
1481 20-08-2010 08:23:02 12.3 C 9.12 g/m*3 12.3 C 0 km/h
1482 20-08-2010 08:35:02 12.5 C 9.24 g/m*3 12.5 C 0 km/h
1483 20-08-2010 08:47:02 12.8 C 9.3 g/m*3 12.8 C 0 km/h
1484 20-08-2010 08:59:02 13 C 9.3 g/m*3 13 C 0 km/h
1485 20-08-2010 09:11:02 13.3 C 9.47 g/m*3 13.3 C 0 km/h
1486 20-08-2010 09:23:02 13.8 C 9.77 g/m*3 13.8 C 0 km/h
1487 20-08-2010 09:35:02 14.4 C 9.89 g/m*3 14.4 C 0 km/h
1488 20-08-2010 09:47:02 15 C 10 g/m*3 15 C 0 km/h
1489 20-08-2010 09:59:02 16 C 10.08 g/m*3 16 C 0 km/h
1490 20-08-2010 10:11:01 16.8 C 10.29 g/m*3 16.8 C 0 km/h
1491 20-08-2010 10:23:01 17.4 C 10.23 g/m*3 17.4 C 0 km/h
1492 20-08-2010 10:35:02 18.1 C 10.2 g/m*3 18.1 C 0 km/h
1493 20-08-2010 10:47:02 18.6 C 10.35 g/m*3 18.6 C 0 km/h
1494 20-08-2010 10:59:02 19.2 C 10.39 g/m*3 19.2 C 0 km/h
1495 20-08-2010 11:11:02 19.8 C 10.76 g/m*3 19.8 C 0 km/h
1496 20-08-2010 11:23:02 20.5 C 10.68 g/m*3 20.5 C 0 km/h
1497 20-08-2010 11:35:02 20.9 C 10.75 g/m*3 20.9 C 0 km/h
1498 20-08-2010 11:47:02 21.7 C 11.06 g/m*3 21.7 C 0 km/h
1499 20-08-2010 11:59:02 22 C 11.06 g/m*3 22 C 0 km/h
1500 20-08-2010 12:11:02 22.8 C 10.97 g/m*3 22.8 C 0 km/h
Sensor: Nr:Datum:Temp:Abs-Feuchte:Windchill:Wind:
Aussen-T/F 1501 20-08-2010 12:23:02 23.2 C 10.6 g/m*3 23.2 C 0 km/h
1502 20-08-2010 12:35:02 23.7 C 11.12 g/m*3 23.7 C 0 km/h
1503 20-08-2010 12:47:01 24.1 C 10.72 g/m*3 24.1 C 0 km/h
1504 20-08-2010 12:59:01 25 C 10.82 g/m*3 25 C 0 km/h
1505 20-08-2010 13:11:01 25.6 C 9.52 g/m*3 25.6 C 0 km/h
1506 20-08-2010 13:23:01 26.4 C 9.71 g/m*3 26.4 C 0 km/h
1507 20-08-2010 13:35:01 27 C 9.01 g/m*3 27 C 0 km/h
1508 20-08-2010 13:47:02 27.5 C 9 g/m*3 27.5 C 0 km/h
1509 20-08-2010 13:59:02 27.3 C 7.85 g/m*3 27.3 C 0 km/h
1510 20-08-2010 14:11:02 27.8 C 8.07 g/m*3 27.8 C 0 km/h
1511 20-08-2010 14:23:03 28.4 C 8.06 g/m*3 28.4 C 0 km/h
1512 20-08-2010 14:35:02 28.1 C 7.11 g/m*3 28.1 C 0 km/h
1513 20-08-2010 14:47:02 28.6 C 8.43 g/m*3 28.6 C 0 km/h
1514 20-08-2010 14:59:02 28.9 C 7.43 g/m*3 28.9 C 0 km/h
1515 20-08-2010 15:11:02 28.9 C 7.43 g/m*3 28.9 C 0 km/h
1516 20-08-2010 15:23:02 29 C 7.18 g/m*3 29 C 0 km/h
1517 20-08-2010 15:35:01 29.5 C 7.67 g/m*3 29.5 C 0 km/h
1518 20-08-2010 15:47:02 30.1 C 7.32 g/m*3 30.1 C 0 km/h
1519 20-08-2010 15:59:02 30.2 C 7.66 g/m*3 30.2 C 0 km/h
1520 20-08-2010 16:11:01 30.4 C 7.75 g/m*3 30.4 C 0 km/h
1521 20-08-2010 16:23:02 30.5 C 7.48 g/m*3 30.5 C 0 km/h
1522 20-08-2010 16:35:02 30.9 C 7.96 g/m*3 30.9 C 0 km/h
1523 20-08-2010 16:47:02 31 C 7.36 g/m*3 31 C 0 km/h
1524 20-08-2010 16:59:02 30.8 C 7.28 g/m*3 30.8 C 0 km/h
1525 20-08-2010 17:11:02 30.9 C 7.64 g/m*3 30.9 C 0 km/h
Sensor: Nr:Datum:Temp:Abs-Feuchte:Windchill:Wind:
Aussen-T/F 1526 20-08-2010 17:23:02 31.2 C 7.12 g/m*3 31.2 C 0 km/h
1527 20-08-2010 17:35:02 31.3 C 7.48 g/m*3 31.3 C 0 km/h
1528 20-08-2010 17:47:02 31.4 C 7.19 g/m*3 31.4 C 0 km/h
1529 20-08-2010 17:59:02 31 C 7.04 g/m*3 31 C 0 km/h
1530 20-08-2010 18:11:02 31.3 C 7.48 g/m*3 31.3 C 0 km/h
1531 20-08-2010 18:23:02 31.4 C 7.52 g/m*3 31.4 C 0 km/h
1532 20-08-2010 18:35:02 31.5 C 7.56 g/m*3 31.5 C 0 km/h
1533 20-08-2010 18:47:02 31 C 7.36 g/m*3 31 C 0 km/h
1534 20-08-2010 18:59:02 30.9 C 8.28 g/m*3 30.9 C 0 km/h
1535 20-08-2010 19:11:02 30.6 C 8.46 g/m*3 30.6 C 0 km/h
1536 20-08-2010 19:23:03 30.3 C 8.63 g/m*3 30.3 C 0 km/h
1537 20-08-2010 19:35:01 30 C 8.49 g/m*3 30 C 0 km/h
1538 20-08-2010 19:47:02 29 C 8.04 g/m*3 29 C 0 km/h
1539 20-08-2010 19:59:02 28 C 8.43 g/m*3 28 C 0 km/h
1540 20-08-2010 20:11:02 26.6 C 8.81 g/m*3 26.6 C 0 km/h
1541 20-08-2010 20:23:02 25.6 C 9.05 g/m*3 25.6 C 0 km/h
1542 20-08-2010 20:35:01 25 C 9.21 g/m*3 25 C 0 km/h
1543 20-08-2010 20:47:02 24.5 C 8.95 g/m*3 24.5 C 0 km/h
1544 20-08-2010 20:59:03 23.8 C 9.25 g/m*3 23.8 C 0 km/h
1545 20-08-2010 21:11:01 23.4 C 9.25 g/m*3 23.4 C 0 km/h
1546 20-08-2010 21:23:01 23.3 C 9.41 g/m*3 23.3 C 0 km/h
1547 20-08-2010 21:35:01 23.2 C 9.56 g/m*3 23.2 C 0 km/h
1548 20-08-2010 21:47:02 22.9 C 9.81 g/m*3 22.9 C 0 km/h
1549 20-08-2010 21:59:02 22.6 C 9.84 g/m*3 22.6 C 0 km/h
1550 20-08-2010 22:11:02 22.5 C 9.99 g/m*3 22.5 C 0 km/h
Sensor: Nr:Datum:Temp:Abs-Feuchte:Windchill:Wind:
Aussen-T/F 1551 20-08-2010 22:23:03 22.1 C 9.96 g/m*3 22.1 C 0 km/h
1552 20-08-2010 22:35:02 21.9 C 10.42 g/m*3 21.9 C 0 km/h
1553 20-08-2010 22:48:02 21.6 C 10.43 g/m*3 21.6 C 0 km/h
1554 20-08-2010 23:00:02 21.4 C 10.5 g/m*3 21.4 C 0 km/h
1555 20-08-2010 23:12:02 21.1 C 10.69 g/m*3 21.1 C 0 km/h
1556 20-08-2010 23:24:02 20.9 C 10.75 g/m*3 20.9 C 0 km/h
1557 20-08-2010 23:36:02 20.7 C 10.62 g/m*3 20.7 C 0 km/h
1558 20-08-2010 23:48:02 20.4 C 10.61 g/m*3 20.4 C 0 km/h
1559 21-08-2010 00:00:02 20.2 C 10.67 g/m*3 20.2 C 0 km/h
1560 21-08-2010 00:12:02 20 C 10.71 g/m*3 20 C 0 km/h
1561 21-08-2010 00:24:02 19.7 C 10.7 g/m*3 19.7 C 0 km/h
1562 21-08-2010 00:36:02 19.6 C 10.8 g/m*3 19.6 C 0 km/h
1563 21-08-2010 00:48:02 19.3 C 10.95 g/m*3 19.3 C 0 km/h
1564 21-08-2010 01:00:02 19.1 C 10.98 g/m*3 19.1 C 0 km/h
1565 21-08-2010 01:12:02 19 C 10.92 g/m*3 19 C 0 km/h
1566 21-08-2010 01:24:02 18.8 C 11.11 g/m*3 18.8 C 0 km/h
1567 21-08-2010 01:36:02 18.7 C 11.05 g/m*3 18.7 C 0 km/h
1568 21-08-2010 01:48:02 18.6 C 10.98 g/m*3 18.6 C 0 km/h
1569 21-08-2010 02:00:02 18.4 C 11.01 g/m*3 18.4 C 0 km/h
1570 21-08-2010 02:12:02 18.2 C 11.04 g/m*3 18.2 C 0 km/h
1571 21-08-2010 02:24:03 18.1 C 10.97 g/m*3 18.1 C 0 km/h
1572 21-08-2010 02:36:03 18.1 C 11.12 g/m*3 18.1 C 0 km/h
1573 21-08-2010 02:48:03 18 C 11.06 g/m*3 18 C 0 km/h
1574 21-08-2010 03:00:03 17.9 C 11.15 g/m*3 17.9 C 0 km/h
1575 21-08-2010 03:12:03 17.8 C 11.08 g/m*3 17.8 C 0 km/h
Sensor: Nr:Datum:Temp:Abs-Feuchte:Windchill:Wind:
Aussen-T/F 1576 21-08-2010 03:24:03 17.7 C 11.16 g/m*3 17.7 C 0 km/h
1577 21-08-2010 03:36:03 17.5 C 11.03 g/m*3 17.5 C 0 km/h
1578 21-08-2010 03:48:03 17.4 C 11.12 g/m*3 17.4 C 0 km/h
1579 21-08-2010 04:00:03 17.3 C 11.2 g/m*3 17.3 C 0 km/h
1580 21-08-2010 04:12:03 17.2 C 11.13 g/m*3 17.2 C 0 km/h
1581 21-08-2010 04:24:03 17.1 C 11.06 g/m*3 17.1 C 0 km/h
1582 21-08-2010 04:36:03 16.9 C 11.08 g/m*3 16.9 C 0 km/h
1583 21-08-2010 04:48:03 16.8 C 11.15 g/m*3 16.8 C 0 km/h
1584 21-08-2010 05:00:03 16.7 C 11.08 g/m*3 16.7 C 0 km/h
1585 21-08-2010 05:12:03 16.5 C 10.95 g/m*3 16.5 C 0 km/h
1586 21-08-2010 05:24:03 16.5 C 10.95 g/m*3 16.5 C 0 km/h
1587 21-08-2010 05:36:03 16.3 C 10.82 g/m*3 16.3 C 0 km/h
1588 21-08-2010 05:48:03 16.3 C 10.96 g/m*3 16.3 C 0 km/h
1589 21-08-2010 06:00:03 16.2 C 10.89 g/m*3 16.2 C 0 km/h
1590 21-08-2010 06:12:03 16.1 C 10.83 g/m*3 16.1 C 0 km/h
1591 21-08-2010 06:24:04 16 C 10.9 g/m*3 16 C 0 km/h
1592 21-08-2010 06:36:04 16 C 10.9 g/m*3 16 C 0 km/h
1593 21-08-2010 06:48:04 15.9 C 10.97 g/m*3 15.9 C 0 km/h
1594 21-08-2010 07:00:04 15.8 C 10.9 g/m*3 15.8 C 0 km/h
1595 21-08-2010 07:12:04 15.9 C 11.1 g/m*3 15.9 C 0 km/h
1596 21-08-2010 07:24:04 16 C 11.04 g/m*3 16 C 0 km/h
1597 21-08-2010 07:36:04 16.1 C 11.1 g/m*3 16.1 C 0 km/h
1598 21-08-2010 07:48:04 16.2 C 11.17 g/m*3 16.2 C 0 km/h
1599 21-08-2010 08:00:04 16.4 C 11.31 g/m*3 16.4 C 0 km/h
1600 21-08-2010 08:12:02 16.6 C 11.58 g/m*3 16.6 C 0 km/h
Sensor: Nr:Datum:Temp:Abs-Feuchte:Windchill:Wind:
Aussen-T/F 1601 21-08-2010 08:24:02 16.7 C 11.51 g/m*3 16.7 C 0 km/h
1602 21-08-2010 08:36:02 17 C 11.58 g/m*3 17 C 0 km/h
1603 21-08-2010 08:48:01 17.2 C 11.72 g/m*3 17.2 C 0 km/h
1604 21-08-2010 09:00:01 17.5 C 11.78 g/m*3 17.5 C 0 km/h
1605 21-08-2010 09:12:02 17.9 C 12.06 g/m*3 17.9 C 0 km/h
1606 21-08-2010 09:24:02 18.4 C 12.27 g/m*3 18.4 C 0 km/h
1607 21-08-2010 09:36:01 18.9 C 12.47 g/m*3 18.9 C 0 km/h
1608 21-08-2010 09:48:02 19.4 C 12.51 g/m*3 19.4 C 0 km/h
1609 21-08-2010 10:00:02 20.2 C 12.76 g/m*3 20.2 C 0 km/h
1610 21-08-2010 10:12:02 20.8 C 12.86 g/m*3 20.8 C 0 km/h
1611 21-08-2010 10:24:02 21.3 C 12.86 g/m*3 21.3 C 0 km/h
1612 21-08-2010 10:36:01 22 C 12.81 g/m*3 22 C 0 km/h
1613 21-08-2010 10:48:02 22.7 C 12.93 g/m*3 22.7 C 0 km/h
1614 21-08-2010 11:00:02 23.3 C 12.96 g/m*3 23.3 C 0 km/h
1615 21-08-2010 11:12:01 24 C 12.84 g/m*3 24 C 0 km/h
1616 21-08-2010 11:24:02 24.7 C 12.68 g/m*3 24.7 C 0 km/h
1617 21-08-2010 11:36:02 25.5 C 11.6 g/m*3 25.5 C 0 km/h
1618 21-08-2010 11:48:01 26.3 C 10.4 g/m*3 26.3 C 0 km/h
1619 21-08-2010 12:00:01 26.8 C 9.93 g/m*3 26.8 C 0 km/h
1620 21-08-2010 12:12:01 27.2 C 9.89 g/m*3 27.2 C 0 km/h
1621 21-08-2010 12:24:01 27.7 C 9.9 g/m*3 27.7 C 0 km/h
1622 21-08-2010 12:36:01 27.9 C 10.01 g/m*3 27.9 C 0 km/h
1623 21-08-2010 12:48:02 28.1 C 9.3 g/m*3 28.1 C 0 km/h
1624 21-08-2010 13:00:02 28.4 C 9.73 g/m*3 28.4 C 0 km/h
1625 21-08-2010 13:12:02 28.8 C 9.38 g/m*3 28.8 C 0 km/h
Sensor: Nr:Datum:Temp:Abs-Feuchte:Windchill:Wind:
Aussen-T/F 1626 21-08-2010 13:24:01 29.2 C 9 g/m*3 29.2 C 0 km/h
1627 21-08-2010 13:36:02 29.5 C 8.85 g/m*3 29.5 C 0 km/h
1628 21-08-2010 13:48:01 29.7 C 8.95 g/m*3 29.7 C 0 km/h
1629 21-08-2010 14:00:01 29.9 C 9.05 g/m*3 29.9 C 0 km/h
1630 21-08-2010 14:12:02 30.3 C 8.94 g/m*3 30.3 C 0 km/h
1631 21-08-2010 14:24:01 30.3 C 8.63 g/m*3 30.3 C 0 km/h
1632 21-08-2010 14:36:02 30.6 C 8.46 g/m*3 30.6 C 0 km/h
1633 21-08-2010 14:48:01 31 C 8.32 g/m*3 31 C 0 km/h
1634 21-08-2010 15:00:01 30.8 C 8.55 g/m*3 30.8 C 0 km/h
1635 21-08-2010 15:12:02 31.4 C 8.83 g/m*3 31.4 C 0 km/h
1636 21-08-2010 15:24:02 31.4 C 8.17 g/m*3 31.4 C 0 km/h
1637 21-08-2010 15:36:02 31.2 C 9.06 g/m*3 31.2 C 0 km/h
1638 21-08-2010 15:48:02 31.6 C 7.93 g/m*3 31.6 C 0 km/h
1639 21-08-2010 16:00:02 32.1 C 7.81 g/m*3 32.1 C 0 km/h
1640 21-08-2010 16:12:02 32.2 C 7.51 g/m*3 32.2 C 0 km/h
1641 21-08-2010 16:24:02 32.5 C 7.28 g/m*3 32.5 C 0 km/h
1642 21-08-2010 16:36:01 32.1 C 7.81 g/m*3 32.1 C 0 km/h
1643 21-08-2010 16:48:02 31.8 C 9.02 g/m*3 31.8 C 0 km/h
1644 21-08-2010 17:00:02 32.1 C 8.15 g/m*3 32.1 C 0 km/h
1645 21-08-2010 17:12:01 32.4 C 7.59 g/m*3 32.4 C 0 km/h
1646 21-08-2010 17:24:02 32.3 C 7.55 g/m*3 32.3 C 0 km/h
1647 21-08-2010 17:36:02 32.8 C 7.4 g/m*3 32.8 C 0 km/h
1648 21-08-2010 17:48:02 32.3 C 7.2 g/m*3 32.3 C 0 km/h
1649 21-08-2010 18:00:02 32.6 C 7.32 g/m*3 32.6 C 0 km/h
1650 21-08-2010 18:12:02 32.5 C 7.63 g/m*3 32.5 C 0 km/h
Sensor: Nr:Datum:Temp:Abs-Feuchte:Windchill:Wind:
Aussen-T/F 1651 21-08-2010 18:24:02 32.7 C 7.36 g/m*3 32.7 C 0 km/h
1652 21-08-2010 18:36:02 32.3 C 7.55 g/m*3 32.3 C 0 km/h
1653 21-08-2010 18:48:02 32 C 7.09 g/m*3 32 C 0 km/h
1654 21-08-2010 19:00:02 31.9 C 7.05 g/m*3 31.9 C 0 km/h
1655 21-08-2010 19:12:02 32 C 7.76 g/m*3 32 C 0 km/h
1656 21-08-2010 19:24:01 31.7 C 7.64 g/m*3 31.7 C 0 km/h
1657 21-08-2010 19:36:02 31.5 C 8.22 g/m*3 31.5 C 0 km/h
1658 21-08-2010 19:48:02 31.2 C 9.06 g/m*3 31.2 C 0 km/h
1659 21-08-2010 20:00:02 30.6 C 8.46 g/m*3 30.6 C 0 km/h
1660 21-08-2010 20:12:02 30 C 9.4 g/m*3 30 C 0 km/h
1661 21-08-2010 20:24:01 28.5 C 9.22 g/m*3 28.5 C 0 km/h
1662 21-08-2010 20:36:02 28.1 C 9.57 g/m*3 28.1 C 0 km/h
1663 21-08-2010 20:48:02 26.9 C 9.73 g/m*3 26.9 C 0 km/h
1664 21-08-2010 21:00:02 26.5 C 10.01 g/m*3 26.5 C 0 km/h
1665 21-08-2010 21:12:02 26.2 C 10.09 g/m*3 26.2 C 0 km/h
1666 21-08-2010 21:24:02 25.8 C 10.35 g/m*3 25.8 C 0 km/h
1667 21-08-2010 21:36:02 25.3 C 10.3 g/m*3 25.3 C 0 km/h
1668 21-08-2010 21:48:02 24.8 C 10.47 g/m*3 24.8 C 0 km/h
1669 21-08-2010 22:00:02 24.8 C 10.7 g/m*3 24.8 C 0 km/h
1670 21-08-2010 22:12:02 24.5 C 10.74 g/m*3 24.5 C 0 km/h
1671 21-08-2010 22:24:02 24.4 C 10.9 g/m*3 24.4 C 0 km/h
1672 21-08-2010 22:36:02 24.1 C 10.94 g/m*3 24.1 C 0 km/h
1673 21-08-2010 22:48:01 23.9 C 11.03 g/m*3 23.9 C 0 km/h
1674 21-08-2010 23:00:01 23.6 C 10.85 g/m*3 23.6 C 0 km/h
1675 21-08-2010 23:12:02 23.4 C 11.35 g/m*3 23.4 C 0 km/h
Sensor: Nr:Datum:Temp:Abs-Feuchte:Windchill:Wind:
Aussen-T/F 1676 21-08-2010 23:24:01 23.3 C 11.08 g/m*3 23.3 C 0 km/h
1677 21-08-2010 23:36:02 22.9 C 11.44 g/m*3 22.9 C 0 km/h
1678 21-08-2010 23:48:01 22.6 C 11.45 g/m*3 22.6 C 0 km/h
1679 22-08-2010 00:00:01 22.3 C 11.26 g/m*3 22.3 C 0 km/h
1680 22-08-2010 00:13:04 22.3 C 11.45 g/m*3 22.3 C 0 km/h
1681 22-08-2010 00:25:04 22 C 11.45 g/m*3 22 C 0 km/h
1682 22-08-2010 00:37:04 21.8 C 11.51 g/m*3 21.8 C 0 km/h
1683 22-08-2010 00:49:04 21.6 C 11.57 g/m*3 21.6 C 0 km/h
1684 22-08-2010 01:01:04 21.5 C 11.69 g/m*3 21.5 C 0 km/h
1685 22-08-2010 01:13:04 21.2 C 11.49 g/m*3 21.2 C 0 km/h
1686 22-08-2010 01:25:04 21 C 11.54 g/m*3 21 C 0 km/h
1687 22-08-2010 01:37:04 20.9 C 11.84 g/m*3 20.9 C 0 km/h
1688 22-08-2010 01:49:04 20.6 C 11.81 g/m*3 20.6 C 0 km/h
1689 22-08-2010 02:01:05 20.5 C 11.74 g/m*3 20.5 C 0 km/h
1690 22-08-2010 02:13:05 20.4 C 11.85 g/m*3 20.4 C 0 km/h
1691 22-08-2010 02:25:05 20.1 C 11.82 g/m*3 20.1 C 0 km/h
1692 22-08-2010 02:37:05 19.9 C 12.03 g/m*3 19.9 C 0 km/h
1693 22-08-2010 02:49:05 19.8 C 11.96 g/m*3 19.8 C 0 km/h
1694 22-08-2010 03:01:05 19.7 C 12.06 g/m*3 19.7 C 0 km/h
1695 22-08-2010 03:13:05 19.7 C 12.23 g/m*3 19.7 C 0 km/h
1696 22-08-2010 03:25:05 19.5 C 12.08 g/m*3 19.5 C 0 km/h
1697 22-08-2010 03:37:05 19.3 C 11.94 g/m*3 19.3 C 0 km/h
1698 22-08-2010 03:49:05 19.4 C 12.18 g/m*3 19.4 C 0 km/h
1699 22-08-2010 04:01:05 19.3 C 12.11 g/m*3 19.3 C 0 km/h
1700 22-08-2010 04:13:05 19.3 C 12.27 g/m*3 19.3 C 0 km/h
Sensor: Nr:Datum:Temp:Abs-Feuchte:Windchill:Wind:
Aussen-T/F 1701 22-08-2010 04:25:05 19.2 C 12.04 g/m*3 19.2 C 0 km/h
1702 22-08-2010 04:37:05 19.1 C 11.97 g/m*3 19.1 C 0 km/h
1703 22-08-2010 04:49:05 18.9 C 12.15 g/m*3 18.9 C 0 km/h
1704 22-08-2010 05:01:05 18.8 C 12.08 g/m*3 18.8 C 0 km/h
1705 22-08-2010 05:13:05 18.6 C 11.94 g/m*3 18.6 C 0 km/h
1706 22-08-2010 05:25:05 18.5 C 12.18 g/m*3 18.5 C 0 km/h
1707 22-08-2010 05:37:05 18.5 C 12.18 g/m*3 18.5 C 0 km/h
1708 22-08-2010 05:49:05 18.3 C 12.04 g/m*3 18.3 C 0 km/h
1709 22-08-2010 06:01:06 18.1 C 12.05 g/m*3 18.1 C 0 km/h
1710 22-08-2010 06:13:06 18 C 11.98 g/m*3 18 C 0 km/h
1711 22-08-2010 06:25:06 18 C 11.98 g/m*3 18 C 0 km/h
1712 22-08-2010 06:37:06 17.9 C 12.06 g/m*3 17.9 C 0 km/h
1713 22-08-2010 06:49:06 18 C 11.98 g/m*3 18 C 0 km/h
1714 22-08-2010 07:01:06 18 C 11.98 g/m*3 18 C 0 km/h
1715 22-08-2010 07:13:06 18.1 C 12.05 g/m*3 18.1 C 0 km/h
1716 22-08-2010 07:25:06 18.1 C 12.05 g/m*3 18.1 C 0 km/h
1717 22-08-2010 07:37:06 18.5 C 12.34 g/m*3 18.5 C 0 km/h
1718 22-08-2010 07:49:06 18.8 C 12.56 g/m*3 18.8 C 0 km/h
1719 22-08-2010 08:01:06 18.9 C 12.47 g/m*3 18.9 C 0 km/h
1720 22-08-2010 08:13:06 18.7 C 12.49 g/m*3 18.7 C 0 km/h
1721 22-08-2010 08:25:06 18.8 C 12.72 g/m*3 18.8 C 0 km/h
1722 22-08-2010 08:37:06 19.1 C 12.79 g/m*3 19.1 C 0 km/h
1723 22-08-2010 08:49:01 19.3 C 12.61 g/m*3 19.3 C 0 km/h
1724 22-08-2010 09:01:01 19.4 C 12.51 g/m*3 19.4 C 0 km/h
1725 22-08-2010 09:13:01 20 C 12.62 g/m*3 20 C 0 km/h
Sensor: Nr:Datum:Temp:Abs-Feuchte:Windchill:Wind:
Aussen-T/F 1726 22-08-2010 09:25:02 20.3 C 12.66 g/m*3 20.3 C 0 km/h
1727 22-08-2010 09:37:01 20.6 C 12.71 g/m*3 20.6 C 0 km/h
1728 22-08-2010 09:49:01 21.3 C 12.68 g/m*3 21.3 C 0 km/h
1729 22-08-2010 10:01:01 21.6 C 12.71 g/m*3 21.6 C 0 km/h
1730 22-08-2010 10:13:01 22.2 C 12.37 g/m*3 22.2 C 0 km/h
1731 22-08-2010 10:25:02 23.7 C 13.05 g/m*3 23.7 C 0 km/h
1732 22-08-2010 10:37:01 24.2 C 12.32 g/m*3 24.2 C 0 km/h
1733 22-08-2010 10:49:03 23.8 C 12.91 g/m*3 23.8 C 0 km/h
1734 22-08-2010 11:01:02 23.8 C 12.91 g/m*3 23.8 C 0 km/h
1735 22-08-2010 11:13:02 24.1 C 12.91 g/m*3 24.1 C 0 km/h
1736 22-08-2010 11:25:02 25 C 12.2 g/m*3 25 C 0 km/h
1737 22-08-2010 11:37:02 25.5 C 13.26 g/m*3 25.5 C 0 km/h
1738 22-08-2010 11:49:02 26 C 12.17 g/m*3 26 C 0 km/h
1739 22-08-2010 12:01:01 26.7 C 12.15 g/m*3 26.7 C 0 km/h
1740 22-08-2010 12:13:01 27.3 C 12.04 g/m*3 27.3 C 0 km/h
1741 22-08-2010 12:25:02 27.9 C 11.63 g/m*3 27.9 C 0 km/h
1742 22-08-2010 12:37:02 27.6 C 11.17 g/m*3 27.6 C 0 km/h
1743 22-08-2010 12:49:02 27.8 C 11.3 g/m*3 27.8 C 0 km/h
1744 22-08-2010 13:01:03 27.7 C 11.23 g/m*3 27.7 C 0 km/h
1745 22-08-2010 13:13:03 28 C 11.15 g/m*3 28 C 0 km/h
1746 22-08-2010 13:25:02 28.7 C 10.17 g/m*3 28.7 C 0 km/h
1747 22-08-2010 13:37:02 28.9 C 10.28 g/m*3 28.9 C 0 km/h
1748 22-08-2010 13:49:02 28.9 C 9.71 g/m*3 28.9 C 0 km/h
1749 22-08-2010 14:01:02 29.6 C 10.68 g/m*3 29.6 C 0 km/h
1750 22-08-2010 14:13:02 29.7 C 10.14 g/m*3 29.7 C 0 km/h
Sensor: Nr:Datum:Temp:Abs-Feuchte:Windchill:Wind:
Aussen-T/F 1751 22-08-2010 14:25:01 29.6 C 10.39 g/m*3 29.6 C 0 km/h
1752 22-08-2010 14:37:02 27.7 C 10.43 g/m*3 27.7 C 0 km/h
1753 22-08-2010 14:49:02 27.1 C 10.61 g/m*3 27.1 C 0 km/h
1754 22-08-2010 15:01:02 26 C 11.2 g/m*3 26 C 0 km/h
1755 22-08-2010 15:13:03 25.9 C 11.62 g/m*3 25.9 C 0 km/h
1756 22-08-2010 15:25:01 25.4 C 12.24 g/m*3 25.4 C 0 km/h
1757 22-08-2010 15:37:02 25.1 C 13.2 g/m*3 25.1 C 0 km/h
1758 22-08-2010 15:49:01 26.4 C 12.7 g/m*3 26.4 C 0 km/h
1759 22-08-2010 16:01:02 27.7 C 11.77 g/m*3 27.7 C 0 km/h
1760 22-08-2010 16:13:02 27.9 C 11.63 g/m*3 27.9 C 0 km/h
1761 22-08-2010 16:25:02 27.9 C 12.17 g/m*3 27.9 C 0 km/h
1762 22-08-2010 16:37:02 28 C 11.97 g/m*3 28 C 0 km/h
1763 22-08-2010 16:49:01 27.5 C 11.91 g/m*3 27.5 C 0 km/h
1764 22-08-2010 17:01:02 27 C 12.1 g/m*3 27 C 0 km/h
1765 22-08-2010 17:13:02 26.8 C 12.22 g/m*3 26.8 C 0 km/h
1766 22-08-2010 17:25:02 26.7 C 12.66 g/m*3 26.7 C 0 km/h
1767 22-08-2010 17:37:02 26.4 C 11.45 g/m*3 26.4 C 0 km/h
1768 22-08-2010 17:49:02 26.5 C 11.01 g/m*3 26.5 C 0 km/h
1769 22-08-2010 18:01:01 26.4 C 10.7 g/m*3 26.4 C 0 km/h
1770 22-08-2010 18:13:01 26.6 C 11.08 g/m*3 26.6 C 0 km/h
1771 22-08-2010 18:25:02 26.5 C 12.02 g/m*3 26.5 C 0 km/h
1772 22-08-2010 18:37:01 26 C 12.17 g/m*3 26 C 0 km/h
1773 22-08-2010 18:49:02 25.9 C 12.59 g/m*3 25.9 C 0 km/h
1774 22-08-2010 19:01:01 25.9 C 12.59 g/m*3 25.9 C 0 km/h
1775 22-08-2010 19:13:01 26.2 C 12.31 g/m*3 26.2 C 0 km/h
Sensor: Nr:Datum:Temp:Abs-Feuchte:Windchill:Wind:
Aussen-T/F 1776 22-08-2010 19:25:01 25.6 C 11.67 g/m*3 25.6 C 0 km/h
1777 22-08-2010 19:37:02 25.3 C 10.53 g/m*3 25.3 C 0 km/h
1778 22-08-2010 19:49:02 24.6 C 10.8 g/m*3 24.6 C 0 km/h
1779 22-08-2010 20:01:02 24.6 C 10.8 g/m*3 24.6 C 0 km/h
1780 22-08-2010 20:13:02 24.6 C 10.58 g/m*3 24.6 C 0 km/h
1781 22-08-2010 20:25:02 24.5 C 10.52 g/m*3 24.5 C 0 km/h
1782 22-08-2010 20:37:02 24.3 C 10.62 g/m*3 24.3 C 0 km/h
1783 22-08-2010 20:49:02 24.1 C 10.72 g/m*3 24.1 C 0 km/h
1784 22-08-2010 21:01:01 23.8 C 11.19 g/m*3 23.8 C 0 km/h
1785 22-08-2010 21:13:01 23.2 C 11.23 g/m*3 23.2 C 0 km/h
1786 22-08-2010 21:25:01 22.9 C 11.44 g/m*3 22.9 C 0 km/h
1787 22-08-2010 21:37:02 22.9 C 11.85 g/m*3 22.9 C 0 km/h
1788 22-08-2010 21:49:02 23 C 11.72 g/m*3 23 C 0 km/h
1789 22-08-2010 22:01:02 23.2 C 11.64 g/m*3 23.2 C 0 km/h
1790 22-08-2010 22:13:02 22.9 C 11.44 g/m*3 22.9 C 0 km/h
1791 22-08-2010 22:25:02 22.6 C 11.65 g/m*3 22.6 C 0 km/h
1792 22-08-2010 22:38:03 22.5 C 11.98 g/m*3 22.5 C 0 km/h
1793 22-08-2010 22:50:03 22.1 C 11.71 g/m*3 22.1 C 0 km/h
1794 22-08-2010 23:02:03 21.8 C 11.9 g/m*3 21.8 C 0 km/h
1795 22-08-2010 23:14:03 21.6 C 11.95 g/m*3 21.6 C 0 km/h
1796 22-08-2010 23:26:03 21.6 C 11.95 g/m*3 21.6 C 0 km/h
1797 22-08-2010 23:38:03 21.4 C 11.81 g/m*3 21.4 C 0 km/h
1798 22-08-2010 23:50:03 21.2 C 11.86 g/m*3 21.2 C 0 km/h
1799 23-08-2010 00:02:03 21.1 C 11.98 g/m*3 21.1 C 0 km/h
1800 23-08-2010 00:14:03 20.9 C 12.02 g/m*3 20.9 C 0 km/h
Sensor: Nr:Datum:Temp:Abs-Feuchte:Windchill:Wind:
Aussen-T/F 1801 23-08-2010 00:26:03 20.9 C 12.02 g/m*3 20.9 C 0 km/h
1802 23-08-2010 00:38:03 20.8 C 11.95 g/m*3 20.8 C 0 km/h
1803 23-08-2010 00:50:03 20.7 C 12.06 g/m*3 20.7 C 0 km/h
1804 23-08-2010 01:02:03 20.4 C 12.03 g/m*3 20.4 C 0 km/h
1805 23-08-2010 01:14:03 20.3 C 12.31 g/m*3 20.3 C 0 km/h
1806 23-08-2010 01:26:03 20.3 C 12.14 g/m*3 20.3 C 0 km/h
1807 23-08-2010 01:38:03 20.4 C 12.21 g/m*3 20.4 C 0 km/h
1808 23-08-2010 01:50:03 20.5 C 12.1 g/m*3 20.5 C 0 km/h
1809 23-08-2010 02:02:03 20.4 C 12.21 g/m*3 20.4 C 0 km/h
1810 23-08-2010 02:14:03 20.2 C 12.24 g/m*3 20.2 C 0 km/h
1811 23-08-2010 02:26:03 19.8 C 12.3 g/m*3 19.8 C 0 km/h
1812 23-08-2010 02:38:03 19.8 C 12.47 g/m*3 19.8 C 0 km/h
1813 23-08-2010 02:50:04 19.9 C 12.37 g/m*3 19.9 C 0 km/h
1814 23-08-2010 03:02:04 19.9 C 12.2 g/m*3 19.9 C 0 km/h
1815 23-08-2010 03:14:04 19.9 C 12.37 g/m*3 19.9 C 0 km/h
1816 23-08-2010 03:26:04 19.9 C 12.37 g/m*3 19.9 C 0 km/h
1817 23-08-2010 03:38:04 19.7 C 12.23 g/m*3 19.7 C 0 km/h
1818 23-08-2010 03:50:04 19.7 C 12.4 g/m*3 19.7 C 0 km/h
1819 23-08-2010 04:02:04 19.6 C 12.32 g/m*3 19.6 C 0 km/h
1820 23-08-2010 04:14:04 19.5 C 12.25 g/m*3 19.5 C 0 km/h
1821 23-08-2010 04:26:04 19.5 C 12.42 g/m*3 19.5 C 0 km/h
1822 23-08-2010 04:38:04 19.5 C 12.42 g/m*3 19.5 C 0 km/h
1823 23-08-2010 04:50:04 19.5 C 12.25 g/m*3 19.5 C 0 km/h
1824 23-08-2010 05:02:04 19.5 C 12.25 g/m*3 19.5 C 0 km/h
1825 23-08-2010 05:14:04 19.4 C 12.18 g/m*3 19.4 C 0 km/h
Sensor: Nr:Datum:Temp:Abs-Feuchte:Windchill:Wind:
Aussen-T/F 1826 23-08-2010 05:26:04 19.5 C 12.25 g/m*3 19.5 C 0 km/h
1827 23-08-2010 05:38:04 19.4 C 12.18 g/m*3 19.4 C 0 km/h
1828 23-08-2010 05:50:04 19.4 C 12.18 g/m*3 19.4 C 0 km/h
1829 23-08-2010 06:02:04 19.5 C 12.42 g/m*3 19.5 C 0 km/h
1830 23-08-2010 06:14:04 19.5 C 12.42 g/m*3 19.5 C 0 km/h
1831 23-08-2010 06:26:04 19.4 C 12.35 g/m*3 19.4 C 0 km/h
1832 23-08-2010 06:38:03 19.5 C 12.25 g/m*3 19.5 C 0 km/h
1833 23-08-2010 06:50:02 19.5 C 12.25 g/m*3 19.5 C 0 km/h
1834 23-08-2010 07:02:02 19.3 C 12.27 g/m*3 19.3 C 0 km/h
1835 23-08-2010 07:14:03 19.5 C 12.59 g/m*3 19.5 C 0 km/h
1836 23-08-2010 07:26:02 19.9 C 12.71 g/m*3 19.9 C 0 km/h
1837 23-08-2010 07:38:02 20.4 C 12.38 g/m*3 20.4 C 0 km/h
1838 23-08-2010 07:50:02 20.5 C 12.46 g/m*3 20.5 C 0 km/h
1839 23-08-2010 08:02:02 20.6 C 12.71 g/m*3 20.6 C 0 km/h
1840 23-08-2010 08:14:02 20.4 C 12.74 g/m*3 20.4 C 0 km/h
1841 23-08-2010 08:26:01 19.5 C 13.26 g/m*3 19.5 C 0 km/h
1842 23-08-2010 08:38:02 19.1 C 13.77 g/m*3 19.1 C 0 km/h
1843 23-08-2010 08:50:02 19.1 C 13.93 g/m*3 19.1 C 0 km/h
1844 23-08-2010 09:02:01 19.3 C 14.26 g/m*3 19.3 C 0 km/h
1845 23-08-2010 09:14:01 19.4 C 14.52 g/m*3 19.4 C 0 km/h
1846 23-08-2010 09:26:02 19.4 C 14.52 g/m*3 19.4 C 0 km/h
1847 23-08-2010 09:38:01 19.4 C 14.52 g/m*3 19.4 C 0 km/h
1848 23-08-2010 09:50:02 19.7 C 14.77 g/m*3 19.7 C 0 km/h
1849 23-08-2010 10:02:01 20 C 14.86 g/m*3 20 C 0 km/h
1850 23-08-2010 10:14:01 20.4 C 15.21 g/m*3 20.4 C 0 km/h
Sensor: Nr:Datum:Temp:Abs-Feuchte:Windchill:Wind:
Aussen-T/F 1851 23-08-2010 10:26:01 20.7 C 15.12 g/m*3 20.7 C 0 km/h
1852 23-08-2010 10:38:02 20.9 C 15.12 g/m*3 20.9 C 0 km/h
1853 23-08-2010 10:50:02 21.2 C 15.01 g/m*3 21.2 C 0 km/h
1854 23-08-2010 11:02:02 21.4 C 15 g/m*3 21.4 C 0 km/h
1855 23-08-2010 11:14:02 21.7 C 14.69 g/m*3 21.7 C 0 km/h
1856 23-08-2010 11:26:02 22.5 C 14.58 g/m*3 22.5 C 0 km/h
1857 23-08-2010 11:38:02 22.8 C 14.63 g/m*3 22.8 C 0 km/h
1858 23-08-2010 11:50:02 22.9 C 14.92 g/m*3 22.9 C 0 km/h
1859 23-08-2010 12:02:02 22.5 C 14.78 g/m*3 22.5 C 0 km/h
1860 23-08-2010 12:14:02 22.7 C 15.36 g/m*3 22.7 C 0 km/h
1861 23-08-2010 12:26:02 23.3 C 16.1 g/m*3 23.3 C 0 km/h
1862 23-08-2010 12:38:02 23.4 C 15.98 g/m*3 23.4 C 0 km/h
1863 23-08-2010 12:50:01 23.5 C 15.86 g/m*3 23.5 C 0 km/h
1864 23-08-2010 13:02:02 24.2 C 15.18 g/m*3 24.2 C 0 km/h
1865 23-08-2010 13:14:02 24.9 C 14.42 g/m*3 24.9 C 0 km/h
1866 23-08-2010 13:26:01 24 C 13.49 g/m*3 24 C 0 km/h
1867 23-08-2010 13:38:01 23.1 C 13.85 g/m*3 23.1 C 0 km/h
1868 23-08-2010 13:50:01 22.2 C 14.72 g/m*3 22.2 C 0 km/h
1869 23-08-2010 14:02:01 21.9 C 14.86 g/m*3 21.9 C 0 km/h
1870 23-08-2010 14:14:01 23.3 C 14.84 g/m*3 23.3 C 0 km/h
1871 23-08-2010 14:26:01 24.8 C 14.11 g/m*3 24.8 C 0 km/h
1872 23-08-2010 14:38:01 25.8 C 13.72 g/m*3 25.8 C 0 km/h
1873 23-08-2010 14:50:01 25.9 C 13.32 g/m*3 25.9 C 0 km/h
1874 23-08-2010 15:02:01 25.9 C 13.07 g/m*3 25.9 C 0 km/h
1875 23-08-2010 15:14:01 25.9 C 12.59 g/m*3 25.9 C 0 km/h
Sensor: Nr:Datum:Temp:Abs-Feuchte:Windchill:Wind:
Aussen-T/F 1876 23-08-2010 15:26:02 26.3 C 12.13 g/m*3 26.3 C 0 km/h
1877 23-08-2010 15:38:01 25.9 C 11.86 g/m*3 25.9 C 0 km/h
1878 23-08-2010 15:50:03 25.3 C 11.94 g/m*3 25.3 C 0 km/h
1879 23-08-2010 16:02:02 25.9 C 11.38 g/m*3 25.9 C 0 km/h
1880 23-08-2010 16:14:02 26.7 C 11.14 g/m*3 26.7 C 0 km/h
1881 23-08-2010 16:26:02 26.6 C 11.33 g/m*3 26.6 C 0 km/h
1882 23-08-2010 16:38:02 25.5 C 11.6 g/m*3 25.5 C 0 km/h
1883 23-08-2010 16:50:02 25 C 11.51 g/m*3 25 C 0 km/h
1884 23-08-2010 17:02:01 25.2 C 10.94 g/m*3 25.2 C 0 km/h
1885 23-08-2010 17:14:01 24.6 C 11.25 g/m*3 24.6 C 0 km/h
1886 23-08-2010 17:26:02 23.3 C 11.92 g/m*3 23.3 C 0 km/h
1887 23-08-2010 17:38:02 22.7 C 12.53 g/m*3 22.7 C 0 km/h
1888 23-08-2010 17:50:02 22.1 C 12.88 g/m*3 22.1 C 0 km/h
1889 23-08-2010 18:02:01 21.9 C 13.31 g/m*3 21.9 C 0 km/h
1890 23-08-2010 18:14:01 21.6 C 13.47 g/m*3 21.6 C 0 km/h
1891 23-08-2010 18:26:01 21 C 13.74 g/m*3 21 C 0 km/h
1892 23-08-2010 18:38:02 20.7 C 14.22 g/m*3 20.7 C 0 km/h
1893 23-08-2010 18:50:02 20.4 C 13.98 g/m*3 20.4 C 0 km/h
1894 23-08-2010 19:02:02 20.8 C 14.3 g/m*3 20.8 C 0 km/h
1895 23-08-2010 19:14:02 20.9 C 13.84 g/m*3 20.9 C 0 km/h
1896 23-08-2010 19:26:02 20.8 C 13.76 g/m*3 20.8 C 0 km/h
1897 23-08-2010 19:38:02 20.7 C 13.5 g/m*3 20.7 C 0 km/h
1898 23-08-2010 19:50:02 20.6 C 13.42 g/m*3 20.6 C 0 km/h
1899 23-08-2010 20:02:02 20.5 C 13.17 g/m*3 20.5 C 0 km/h
1900 23-08-2010 20:14:02 20.4 C 13.09 g/m*3 20.4 C 0 km/h
Sensor: Nr:Datum:Temp:Abs-Feuchte:Windchill:Wind:
Aussen-T/F 1901 23-08-2010 20:26:02 20.4 C 12.91 g/m*3 20.4 C 0 km/h
1902 23-08-2010 20:38:02 20.3 C 12.84 g/m*3 20.3 C 0 km/h
1903 23-08-2010 20:50:02 20.1 C 12.69 g/m*3 20.1 C 0 km/h
1904 23-08-2010 21:02:02 20 C 12.62 g/m*3 20 C 0 km/h
1905 23-08-2010 21:14:02 19.8 C 12.64 g/m*3 19.8 C 0 km/h
1906 23-08-2010 21:26:02 19.7 C 12.74 g/m*3 19.7 C 0 km/h
1907 23-08-2010 21:38:02 19.7 C 12.57 g/m*3 19.7 C 0 km/h
1908 23-08-2010 21:50:02 19.8 C 12.47 g/m*3 19.8 C 0 km/h
1909 23-08-2010 22:03:03 19.7 C 12.4 g/m*3 19.7 C 0 km/h
1910 23-08-2010 22:15:03 19.6 C 12.32 g/m*3 19.6 C 0 km/h
1911 23-08-2010 22:27:03 19.6 C 12.15 g/m*3 19.6 C 0 km/h
1912 23-08-2010 22:39:03 19.5 C 12.25 g/m*3 19.5 C 0 km/h
1913 23-08-2010 22:51:03 19.5 C 12.08 g/m*3 19.5 C 0 km/h
1914 23-08-2010 23:03:03 19.4 C 12.01 g/m*3 19.4 C 0 km/h
1915 23-08-2010 23:15:03 19.3 C 11.94 g/m*3 19.3 C 0 km/h
1916 23-08-2010 23:27:03 19.3 C 11.94 g/m*3 19.3 C 0 km/h
1917 23-08-2010 23:39:03 19.2 C 11.87 g/m*3 19.2 C 0 km/h
1918 23-08-2010 23:51:03 19.3 C 11.94 g/m*3 19.3 C 0 km/h
1919 24-08-2010 00:03:03 19.2 C 12.04 g/m*3 19.2 C 0 km/h
1920 24-08-2010 00:15:03 19.2 C 12.04 g/m*3 19.2 C 0 km/h
1921 24-08-2010 00:27:03 19.1 C 11.97 g/m*3 19.1 C 0 km/h
1922 24-08-2010 00:39:04 19.2 C 12.2 g/m*3 19.2 C 0 km/h
1923 24-08-2010 00:51:04 19.2 C 12.2 g/m*3 19.2 C 0 km/h
1924 24-08-2010 01:03:04 19.3 C 12.27 g/m*3 19.3 C 0 km/h
1925 24-08-2010 01:15:04 19.2 C 12.37 g/m*3 19.2 C 0 km/h
Sensor: Nr:Datum:Temp:Abs-Feuchte:Windchill:Wind:
Aussen-T/F 1926 24-08-2010 01:27:04 19.1 C 12.46 g/m*3 19.1 C 0 km/h
1927 24-08-2010 01:39:04 19.2 C 12.53 g/m*3 19.2 C 0 km/h
1928 24-08-2010 01:51:04 19.2 C 12.53 g/m*3 19.2 C 0 km/h
1929 24-08-2010 02:03:04 19.3 C 12.44 g/m*3 19.3 C 0 km/h
1930 24-08-2010 02:15:04 19.6 C 12.32 g/m*3 19.6 C 0 km/h
1931 24-08-2010 02:27:04 19.9 C 12.37 g/m*3 19.9 C 0 km/h
1932 24-08-2010 02:39:04 20 C 11.92 g/m*3 20 C 0 km/h
1933 24-08-2010 02:51:04 19.6 C 12.32 g/m*3 19.6 C 0 km/h
1934 24-08-2010 03:03:04 19 C 12.22 g/m*3 19 C 0 km/h
1935 24-08-2010 03:15:04 18.7 C 12.33 g/m*3 18.7 C 0 km/h
1936 24-08-2010 03:27:04 18.4 C 11.64 g/m*3 18.4 C 0 km/h
1937 24-08-2010 03:39:04 17.9 C 11.76 g/m*3 17.9 C 0 km/h
1938 24-08-2010 03:51:04 17.7 C 11.32 g/m*3 17.7 C 0 km/h
1939 24-08-2010 04:03:04 18.1 C 9.73 g/m*3 18.1 C 0 km/h
1940 24-08-2010 04:15:04 18.2 C 9.64 g/m*3 18.2 C 0 km/h
1941 24-08-2010 04:27:04 18.1 C 9.43 g/m*3 18.1 C 0 km/h
1942 24-08-2010 04:39:04 18 C 9.37 g/m*3 18 C 0 km/h
1943 24-08-2010 04:51:05 17.9 C 9.47 g/m*3 17.9 C 0 km/h
1944 24-08-2010 05:03:05 17.4 C 9.48 g/m*3 17.4 C 0 km/h
1945 24-08-2010 05:15:05 17.3 C 9.58 g/m*3 17.3 C 0 km/h
1946 24-08-2010 05:27:05 17.3 C 9.58 g/m*3 17.3 C 0 km/h
1947 24-08-2010 05:39:05 17.2 C 9.37 g/m*3 17.2 C 0 km/h
1948 24-08-2010 05:51:05 17 C 9.55 g/m*3 17 C 0 km/h
1949 24-08-2010 06:03:05 17.1 C 9.46 g/m*3 17.1 C 0 km/h
1950 24-08-2010 06:15:05 17.1 C 9.32 g/m*3 17.1 C 0 km/h
Sensor: Nr:Datum:Temp:Abs-Feuchte:Windchill:Wind:
Aussen-T/F 1951 24-08-2010 06:27:05 17 C 9.55 g/m*3 17 C 0 km/h
1952 24-08-2010 06:39:05 17.4 C 9.63 g/m*3 17.4 C 0 km/h
1953 24-08-2010 06:51:05 16.8 C 9.44 g/m*3 16.8 C 0 km/h
1954 24-08-2010 07:03:05 16.8 C 9.58 g/m*3 16.8 C 0 km/h
1955 24-08-2010 07:15:02 16.7 C 9.38 g/m*3 16.7 C 0 km/h
1956 24-08-2010 07:27:02 16.4 C 9.21 g/m*3 16.4 C 0 km/h
1957 24-08-2010 07:39:03 16.2 C 8.96 g/m*3 16.2 C 0 km/h
1958 24-08-2010 07:51:02 16.1 C 9.05 g/m*3 16.1 C 0 km/h
1959 24-08-2010 08:03:02 16 C 8.99 g/m*3 16 C 0 km/h
1960 24-08-2010 08:15:02 16.1 C 8.64 g/m*3 16.1 C 0 km/h
1961 24-08-2010 08:27:02 16.2 C 8.41 g/m*3 16.2 C 0 km/h
1962 24-08-2010 08:39:02 16.2 C 8.27 g/m*3 16.2 C 0 km/h
1963 24-08-2010 08:51:02 16.3 C 7.91 g/m*3 16.3 C 0 km/h
1964 24-08-2010 09:03:02 16.4 C 7.82 g/m*3 16.4 C 0 km/h
1965 24-08-2010 09:15:02 16.5 C 7.44 g/m*3 16.5 C 0 km/h
1966 24-08-2010 09:27:02 16.7 C 7.11 g/m*3 16.7 C 0 km/h
1967 24-08-2010 09:39:01 17 C 6.95 g/m*3 17 C 0 km/h
1968 24-08-2010 09:51:02 17.2 C 7.18 g/m*3 17.2 C 0 km/h
1969 24-08-2010 10:03:01 17.4 C 7.11 g/m*3 17.4 C 0 km/h
1970 24-08-2010 10:15:02 17.7 C 7.39 g/m*3 17.7 C 0 km/h
1971 24-08-2010 10:27:02 17.8 C 7.29 g/m*3 17.8 C 0 km/h
1972 24-08-2010 10:39:02 18 C 7.07 g/m*3 18 C 0 km/h
1973 24-08-2010 10:51:02 18.5 C 7.28 g/m*3 18.5 C 0 km/h
1974 24-08-2010 11:03:03 18.7 C 7.36 g/m*3 18.7 C 0 km/h
1975 24-08-2010 11:15:02 18.9 C 6.97 g/m*3 18.9 C 0 km/h
Sensor: Nr:Datum:Temp:Abs-Feuchte:Windchill:Wind:
Aussen-T/F 1976 24-08-2010 11:27:02 19.1 C 6.72 g/m*3 19.1 C 0 km/h
1977 24-08-2010 11:39:02 19.4 C 6.51 g/m*3 19.4 C 0 km/h
1978 24-08-2010 11:51:01 19.3 C 6.8 g/m*3 19.3 C 0 km/h
1979 24-08-2010 12:03:02 19.1 C 6.56 g/m*3 19.1 C 0 km/h
1980 24-08-2010 12:15:01 19.8 C 6.66 g/m*3 19.8 C 0 km/h
1981 24-08-2010 12:27:01 20.1 C 6.26 g/m*3 20.1 C 0 km/h
1982 24-08-2010 12:39:02 20 C 6.05 g/m*3 20 C 0 km/h
1983 24-08-2010 12:51:01 21.2 C 6.12 g/m*3 21.2 C 0 km/h
1984 24-08-2010 13:03:02 20.3 C 6.16 g/m*3 20.3 C 0 km/h
1985 24-08-2010 13:15:01 20.5 C 6.23 g/m*3 20.5 C 0 km/h
1986 24-08-2010 13:27:01 21.5 C 5.85 g/m*3 21.5 C 0 km/h
1987 24-08-2010 13:39:02 21.7 C 5.72 g/m*3 21.7 C 0 km/h
1988 24-08-2010 13:51:01 21 C 5.68 g/m*3 21 C 0 km/h
1989 24-08-2010 14:03:02 20.8 C 5.79 g/m*3 20.8 C 0 km/h
1990 24-08-2010 14:15:02 20.9 C 5.83 g/m*3 20.9 C 0 km/h
1991 24-08-2010 14:27:02 21.7 C 5.34 g/m*3 21.7 C 0 km/h
1992 24-08-2010 14:39:02 22.2 C 5.3 g/m*3 22.2 C 0 km/h
1993 24-08-2010 14:51:02 21.7 C 5.15 g/m*3 21.7 C 0 km/h
1994 24-08-2010 15:03:02 21.2 C 5.74 g/m*3 21.2 C 0 km/h
1995 24-08-2010 15:15:02 21.2 C 5.19 g/m*3 21.2 C 0 km/h
1996 24-08-2010 15:27:02 21.6 C 4.93 g/m*3 21.6 C 0 km/h
1997 24-08-2010 15:39:01 22.1 C 5.08 g/m*3 22.1 C 0 km/h
1998 24-08-2010 15:51:02 23 C 4.52 g/m*3 23 C 0 km/h
1999 24-08-2010 16:03:01 23.2 C 4.57 g/m*3 23.2 C 0 km/h
2000 24-08-2010 16:15:02 23.2 C 4.37 g/m*3 23.2 C 0 km/h
Sensor: Nr:Datum:Temp:Abs-Feuchte:Windchill:Wind:
Aussen-T/F 2001 24-08-2010 16:27:03 23 C 4.73 g/m*3 23 C 0 km/h
2002 24-08-2010 16:39:01 23.8 C 4.73 g/m*3 23.8 C 0 km/h
2003 24-08-2010 16:51:02 22 C 4.66 g/m*3 22 C 0 km/h
2004 24-08-2010 17:03:02 23 C 4.52 g/m*3 23 C 0 km/h
2005 24-08-2010 17:15:02 23.4 C 4.21 g/m*3 23.4 C 0 km/h
2006 24-08-2010 17:27:02 23.6 C 4.68 g/m*3 23.6 C 0 km/h
2007 24-08-2010 17:39:03 22.9 C 4.9 g/m*3 22.9 C 0 km/h
2008 24-08-2010 17:51:02 23.2 C 5.2 g/m*3 23.2 C 0 km/h
2009 24-08-2010 18:03:02 23.8 C 4.95 g/m*3 23.8 C 0 km/h
2010 24-08-2010 18:15:02 22.8 C 5.08 g/m*3 22.8 C 0 km/h
2011 24-08-2010 18:27:02 22.9 C 5.11 g/m*3 22.9 C 0 km/h
2012 24-08-2010 18:39:02 22.8 C 5.28 g/m*3 22.8 C 0 km/h
2013 24-08-2010 18:51:02 22.3 C 5.13 g/m*3 22.3 C 0 km/h
2014 24-08-2010 19:03:03 22.5 C 5.19 g/m*3 22.5 C 0 km/h
2015 24-08-2010 19:15:02 21.7 C 5.15 g/m*3 21.7 C 0 km/h
2016 24-08-2010 19:27:02 22.1 C 5.08 g/m*3 22.1 C 0 km/h
2017 24-08-2010 19:39:02 21.3 C 5.03 g/m*3 21.3 C 0 km/h
2018 24-08-2010 19:51:01 20.8 C 5.43 g/m*3 20.8 C 0 km/h
2019 24-08-2010 20:03:02 20.4 C 5.48 g/m*3 20.4 C 0 km/h
2020 24-08-2010 20:15:01 20.3 C 5.8 g/m*3 20.3 C 0 km/h
2021 24-08-2010 20:27:01 19.7 C 5.94 g/m*3 19.7 C 0 km/h
2022 24-08-2010 20:39:02 19.4 C 5.84 g/m*3 19.4 C 0 km/h
2023 24-08-2010 20:51:01 19 C 5.87 g/m*3 19 C 0 km/h
2024 24-08-2010 21:03:02 18.7 C 5.92 g/m*3 18.7 C 0 km/h
2025 24-08-2010 21:15:02 18.4 C 6.13 g/m*3 18.4 C 0 km/h
Sensor: Nr:Datum:Temp:Abs-Feuchte:Windchill:Wind:
Aussen-T/F 2026 24-08-2010 21:27:02 18.2 C 6.22 g/m*3 18.2 C 0 km/h
2027 24-08-2010 21:39:02 18.1 C 6.18 g/m*3 18.1 C 0 km/h
2028 24-08-2010 21:51:01 18 C 6.14 g/m*3 18 C 0 km/h
2029 24-08-2010 22:04:03 17.7 C 6.19 g/m*3 17.7 C 0 km/h
2030 24-08-2010 22:16:03 17.6 C 6.15 g/m*3 17.6 C 0 km/h
2031 24-08-2010 22:28:03 17.5 C 6.26 g/m*3 17.5 C 0 km/h
2032 24-08-2010 22:40:03 17.1 C 6.4 g/m*3 17.1 C 0 km/h
2033 24-08-2010 22:52:03 17.1 C 6.4 g/m*3 17.1 C 0 km/h
2034 24-08-2010 23:04:03 17 C 6.22 g/m*3 17 C 0 km/h
2035 24-08-2010 23:16:03 16.8 C 6.43 g/m*3 16.8 C 0 km/h
2036 24-08-2010 23:28:03 16.8 C 6.43 g/m*3 16.8 C 0 km/h
2037 24-08-2010 23:40:03 16.7 C 6.54 g/m*3 16.7 C 0 km/h
2038 24-08-2010 23:52:03 16.6 C 6.5 g/m*3 16.6 C 0 km/h
2039 25-08-2010 00:04:03 16.4 C 6.42 g/m*3 16.4 C 0 km/h
2040 25-08-2010 00:16:03 16.4 C 6.56 g/m*3 16.4 C 0 km/h
2041 25-08-2010 00:28:03 16.2 C 6.48 g/m*3 16.2 C 0 km/h
2042 25-08-2010 00:40:04 16 C 6.54 g/m*3 16 C 0 km/h
2043 25-08-2010 00:52:04 15.8 C 6.73 g/m*3 15.8 C 0 km/h
2044 25-08-2010 01:04:04 15.8 C 6.73 g/m*3 15.8 C 0 km/h
2045 25-08-2010 01:16:04 15.6 C 6.78 g/m*3 15.6 C 0 km/h
2046 25-08-2010 01:28:04 15.5 C 6.87 g/m*3 15.5 C 0 km/h
2047 25-08-2010 01:40:04 15.4 C 6.83 g/m*3 15.4 C 0 km/h
2048 25-08-2010 01:52:04 15.3 C 6.79 g/m*3 15.3 C 0 km/h
2049 25-08-2010 02:04:04 15.1 C 6.97 g/m*3 15.1 C 0 km/h
2050 25-08-2010 02:16:04 14.8 C 7.09 g/m*3 14.8 C 0 km/h
Sensor: Nr:Datum:Temp:Abs-Feuchte:Windchill:Wind:
Aussen-T/F 2051 25-08-2010 02:28:04 14.6 C 7.13 g/m*3 14.6 C 0 km/h
2052 25-08-2010 02:40:04 14.5 C 7.21 g/m*3 14.5 C 0 km/h
2053 25-08-2010 02:52:04 14.3 C 7.13 g/m*3 14.3 C 0 km/h
2054 25-08-2010 03:04:04 14.2 C 7.2 g/m*3 14.2 C 0 km/h
2055 25-08-2010 03:16:04 13.9 C 7.55 g/m*3 13.9 C 0 km/h
2056 25-08-2010 03:28:04 13.7 C 7.58 g/m*3 13.7 C 0 km/h
2057 25-08-2010 03:40:04 13.6 C 7.77 g/m*3 13.6 C 0 km/h
2058 25-08-2010 03:52:04 13.4 C 7.67 g/m*3 13.4 C 0 km/h
2059 25-08-2010 04:04:04 13.4 C 7.79 g/m*3 13.4 C 0 km/h
2060 25-08-2010 04:16:04 13.4 C 7.79 g/m*3 13.4 C 0 km/h
2061 25-08-2010 04:28:04 13.4 C 7.67 g/m*3 13.4 C 0 km/h
2062 25-08-2010 04:40:04 13.4 C 7.67 g/m*3 13.4 C 0 km/h
2063 25-08-2010 04:52:05 13.4 C 7.56 g/m*3 13.4 C 0 km/h
2064 25-08-2010 05:04:05 13.6 C 7.53 g/m*3 13.6 C 0 km/h
2065 25-08-2010 05:16:05 13.6 C 7.41 g/m*3 13.6 C 0 km/h
2066 25-08-2010 05:28:05 13.4 C 7.44 g/m*3 13.4 C 0 km/h
2067 25-08-2010 05:40:05 13.2 C 7.58 g/m*3 13.2 C 0 km/h
2068 25-08-2010 05:52:05 13.1 C 7.65 g/m*3 13.1 C 0 km/h
2069 25-08-2010 06:04:05 13 C 7.6 g/m*3 13 C 0 km/h
2070 25-08-2010 06:16:05 13.1 C 7.65 g/m*3 13.1 C 0 km/h
2071 25-08-2010 06:28:05 12.9 C 7.78 g/m*3 12.9 C 0 km/h
2072 25-08-2010 06:40:05 12.9 C 7.78 g/m*3 12.9 C 0 km/h
2073 25-08-2010 06:52:05 12.8 C 7.73 g/m*3 12.8 C 0 km/h
2074 25-08-2010 07:04:02 12.7 C 7.79 g/m*3 12.7 C 0 km/h
2075 25-08-2010 07:16:03 12.8 C 7.84 g/m*3 12.8 C 0 km/h
Sensor: Nr:Datum:Temp:Abs-Feuchte:Windchill:Wind:
Aussen-T/F 2076 25-08-2010 07:28:03 12.8 C 7.84 g/m*3 12.8 C 0 km/h
2077 25-08-2010 07:40:02 12.7 C 7.79 g/m*3 12.7 C 0 km/h
2078 25-08-2010 07:52:02 12.8 C 7.95 g/m*3 12.8 C 0 km/h
2079 25-08-2010 08:04:01 13.1 C 7.87 g/m*3 13.1 C 0 km/h
2080 25-08-2010 08:16:01 13.4 C 7.9 g/m*3 13.4 C 0 km/h
2081 25-08-2010 08:28:01 13.5 C 7.84 g/m*3 13.5 C 0 km/h
2082 25-08-2010 08:40:01 13.8 C 7.86 g/m*3 13.8 C 0 km/h
2083 25-08-2010 08:52:03 13.9 C 7.79 g/m*3 13.9 C 0 km/h
2084 25-08-2010 09:04:02 14.2 C 7.82 g/m*3 14.2 C 0 km/h
2085 25-08-2010 09:16:02 14.7 C 8.06 g/m*3 14.7 C 0 km/h
2086 25-08-2010 09:28:03 14.9 C 7.9 g/m*3 14.9 C 0 km/h
2087 25-08-2010 09:40:02 15.2 C 7.79 g/m*3 15.2 C 0 km/h
2088 25-08-2010 09:52:02 15.6 C 7.98 g/m*3 15.6 C 0 km/h
2089 25-08-2010 10:04:01 16.1 C 7.81 g/m*3 16.1 C 0 km/h
2090 25-08-2010 10:16:02 16.3 C 7.77 g/m*3 16.3 C 0 km/h
2091 25-08-2010 10:28:02 16.3 C 7.77 g/m*3 16.3 C 0 km/h
2092 25-08-2010 10:40:02 16.3 C 7.77 g/m*3 16.3 C 0 km/h
2093 25-08-2010 10:52:02 16.5 C 7.86 g/m*3 16.5 C 0 km/h
2094 25-08-2010 11:04:02 17.1 C 7.71 g/m*3 17.1 C 0 km/h
2095 25-08-2010 11:16:01 17.4 C 7.85 g/m*3 17.4 C 0 km/h
2096 25-08-2010 11:28:01 17.7 C 7.85 g/m*3 17.7 C 0 km/h
2097 25-08-2010 11:40:02 18.1 C 7.88 g/m*3 18.1 C 0 km/h
2098 25-08-2010 11:52:02 19.2 C 7.75 g/m*3 19.2 C 0 km/h
2099 25-08-2010 12:04:02 19.7 C 7.47 g/m*3 19.7 C 0 km/h
2100 25-08-2010 12:16:01 19.9 C 7.39 g/m*3 19.9 C 0 km/h
Sensor: Nr:Datum:Temp:Abs-Feuchte:Windchill:Wind:
Aussen-T/F 2101 25-08-2010 12:28:01 20.4 C 7.43 g/m*3 20.4 C 0 km/h
2102 25-08-2010 12:40:02 20 C 6.91 g/m*3 20 C 0 km/h
2103 25-08-2010 12:52:02 20 C 6.74 g/m*3 20 C 0 km/h
2104 25-08-2010 13:04:02 20.4 C 6.9 g/m*3 20.4 C 0 km/h
2105 25-08-2010 13:16:02 20.7 C 6.84 g/m*3 20.7 C 0 km/h
2106 25-08-2010 13:28:02 20.9 C 6.56 g/m*3 20.9 C 0 km/h
2107 25-08-2010 13:40:02 20.8 C 6.52 g/m*3 20.8 C 0 km/h
2108 25-08-2010 13:52:01 21.3 C 6.52 g/m*3 21.3 C 0 km/h
2109 25-08-2010 14:04:02 21.2 C 6.49 g/m*3 21.2 C 0 km/h
2110 25-08-2010 14:16:01 21.2 C 6.3 g/m*3 21.2 C 0 km/h
2111 25-08-2010 14:28:01 21.7 C 6.49 g/m*3 21.7 C 0 km/h
2112 25-08-2010 14:40:01 21.3 C 6.52 g/m*3 21.3 C 0 km/h
2113 25-08-2010 14:52:01 21.9 C 6.37 g/m*3 21.9 C 0 km/h
2114 25-08-2010 15:04:02 22.5 C 6.39 g/m*3 22.5 C 0 km/h
2115 25-08-2010 15:16:01 23.1 C 6.2 g/m*3 23.1 C 0 km/h
2116 25-08-2010 15:28:01 23.9 C 6.06 g/m*3 23.9 C 0 km/h
2117 25-08-2010 15:40:01 24.1 C 5.69 g/m*3 24.1 C 0 km/h
2118 25-08-2010 15:52:01 24.1 C 6.13 g/m*3 24.1 C 0 km/h
2119 25-08-2010 16:04:01 24.3 C 5.53 g/m*3 24.3 C 0 km/h
2120 25-08-2010 16:16:02 24.3 C 5.53 g/m*3 24.3 C 0 km/h
2121 25-08-2010 16:28:02 25.3 C 5.62 g/m*3 25.3 C 0 km/h
2122 25-08-2010 16:40:01 24.7 C 5.66 g/m*3 24.7 C 0 km/h
2123 25-08-2010 16:52:01 23.7 C 5.99 g/m*3 23.7 C 0 km/h
2124 25-08-2010 17:04:02 23.4 C 6.73 g/m*3 23.4 C 0 km/h
2125 25-08-2010 17:16:01 23.3 C 6.48 g/m*3 23.3 C 0 km/h
Sensor: Nr:Datum:Temp:Abs-Feuchte:Windchill:Wind:
Aussen-T/F 2126 25-08-2010 17:28:01 23.1 C 6.41 g/m*3 23.1 C 0 km/h
2127 25-08-2010 17:40:01 23.2 C 6.86 g/m*3 23.2 C 0 km/h
2128 25-08-2010 17:52:01 23 C 6.78 g/m*3 23 C 0 km/h
2129 25-08-2010 18:04:02 22.2 C 6.87 g/m*3 22.2 C 0 km/h
2130 25-08-2010 18:16:02 22 C 6.79 g/m*3 22 C 0 km/h
2131 25-08-2010 18:28:02 22 C 6.79 g/m*3 22 C 0 km/h
2132 25-08-2010 18:40:01 21.8 C 7.48 g/m*3 21.8 C 0 km/h
2133 25-08-2010 18:52:01 21.5 C 7.54 g/m*3 21.5 C 0 km/h
2134 25-08-2010 19:04:01 20.8 C 7.97 g/m*3 20.8 C 0 km/h
2135 25-08-2010 19:16:02 20.1 C 8 g/m*3 20.1 C 0 km/h
2136 25-08-2010 19:28:02 20.2 C 7.87 g/m*3 20.2 C 0 km/h
2137 25-08-2010 19:40:01 20 C 7.95 g/m*3 20 C 0 km/h
2138 25-08-2010 19:52:02 20 C 7.78 g/m*3 20 C 0 km/h
2139 25-08-2010 20:04:01 19.7 C 8.15 g/m*3 19.7 C 0 km/h
2140 25-08-2010 20:16:02 19.4 C 8.18 g/m*3 19.4 C 0 km/h
2141 25-08-2010 20:28:02 19 C 8.15 g/m*3 19 C 0 km/h
2142 25-08-2010 20:40:01 18.8 C 8.21 g/m*3 18.8 C 0 km/h
2143 25-08-2010 20:52:02 18.3 C 8.44 g/m*3 18.3 C 0 km/h
2144 25-08-2010 21:04:02 18.1 C 8.19 g/m*3 18.1 C 0 km/h
2145 25-08-2010 21:16:02 18.1 C 8.34 g/m*3 18.1 C 0 km/h
2146 25-08-2010 21:28:02 18.1 C 8.34 g/m*3 18.1 C 0 km/h
2147 25-08-2010 21:40:02 18.2 C 8.39 g/m*3 18.2 C 0 km/h
2148 25-08-2010 21:52:02 18.1 C 8.5 g/m*3 18.1 C 0 km/h
2149 25-08-2010 22:04:01 17.9 C 8.55 g/m*3 17.9 C 0 km/h
2150 25-08-2010 22:17:04 17.7 C 8.45 g/m*3 17.7 C 0 km/h
Sensor: Nr:Datum:Temp:Abs-Feuchte:Windchill:Wind:
Aussen-T/F 2151 25-08-2010 22:29:04 17.5 C 8.35 g/m*3 17.5 C 0 km/h
2152 25-08-2010 22:41:04 17.4 C 8.6 g/m*3 17.4 C 0 km/h
2153 25-08-2010 22:53:04 17.3 C 8.54 g/m*3 17.3 C 0 km/h
2154 25-08-2010 23:05:04 17.2 C 8.64 g/m*3 17.2 C 0 km/h
2155 25-08-2010 23:17:04 17.4 C 8.74 g/m*3 17.4 C 0 km/h
2156 25-08-2010 23:29:04 17.4 C 8.74 g/m*3 17.4 C 0 km/h
2157 25-08-2010 23:41:04 17.3 C 8.99 g/m*3 17.3 C 0 km/h
2158 25-08-2010 23:53:04 17.2 C 8.93 g/m*3 17.2 C 0 km/h
2159 26-08-2010 00:05:04 17.1 C 9.03 g/m*3 17.1 C 0 km/h
2160 26-08-2010 00:17:04 17.2 C 9.08 g/m*3 17.2 C 0 km/h
2161 26-08-2010 00:29:04 17.3 C 9.13 g/m*3 17.3 C 0 km/h
2162 26-08-2010 00:41:04 17.4 C 9.04 g/m*3 17.4 C 0 km/h
2163 26-08-2010 00:53:04 17.4 C 9.04 g/m*3 17.4 C 0 km/h
2164 26-08-2010 01:05:05 17.5 C 9.24 g/m*3 17.5 C 0 km/h
2165 26-08-2010 01:17:05 17.5 C 9.09 g/m*3 17.5 C 0 km/h
2166 26-08-2010 01:29:05 17.5 C 9.09 g/m*3 17.5 C 0 km/h
2167 26-08-2010 01:41:05 17.5 C 9.09 g/m*3 17.5 C 0 km/h
2168 26-08-2010 01:53:05 17.4 C 9.04 g/m*3 17.4 C 0 km/h
2169 26-08-2010 02:05:05 16.9 C 9.78 g/m*3 16.9 C 0 km/h
2170 26-08-2010 02:17:05 17.1 C 10.19 g/m*3 17.1 C 0 km/h
2171 26-08-2010 02:29:05 16.7 C 10.09 g/m*3 16.7 C 0 km/h
2172 26-08-2010 02:41:05 17 C 9.84 g/m*3 17 C 0 km/h
2173 26-08-2010 02:53:05 16.7 C 9.95 g/m*3 16.7 C 0 km/h
2174 26-08-2010 03:05:05 16.8 C 10.29 g/m*3 16.8 C 0 km/h
2175 26-08-2010 03:17:05 16.8 C 10.29 g/m*3 16.8 C 0 km/h
Sensor: Nr:Datum:Temp:Abs-Feuchte:Windchill:Wind:
Aussen-T/F 2176 26-08-2010 03:29:05 16.9 C 9.92 g/m*3 16.9 C 0 km/h
2177 26-08-2010 03:41:05 16.9 C 9.92 g/m*3 16.9 C 0 km/h
2178 26-08-2010 03:53:05 16.9 C 9.78 g/m*3 16.9 C 0 km/h
2179 26-08-2010 04:05:06 16.9 C 9.78 g/m*3 16.9 C 0 km/h
2180 26-08-2010 04:17:06 17 C 9.69 g/m*3 17 C 0 km/h
2181 26-08-2010 04:29:06 17 C 9.84 g/m*3 17 C 0 km/h
2182 26-08-2010 04:41:06 16.9 C 9.92 g/m*3 16.9 C 0 km/h
2183 26-08-2010 04:53:06 16.9 C 10.07 g/m*3 16.9 C 0 km/h
2184 26-08-2010 05:05:06 17.3 C 10.31 g/m*3 17.3 C 0 km/h
2185 26-08-2010 05:17:06 18.1 C 10.35 g/m*3 18.1 C 0 km/h
2186 26-08-2010 05:29:06 18.5 C 10.28 g/m*3 18.5 C 0 km/h
2187 26-08-2010 05:41:06 18.8 C 10.31 g/m*3 18.8 C 0 km/h
2188 26-08-2010 05:53:06 18.7 C 10.25 g/m*3 18.7 C 0 km/h
2189 26-08-2010 06:05:03 18.2 C 10.1 g/m*3 18.2 C 0 km/h
2190 26-08-2010 06:17:03 18.1 C 10.35 g/m*3 18.1 C 0 km/h
2191 26-08-2010 06:29:03 17.9 C 10.54 g/m*3 17.9 C 0 km/h
2192 26-08-2010 06:41:03 18.1 C 10.82 g/m*3 18.1 C 0 km/h
2193 26-08-2010 06:53:02 18.6 C 10.82 g/m*3 18.6 C 0 km/h
2194 26-08-2010 07:05:02 18.9 C 10.69 g/m*3 18.9 C 0 km/h
2195 26-08-2010 07:17:02 19 C 10.59 g/m*3 19 C 0 km/h
2196 26-08-2010 07:29:02 19.2 C 10.55 g/m*3 19.2 C 0 km/h
2197 26-08-2010 07:41:02 19.4 C 10.68 g/m*3 19.4 C 0 km/h
2198 26-08-2010 07:53:02 19.8 C 10.93 g/m*3 19.8 C 0 km/h
2199 26-08-2010 08:05:01 20 C 10.71 g/m*3 20 C 0 km/h
2200 26-08-2010 08:17:02 20.1 C 10.95 g/m*3 20.1 C 0 km/h
Sensor: Nr:Datum:Temp:Abs-Feuchte:Windchill:Wind:
Aussen-T/F 2201 26-08-2010 08:29:02 20.2 C 11.02 g/m*3 20.2 C 0 km/h
2202 26-08-2010 08:41:01 20.1 C 11.3 g/m*3 20.1 C 0 km/h
2203 26-08-2010 08:53:01 20.6 C 11.63 g/m*3 20.6 C 0 km/h
2204 26-08-2010 09:05:02 20.8 C 11.41 g/m*3 20.8 C 0 km/h
2205 26-08-2010 09:17:02 21.1 C 11.42 g/m*3 21.1 C 0 km/h
2206 26-08-2010 09:29:02 21.5 C 11.31 g/m*3 21.5 C 0 km/h
2207 26-08-2010 09:41:02 22 C 11.26 g/m*3 22 C 0 km/h
2208 26-08-2010 09:53:01 22.2 C 11.19 g/m*3 22.2 C 0 km/h
2209 26-08-2010 10:05:02 22.6 C 11.25 g/m*3 22.6 C 0 km/h
2210 26-08-2010 10:17:02 22.6 C 11.25 g/m*3 22.6 C 0 km/h
2211 26-08-2010 10:29:02 22.9 C 11.24 g/m*3 22.9 C 0 km/h
2212 26-08-2010 10:41:01 22.7 C 11.11 g/m*3 22.7 C 0 km/h
2213 26-08-2010 10:53:02 23 C 11.1 g/m*3 23 C 0 km/h
2214 26-08-2010 11:05:01 23.2 C 11.23 g/m*3 23.2 C 0 km/h
2215 26-08-2010 11:17:02 23.9 C 11.25 g/m*3 23.9 C 0 km/h
2216 26-08-2010 11:29:03 23.5 C 11.21 g/m*3 23.5 C 0 km/h
2217 26-08-2010 11:41:01 24.1 C 11.16 g/m*3 24.1 C 0 km/h
2218 26-08-2010 11:53:02 24.1 C 10.94 g/m*3 24.1 C 0 km/h
2219 26-08-2010 12:05:02 24.4 C 11.13 g/m*3 24.4 C 0 km/h
2220 26-08-2010 12:17:02 23.8 C 10.97 g/m*3 23.8 C 0 km/h
2221 26-08-2010 12:29:02 23.4 C 11.14 g/m*3 23.4 C 0 km/h
2222 26-08-2010 12:41:03 23.2 C 11.23 g/m*3 23.2 C 0 km/h
2223 26-08-2010 12:53:02 22.9 C 11.24 g/m*3 22.9 C 0 km/h
2224 26-08-2010 13:05:02 22.7 C 11.31 g/m*3 22.7 C 0 km/h
2225 26-08-2010 13:17:01 22.7 C 11.31 g/m*3 22.7 C 0 km/h
Sensor: Nr:Datum:Temp:Abs-Feuchte:Windchill:Wind:
Aussen-T/F 2226 26-08-2010 13:29:01 22.9 C 11.24 g/m*3 22.9 C 0 km/h
2227 26-08-2010 13:41:02 23.3 C 11.08 g/m*3 23.3 C 0 km/h
2228 26-08-2010 13:53:02 23.2 C 11.02 g/m*3 23.2 C 0 km/h
2229 26-08-2010 14:05:02 23.5 C 11.21 g/m*3 23.5 C 0 km/h
2230 26-08-2010 14:17:02 23.9 C 11.25 g/m*3 23.9 C 0 km/h
2231 26-08-2010 14:29:02 23.9 C 11.03 g/m*3 23.9 C 0 km/h
2232 26-08-2010 14:41:02 23.8 C 11.19 g/m*3 23.8 C 0 km/h
2233 26-08-2010 14:53:02 23.9 C 11.25 g/m*3 23.9 C 0 km/h
2234 26-08-2010 15:05:02 23.9 C 11.47 g/m*3 23.9 C 0 km/h
2235 26-08-2010 15:17:02 23.8 C 11.19 g/m*3 23.8 C 0 km/h
2236 26-08-2010 15:29:02 23.7 C 11.34 g/m*3 23.7 C 0 km/h
2237 26-08-2010 15:41:02 23.5 C 11.42 g/m*3 23.5 C 0 km/h
2238 26-08-2010 15:53:02 23.5 C 11.21 g/m*3 23.5 C 0 km/h
2239 26-08-2010 16:05:02 23.9 C 11.47 g/m*3 23.9 C 0 km/h
2240 26-08-2010 16:17:02 23.8 C 11.4 g/m*3 23.8 C 0 km/h
2241 26-08-2010 16:29:02 23.7 C 11.34 g/m*3 23.7 C 0 km/h
2242 26-08-2010 16:41:02 24.2 C 11.22 g/m*3 24.2 C 0 km/h
2243 26-08-2010 16:53:02 24.1 C 10.94 g/m*3 24.1 C 0 km/h
2244 26-08-2010 17:05:02 23.9 C 11.25 g/m*3 23.9 C 0 km/h
2245 26-08-2010 17:17:02 23.7 C 11.34 g/m*3 23.7 C 0 km/h
2246 26-08-2010 17:29:02 23.6 C 11.27 g/m*3 23.6 C 0 km/h
2247 26-08-2010 17:41:02 23.5 C 11.21 g/m*3 23.5 C 0 km/h
2248 26-08-2010 17:53:02 23.4 C 11.35 g/m*3 23.4 C 0 km/h
2249 26-08-2010 18:05:02 23.4 C 11.35 g/m*3 23.4 C 0 km/h
2250 26-08-2010 18:17:02 23.3 C 11.5 g/m*3 23.3 C 0 km/h
Sensor: Nr:Datum:Temp:Abs-Feuchte:Windchill:Wind:
Aussen-T/F 2251 26-08-2010 18:29:03 23.2 C 11.85 g/m*3 23.2 C 0 km/h
2252 26-08-2010 18:41:01 23 C 11.72 g/m*3 23 C 0 km/h
2253 26-08-2010 18:53:02 23 C 11.92 g/m*3 23 C 0 km/h
2254 26-08-2010 19:05:01 22.6 C 12.25 g/m*3 22.6 C 0 km/h
2255 26-08-2010 19:17:02 22.6 C 12.25 g/m*3 22.6 C 0 km/h
2256 26-08-2010 19:29:02 21.6 C 13.28 g/m*3 21.6 C 0 km/h
2257 26-08-2010 19:41:02 20.7 C 14.04 g/m*3 20.7 C 0 km/h
2258 26-08-2010 19:53:02 20.8 C 14.67 g/m*3 20.8 C 0 km/h
2259 26-08-2010 20:05:02 21 C 14.65 g/m*3 21 C 0 km/h
2260 26-08-2010 20:17:02 20.9 C 14.57 g/m*3 20.9 C 0 km/h
2261 26-08-2010 20:29:02 21 C 14.47 g/m*3 21 C 0 km/h
2262 26-08-2010 20:41:02 20.9 C 14.39 g/m*3 20.9 C 0 km/h
2263 26-08-2010 20:53:01 20.9 C 14.39 g/m*3 20.9 C 0 km/h
2264 26-08-2010 21:05:02 20.7 C 14.04 g/m*3 20.7 C 0 km/h
2265 26-08-2010 21:17:01 20.7 C 14.04 g/m*3 20.7 C 0 km/h
2266 26-08-2010 21:29:01 20.4 C 13.98 g/m*3 20.4 C 0 km/h
2267 26-08-2010 21:41:02 20.2 C 13.99 g/m*3 20.2 C 0 km/h
2268 26-08-2010 21:53:02 20.1 C 14.08 g/m*3 20.1 C 0 km/h
2269 26-08-2010 22:06:04 20 C 14.34 g/m*3 20 C 0 km/h
2270 26-08-2010 22:18:04 19.8 C 14.52 g/m*3 19.8 C 0 km/h
2271 26-08-2010 22:30:04 19.7 C 14.6 g/m*3 19.7 C 0 km/h
2272 26-08-2010 22:42:04 19.7 C 14.77 g/m*3 19.7 C 0 km/h
2273 26-08-2010 22:54:04 19.6 C 14.86 g/m*3 19.6 C 0 km/h
2274 26-08-2010 23:06:04 19.5 C 14.77 g/m*3 19.5 C 0 km/h
2275 26-08-2010 23:18:04 19.5 C 14.94 g/m*3 19.5 C 0 km/h
Sensor: Nr:Datum:Temp:Abs-Feuchte:Windchill:Wind:
Aussen-T/F 2276 26-08-2010 23:30:04 19.5 C 14.94 g/m*3 19.5 C 0 km/h
2277 26-08-2010 23:42:05 19.4 C 15.02 g/m*3 19.4 C 0 km/h
2278 26-08-2010 23:54:05 19.3 C 15.09 g/m*3 19.3 C 0 km/h
2279 27-08-2010 00:06:05 19.2 C 15.01 g/m*3 19.2 C 0 km/h
2280 27-08-2010 00:18:05 19 C 14.83 g/m*3 19 C 0 km/h
2281 27-08-2010 00:30:05 19 C 14.83 g/m*3 19 C 0 km/h
2282 27-08-2010 00:42:05 18.9 C 14.9 g/m*3 18.9 C 0 km/h
2283 27-08-2010 00:54:05 18.8 C 14.98 g/m*3 18.8 C 0 km/h
2284 27-08-2010 01:06:05 18.7 C 14.89 g/m*3 18.7 C 0 km/h
2285 27-08-2010 01:18:05 18.7 C 14.89 g/m*3 18.7 C 0 km/h
2286 27-08-2010 01:30:05 18.8 C 14.98 g/m*3 18.8 C 0 km/h
2287 27-08-2010 01:42:05 18.8 C 14.98 g/m*3 18.8 C 0 km/h
2288 27-08-2010 01:54:05 18.8 C 15.14 g/m*3 18.8 C 0 km/h
2289 27-08-2010 02:06:05 18.8 C 15.14 g/m*3 18.8 C 0 km/h
2290 27-08-2010 02:18:05 18.7 C 15.05 g/m*3 18.7 C 0 km/h
2291 27-08-2010 02:30:05 18.5 C 14.87 g/m*3 18.5 C 0 km/h
2292 27-08-2010 02:42:05 18.6 C 14.96 g/m*3 18.6 C 0 km/h
2293 27-08-2010 02:54:05 18.5 C 14.87 g/m*3 18.5 C 0 km/h
2294 27-08-2010 03:06:05 18.4 C 14.78 g/m*3 18.4 C 0 km/h
2295 27-08-2010 03:18:05 18.4 C 14.78 g/m*3 18.4 C 0 km/h
2296 27-08-2010 03:30:05 18.4 C 14.78 g/m*3 18.4 C 0 km/h
2297 27-08-2010 03:42:05 18.4 C 14.78 g/m*3 18.4 C 0 km/h
2298 27-08-2010 03:54:05 18.3 C 14.7 g/m*3 18.3 C 0 km/h
2299 27-08-2010 04:06:05 18.3 C 14.7 g/m*3 18.3 C 0 km/h
2300 27-08-2010 04:18:06 18.3 C 14.7 g/m*3 18.3 C 0 km/h
Sensor: Nr:Datum:Temp:Abs-Feuchte:Windchill:Wind:
Aussen-T/F 2301 27-08-2010 04:30:06 18.4 C 14.78 g/m*3 18.4 C 0 km/h
2302 27-08-2010 04:42:06 18.4 C 14.78 g/m*3 18.4 C 0 km/h
2303 27-08-2010 04:54:06 18.3 C 14.7 g/m*3 18.3 C 0 km/h
2304 27-08-2010 05:06:06 18.3 C 14.85 g/m*3 18.3 C 0 km/h
2305 27-08-2010 05:18:06 18.3 C 14.7 g/m*3 18.3 C 0 km/h
2306 27-08-2010 05:30:06 18.4 C 14.78 g/m*3 18.4 C 0 km/h
2307 27-08-2010 05:42:06 18.4 C 14.94 g/m*3 18.4 C 0 km/h
2308 27-08-2010 05:54:06 18.6 C 15.12 g/m*3 18.6 C 0 km/h
2309 27-08-2010 06:06:06 18.7 C 15.21 g/m*3 18.7 C 0 km/h
2310 27-08-2010 06:18:06 18.8 C 15.3 g/m*3 18.8 C 0 km/h
2311 27-08-2010 06:30:06 18.9 C 15.39 g/m*3 18.9 C 0 km/h
2312 27-08-2010 06:42:06 18.9 C 15.39 g/m*3 18.9 C 0 km/h
2313 27-08-2010 06:54:06 18.8 C 15.3 g/m*3 18.8 C 0 km/h
2314 27-08-2010 07:06:06 18.8 C 15.14 g/m*3 18.8 C 0 km/h
2315 27-08-2010 07:18:07 18.7 C 15.05 g/m*3 18.7 C 0 km/h
2316 27-08-2010 07:30:07 18.7 C 15.05 g/m*3 18.7 C 0 km/h
2317 27-08-2010 07:42:07 18.6 C 14.96 g/m*3 18.6 C 0 km/h
2318 27-08-2010 07:54:01 18.6 C 14.96 g/m*3 18.6 C 0 km/h
2319 27-08-2010 08:06:02 18.6 C 14.96 g/m*3 18.6 C 0 km/h
2320 27-08-2010 08:18:01 18.6 C 14.96 g/m*3 18.6 C 0 km/h
2321 27-08-2010 08:30:01 18.6 C 14.96 g/m*3 18.6 C 0 km/h
2322 27-08-2010 08:42:01 18.5 C 14.87 g/m*3 18.5 C 0 km/h
2323 27-08-2010 08:54:02 18.6 C 14.96 g/m*3 18.6 C 0 km/h
2324 27-08-2010 09:06:01 18.6 C 14.96 g/m*3 18.6 C 0 km/h
2325 27-08-2010 09:18:02 18.8 C 15.14 g/m*3 18.8 C 0 km/h
Sensor: Nr:Datum:Temp:Abs-Feuchte:Windchill:Wind:
Aussen-T/F 2326 27-08-2010 09:30:02 19.5 C 15.27 g/m*3 19.5 C 0 km/h
2327 27-08-2010 09:42:01 19.7 C 15.11 g/m*3 19.7 C 0 km/h
2328 27-08-2010 09:54:02 19.7 C 14.77 g/m*3 19.7 C 0 km/h
2329 27-08-2010 10:06:02 19.7 C 14.6 g/m*3 19.7 C 0 km/h
2330 27-08-2010 10:18:02 19.8 C 14.52 g/m*3 19.8 C 0 km/h
2331 27-08-2010 10:30:02 19.4 C 14.18 g/m*3 19.4 C 0 km/h
2332 27-08-2010 10:42:03 19 C 14.18 g/m*3 19 C 0 km/h
2333 27-08-2010 10:54:02 18.7 C 14.25 g/m*3 18.7 C 0 km/h
2334 27-08-2010 11:06:02 18.5 C 14.4 g/m*3 18.5 C 0 km/h
2335 27-08-2010 11:18:01 18.3 C 13.92 g/m*3 18.3 C 0 km/h
2336 27-08-2010 11:30:01 18.1 C 13.44 g/m*3 18.1 C 0 km/h
2337 27-08-2010 11:42:02 17.9 C 13.13 g/m*3 17.9 C 0 km/h
2338 27-08-2010 11:54:02 18 C 13.06 g/m*3 18 C 0 km/h
2339 27-08-2010 12:06:02 18.7 C 13.77 g/m*3 18.7 C 0 km/h
2340 27-08-2010 12:18:02 19.5 C 13.93 g/m*3 19.5 C 0 km/h
2341 27-08-2010 12:30:02 20.4 C 13.62 g/m*3 20.4 C 0 km/h
2342 27-08-2010 12:42:02 20.5 C 12.99 g/m*3 20.5 C 0 km/h
2343 27-08-2010 12:54:02 21.4 C 13.12 g/m*3 21.4 C 0 km/h
2344 27-08-2010 13:06:02 21.9 C 12.93 g/m*3 21.9 C 0 km/h
2345 27-08-2010 13:18:02 22.4 C 13.11 g/m*3 22.4 C 0 km/h
2346 27-08-2010 13:30:02 22.8 C 12.6 g/m*3 22.8 C 0 km/h
2347 27-08-2010 13:42:02 23.4 C 12.41 g/m*3 23.4 C 0 km/h
2348 27-08-2010 13:54:02 24.1 C 11.82 g/m*3 24.1 C 0 km/h
2349 27-08-2010 14:06:02 24.2 C 11.88 g/m*3 24.2 C 0 km/h
2350 27-08-2010 14:18:03 23.6 C 11.7 g/m*3 23.6 C 0 km/h
Sensor: Nr:Datum:Temp:Abs-Feuchte:Windchill:Wind:
Aussen-T/F 2351 27-08-2010 14:30:03 22.5 C 12.78 g/m*3 22.5 C 0 km/h
2352 27-08-2010 14:42:02 17 C 11 g/m*3 17 C 0 km/h
2353 27-08-2010 14:54:03 16.5 C 11.94 g/m*3 16.5 C 0 km/h
2354 27-08-2010 15:06:02 16.7 C 12.65 g/m*3 16.7 C 0 km/h
2355 27-08-2010 15:18:02 18.3 C 13.76 g/m*3 18.3 C 0 km/h
2356 27-08-2010 15:30:02 19 C 13.85 g/m*3 19 C 0 km/h
2357 27-08-2010 15:42:02 19.8 C 13.66 g/m*3 19.8 C 0 km/h
2358 27-08-2010 15:54:02 20.8 C 13.4 g/m*3 20.8 C 0 km/h
2359 27-08-2010 16:06:01 21.8 C 12.47 g/m*3 21.8 C 0 km/h
2360 27-08-2010 16:18:02 21.7 C 12.59 g/m*3 21.7 C 0 km/h
2361 27-08-2010 16:30:02 21.3 C 12.68 g/m*3 21.3 C 0 km/h
2362 27-08-2010 16:42:02 21.7 C 13.35 g/m*3 21.7 C 0 km/h
2363 27-08-2010 16:54:02 23 C 13.36 g/m*3 23 C 0 km/h
2364 27-08-2010 17:06:01 22.8 C 11.99 g/m*3 22.8 C 0 km/h
2365 27-08-2010 17:18:01 22.9 C 12.47 g/m*3 22.9 C 0 km/h
2366 27-08-2010 17:30:01 21.5 C 11.5 g/m*3 21.5 C 0 km/h
2367 27-08-2010 17:42:02 20.2 C 11.37 g/m*3 20.2 C 0 km/h
2368 27-08-2010 17:54:02 19.1 C 11.15 g/m*3 19.1 C 0 km/h
2369 27-08-2010 18:06:02 17.3 C 12.08 g/m*3 17.3 C 0 km/h
2370 27-08-2010 18:18:02 16.6 C 12.15 g/m*3 16.6 C 0 km/h
2371 27-08-2010 18:30:02 16.4 C 12.14 g/m*3 16.4 C 0 km/h
2372 27-08-2010 18:42:02 17 C 12.3 g/m*3 17 C 0 km/h
2373 27-08-2010 18:54:02 16.7 C 11.37 g/m*3 16.7 C 0 km/h
2374 27-08-2010 19:06:02 16.3 C 11.38 g/m*3 16.3 C 0 km/h
2375 27-08-2010 19:18:02 16 C 11.31 g/m*3 16 C 0 km/h
Sensor: Nr:Datum:Temp:Abs-Feuchte:Windchill:Wind:
Aussen-T/F 2376 27-08-2010 19:30:02 15.5 C 10.84 g/m*3 15.5 C 0 km/h
2377 27-08-2010 19:42:02 15.3 C 10.71 g/m*3 15.3 C 0 km/h
2378 27-08-2010 19:54:02 15.1 C 10.45 g/m*3 15.1 C 0 km/h
2379 27-08-2010 20:06:02 15.1 C 10.58 g/m*3 15.1 C 0 km/h
2380 27-08-2010 20:18:02 15.3 C 10.71 g/m*3 15.3 C 0 km/h
2381 27-08-2010 20:30:02 15.3 C 10.45 g/m*3 15.3 C 0 km/h
2382 27-08-2010 20:42:02 15.2 C 10.25 g/m*3 15.2 C 0 km/h
2383 27-08-2010 20:54:02 14.7 C 10.2 g/m*3 14.7 C 0 km/h
2384 27-08-2010 21:06:02 14.5 C 10.32 g/m*3 14.5 C 0 km/h
2385 27-08-2010 21:18:03 14.5 C 10.2 g/m*3 14.5 C 0 km/h
2386 27-08-2010 21:30:03 14.6 C 10.14 g/m*3 14.6 C 0 km/h
2387 27-08-2010 21:42:02 14.6 C 10.14 g/m*3 14.6 C 0 km/h
2388 27-08-2010 21:54:03 14.7 C 10.07 g/m*3 14.7 C 0 km/h
2389 27-08-2010 22:06:02 14.8 C 10.01 g/m*3 14.8 C 0 km/h
2390 27-08-2010 22:18:02 14.8 C 10.01 g/m*3 14.8 C 0 km/h
2391 27-08-2010 22:30:02 14.8 C 10.01 g/m*3 14.8 C 0 km/h
2392 27-08-2010 22:43:28 14.8 C 10.01 g/m*3 14.8 C 0 km/h
2393 27-08-2010 22:55:28 14.5 C 10.07 g/m*3 14.5 C 0 km/h
2394 27-08-2010 23:07:28 13.8 C 9.65 g/m*3 13.8 C 0 km/h
2395 27-08-2010 23:19:28 13.9 C 9.59 g/m*3 13.9 C 0 km/h
2396 27-08-2010 23:31:28 13.8 C 9.29 g/m*3 13.8 C 0 km/h
2397 27-08-2010 23:43:28 14.1 C 9.1 g/m*3 14.1 C 0 km/h
2398 27-08-2010 23:55:28 14.2 C 9.04 g/m*3 14.2 C 0 km/h
2399 28-08-2010 00:07:28 14.1 C 9.1 g/m*3 14.1 C 0 km/h
2400 28-08-2010 00:19:28 13.9 C 9.11 g/m*3 13.9 C 0 km/h
Sensor: Nr:Datum:Temp:Abs-Feuchte:Windchill:Wind:
Aussen-T/F 2401 28-08-2010 00:31:28 14 C 9.05 g/m*3 14 C 0 km/h
2402 28-08-2010 00:43:28 13.7 C 9.35 g/m*3 13.7 C 0 km/h
2403 28-08-2010 00:55:29 13.2 C 9.42 g/m*3 13.2 C 0 km/h
2404 28-08-2010 01:07:29 13.2 C 9.64 g/m*3 13.2 C 0 km/h
2405 28-08-2010 01:19:29 13.1 C 9.81 g/m*3 13.1 C 0 km/h
2406 28-08-2010 01:31:29 13 C 9.87 g/m*3 13 C 0 km/h
2407 28-08-2010 01:43:29 13.1 C 10.04 g/m*3 13.1 C 0 km/h
2408 28-08-2010 01:55:29 13.1 C 10.04 g/m*3 13.1 C 0 km/h
2409 28-08-2010 02:07:29 13.2 C 9.99 g/m*3 13.2 C 0 km/h
2410 28-08-2010 02:19:29 13.2 C 9.99 g/m*3 13.2 C 0 km/h
2411 28-08-2010 02:31:29 13.1 C 9.81 g/m*3 13.1 C 0 km/h
2412 28-08-2010 02:43:29 13.1 C 9.7 g/m*3 13.1 C 0 km/h
2413 28-08-2010 02:55:29 13.1 C 9.59 g/m*3 13.1 C 0 km/h
2414 28-08-2010 03:07:29 13.1 C 9.59 g/m*3 13.1 C 0 km/h
2415 28-08-2010 03:19:29 13.1 C 9.59 g/m*3 13.1 C 0 km/h
2416 28-08-2010 03:31:29 13.1 C 9.47 g/m*3 13.1 C 0 km/h
2417 28-08-2010 03:43:29 13.1 C 9.59 g/m*3 13.1 C 0 km/h
2418 28-08-2010 03:55:29 13.1 C 9.59 g/m*3 13.1 C 0 km/h
2419 28-08-2010 04:07:29 12.9 C 9.47 g/m*3 12.9 C 0 km/h
2420 28-08-2010 04:19:30 12.9 C 9.47 g/m*3 12.9 C 0 km/h
2421 28-08-2010 04:31:30 12.5 C 9.24 g/m*3 12.5 C 0 km/h
2422 28-08-2010 04:43:30 12.3 C 9.23 g/m*3 12.3 C 0 km/h
2423 28-08-2010 04:55:30 12.1 C 9.12 g/m*3 12.1 C 0 km/h
2424 28-08-2010 05:07:30 12.2 C 9.28 g/m*3 12.2 C 0 km/h
2425 28-08-2010 05:19:30 12.3 C 9.34 g/m*3 12.3 C 0 km/h
Sensor: Nr:Datum:Temp:Abs-Feuchte:Windchill:Wind:
Aussen-T/F 2426 28-08-2010 05:31:30 12.1 C 9.01 g/m*3 12.1 C 0 km/h
2427 28-08-2010 05:43:30 11.9 C 9 g/m*3 11.9 C 0 km/h
2428 28-08-2010 05:55:30 12.1 C 9.12 g/m*3 12.1 C 0 km/h
2429 28-08-2010 06:07:30 11.7 C 8.89 g/m*3 11.7 C 0 km/h
2430 28-08-2010 06:19:30 11.6 C 8.83 g/m*3 11.6 C 0 km/h
2431 28-08-2010 06:31:30 11.7 C 8.79 g/m*3 11.7 C 0 km/h
2432 28-08-2010 06:43:30 11.5 C 8.68 g/m*3 11.5 C 0 km/h
2433 28-08-2010 06:55:02 11.4 C 8.62 g/m*3 11.4 C 0 km/h
2434 28-08-2010 07:07:02 11.3 C 8.67 g/m*3 11.3 C 0 km/h
2435 28-08-2010 07:19:02 11.3 C 8.77 g/m*3 11.3 C 0 km/h
2436 28-08-2010 07:31:01 11.6 C 8.94 g/m*3 11.6 C 0 km/h
2437 28-08-2010 07:43:01 12 C 8.95 g/m*3 12 C 0 km/h
2438 28-08-2010 07:55:02 12.4 C 9.07 g/m*3 12.4 C 0 km/h
2439 28-08-2010 08:07:01 12.6 C 9.07 g/m*3 12.6 C 0 km/h
2440 28-08-2010 08:19:02 12.8 C 8.96 g/m*3 12.8 C 0 km/h
2441 28-08-2010 08:31:01 13 C 8.85 g/m*3 13 C 0 km/h
2442 28-08-2010 08:43:01 13.4 C 8.95 g/m*3 13.4 C 0 km/h
2443 28-08-2010 08:55:02 13.6 C 8.83 g/m*3 13.6 C 0 km/h
2444 28-08-2010 09:07:02 14.3 C 8.97 g/m*3 14.3 C 0 km/h
2445 28-08-2010 09:19:01 14.2 C 8.55 g/m*3 14.2 C 0 km/h
2446 28-08-2010 09:31:02 14.1 C 8.62 g/m*3 14.1 C 0 km/h
2447 28-08-2010 09:43:02 14.1 C 8.37 g/m*3 14.1 C 0 km/h
2448 28-08-2010 09:55:02 14.4 C 8.41 g/m*3 14.4 C 0 km/h
2449 28-08-2010 10:07:02 14.6 C 8.38 g/m*3 14.6 C 0 km/h
2450 28-08-2010 10:19:02 14.6 C 8.38 g/m*3 14.6 C 0 km/h
Sensor: Nr:Datum:Temp:Abs-Feuchte:Windchill:Wind:
Aussen-T/F 2451 28-08-2010 10:31:02 15.1 C 8.39 g/m*3 15.1 C 0 km/h
2452 28-08-2010 10:43:02 15.6 C 8.51 g/m*3 15.6 C 0 km/h
2453 28-08-2010 10:55:02 15.8 C 8.08 g/m*3 15.8 C 0 km/h
2454 28-08-2010 11:07:03 15.8 C 8.21 g/m*3 15.8 C 0 km/h
2455 28-08-2010 11:19:02 16.4 C 7.96 g/m*3 16.4 C 0 km/h
2456 28-08-2010 11:31:03 16.9 C 7.77 g/m*3 16.9 C 0 km/h
2457 28-08-2010 11:43:03 16.7 C 7.25 g/m*3 16.7 C 0 km/h
2458 28-08-2010 11:55:02 16.4 C 7.82 g/m*3 16.4 C 0 km/h
2459 28-08-2010 12:07:02 17 C 7.67 g/m*3 17 C 0 km/h
2460 28-08-2010 12:19:02 18 C 7.22 g/m*3 18 C 0 km/h
2461 28-08-2010 12:31:02 13.7 C 8.05 g/m*3 13.7 C 0 km/h
2462 28-08-2010 12:43:02 13.7 C 9.35 g/m*3 13.7 C 0 km/h
2463 28-08-2010 12:55:02 14.7 C 10.58 g/m*3 14.7 C 0 km/h
2464 28-08-2010 13:07:02 15.7 C 10.84 g/m*3 15.7 C 0 km/h
2465 28-08-2010 13:19:03 15.8 C 10.23 g/m*3 15.8 C 0 km/h
2466 28-08-2010 13:31:02 15.5 C 10.31 g/m*3 15.5 C 0 km/h
2467 28-08-2010 13:43:02 17.2 C 11.57 g/m*3 17.2 C 0 km/h
2468 28-08-2010 13:55:03 17 C 10.13 g/m*3 17 C 0 km/h
2469 28-08-2010 14:07:02 15.8 C 8.88 g/m*3 15.8 C 0 km/h
2470 28-08-2010 14:19:03 16.8 C 8.01 g/m*3 16.8 C 0 km/h
2471 28-08-2010 14:31:02 15.9 C 6.91 g/m*3 15.9 C 0 km/h
2472 28-08-2010 14:43:02 14.9 C 7.01 g/m*3 14.9 C 0 km/h
2473 28-08-2010 14:55:02 14.6 C 7.63 g/m*3 14.6 C 0 km/h
2474 28-08-2010 15:07:02 14.7 C 7.68 g/m*3 14.7 C 0 km/h
2475 28-08-2010 15:19:02 15.8 C 7.94 g/m*3 15.8 C 0 km/h
Sensor: Nr:Datum:Temp:Abs-Feuchte:Windchill:Wind:
Aussen-T/F 2476 28-08-2010 15:31:03 17.6 C 7.65 g/m*3 17.6 C 0 km/h
2477 28-08-2010 15:43:03 17.9 C 6.72 g/m*3 17.9 C 0 km/h
2478 28-08-2010 15:55:02 17.6 C 7.05 g/m*3 17.6 C 0 km/h
2479 28-08-2010 16:07:01 17 C 6.8 g/m*3 17 C 0 km/h
2480 28-08-2010 16:19:02 14.9 C 7.65 g/m*3 14.9 C 0 km/h
2481 28-08-2010 16:31:02 13.9 C 8.27 g/m*3 13.9 C 0 km/h
2482 28-08-2010 16:43:02 14.5 C 8.95 g/m*3 14.5 C 0 km/h
2483 28-08-2010 16:55:01 15.2 C 8.44 g/m*3 15.2 C 0 km/h
2484 28-08-2010 17:07:02 15.9 C 9.21 g/m*3 15.9 C 0 km/h
2485 28-08-2010 17:19:01 16 C 8.72 g/m*3 16 C 0 km/h
2486 28-08-2010 17:31:02 15.7 C 8.3 g/m*3 15.7 C 0 km/h
2487 28-08-2010 17:43:02 15.2 C 8.05 g/m*3 15.2 C 0 km/h
2488 28-08-2010 17:55:01 15.2 C 9.09 g/m*3 15.2 C 0 km/h
2489 28-08-2010 18:07:02 16.2 C 8.27 g/m*3 16.2 C 0 km/h
2490 28-08-2010 18:19:01 17 C 6.95 g/m*3 17 C 0 km/h
2491 28-08-2010 18:31:02 18.1 C 7.26 g/m*3 18.1 C 0 km/h
2492 28-08-2010 18:43:02 18.3 C 7.04 g/m*3 18.3 C 0 km/h
2493 28-08-2010 18:55:01 18.2 C 7.46 g/m*3 18.2 C 0 km/h
2494 28-08-2010 19:07:02 16.8 C 7.86 g/m*3 16.8 C 0 km/h
2495 28-08-2010 19:19:02 16.1 C 7.95 g/m*3 16.1 C 0 km/h
2496 28-08-2010 19:31:02 15 C 8.59 g/m*3 15 C 0 km/h
2497 28-08-2010 19:43:02 14.2 C 8.79 g/m*3 14.2 C 0 km/h
2498 28-08-2010 19:55:01 14.2 C 8.3 g/m*3 14.2 C 0 km/h
2499 28-08-2010 20:07:02 13.4 C 8.6 g/m*3 13.4 C 0 km/h
2500 28-08-2010 20:19:02 13 C 8.85 g/m*3 13 C 0 km/h
Sensor: Nr:Datum:Temp:Abs-Feuchte:Windchill:Wind:
Aussen-T/F 2501 28-08-2010 20:31:01 13.1 C 9.13 g/m*3 13.1 C 0 km/h
2502 28-08-2010 20:43:01 13.1 C 9.24 g/m*3 13.1 C 0 km/h
2503 28-08-2010 20:55:02 12.9 C 9.35 g/m*3 12.9 C 0 km/h
2504 28-08-2010 21:07:01 12.8 C 9.3 g/m*3 12.8 C 0 km/h
2505 28-08-2010 21:19:02 12.7 C 9.24 g/m*3 12.7 C 0 km/h
2506 28-08-2010 21:31:01 12.4 C 9.07 g/m*3 12.4 C 0 km/h
2507 28-08-2010 21:43:01 12.2 C 8.96 g/m*3 12.2 C 0 km/h
2508 28-08-2010 21:55:02 12.2 C 9.06 g/m*3 12.2 C 0 km/h
2509 28-08-2010 22:08:02 12.3 C 9.12 g/m*3 12.3 C 0 km/h
2510 28-08-2010 22:20:02 12.3 C 9.01 g/m*3 12.3 C 0 km/h
2511 28-08-2010 22:32:03 12.2 C 8.85 g/m*3 12.2 C 0 km/h
2512 28-08-2010 22:44:03 12.1 C 8.79 g/m*3 12.1 C 0 km/h
2513 28-08-2010 22:56:03 12.3 C 9.01 g/m*3 12.3 C 0 km/h
2514 28-08-2010 23:08:03 12.6 C 8.96 g/m*3 12.6 C 0 km/h
2515 28-08-2010 23:20:03 12.7 C 8.79 g/m*3 12.7 C 0 km/h
2516 28-08-2010 23:32:03 12.4 C 8.74 g/m*3 12.4 C 0 km/h
2517 28-08-2010 23:44:03 12.1 C 8.58 g/m*3 12.1 C 0 km/h
2518 28-08-2010 23:56:03 12 C 8.53 g/m*3 12 C 0 km/h

Legende:
   Min
   Max


Maximal/Minimal-Werte vom 08.08.2010 - 28.08.2010

Sensor Min Max Avg
Temp
(Aussen-T/F)
11 °C
14-08-2010  06:44:05
32.8 °C
21-08-2010  17:36:02
19.24 °C
Abs-Feuchte
(Aussen-T/F)
4.21 g/m*3
24-08-2010  17:15:02
16.1 g/m*3
23-08-2010  12:26:02
10.17 g/m*3
Windchill
(Aussen-T/F)
11 C
14-08-2010  06:44:05
32.8 C
21-08-2010  17:36:02
19.23 C

Die Daten stammen von einer Davis Vantage Pro 2 Wetter-Station und werden unter Linux mit der Software wview2wettercgi und aufbereitet. Alle Angaben erfolgen ohne Gewähr für ihre Vollständigkeit oder Richtigkeit.
Kontakt: Rainer Krienke krienke@uni-koblenz.de . Meine Webseiten an der Uni Koblenz oder privat.
Version: $Revision: 0.78 $